[[{"header":{"parameterUnit":"m.s-1","parameterCategory":1,"la1":31.0,"la2":29.5877,"lo1":-88.7671,"lo2":-86.6584,"dy":0.0162,"dx":0.0185,"nx":115,"ny":88,"refTime":"2023-10-03T06:00:00:Z","depth":0,"parameterNumber":2,"parameterNumberName":"U-component_of_WINDS"},"data":[0.0,0.0,0.0,0.0,0.0,0.0,0.0,0.0,0.0,0.0,0.0,0.0,0.0,0.0,0.0,0.0,0.0,0.0,0.0,0.0,0.0,0.0,0.0,0.0,0.0,0.0,0.0,0.0,0.0,0.0,0.0,0.0,0.0,0.0,0.0,0.0,0.0,0.0,0.0,0.0,0.0,0.0,0.0,0.0,0.0,0.0,0.0,0.0,0.0,0.0,0.0,0.0,0.0,0.0,0.0,0.0,0.0,0.0,0.0,0.0,0.0,0.0,0.0,0.0,0.0,0.0,0.0,0.0,0.0,0.0,0.0,0.0,0.0,0.0,0.0,0.0,0.0,0.0,0.0,0.0,0.0,0.0,0.0,0.0,0.0,0.0,0.0,0.0,0.0,0.0,0.0,0.0,0.0,0.0,0.0,0.0,0.0,0.0,0.0,0.0,0.0,0.0,0.0,0.0,0.0,0.0,0.0,0.0,0.0,0.0,0.0,0.0,0.0,0.0,0.0,0.0,0.0,0.0,0.0,0.0,0.0,0.0,0.0,0.0,0.0,0.0,0.0,0.0,0.0,0.0,0.0,0.0,0.0,0.0,0.0,0.0,0.0,0.0,0.0,0.0,0.0,0.0,0.0,0.0,0.0,0.0,0.0,0.0,0.0,0.0,0.0,0.0,0.0,0.0,0.0,0.0,0.0,0.0,0.0,0.0,0.0,0.0,0.0,0.0,0.0,0.0,0.0,0.0,0.0,0.0,0.0,0.0,0.0,0.0,0.0,0.0,0.0,0.0,0.0,0.0,0.0,0.0,0.0,0.0,0.0,0.0,0.0,0.0,0.0,0.0,0.0,0.0,0.0,0.0,0.0,0.0,0.0,0.0,0.0,0.0,0.0,0.0,0.0,0.0,0.0,0.0,0.0,0.0,0.0,0.0,0.0,0.0,0.0,0.0,0.0,0.0,0.0,0.0,0.0,0.0,0.0,0.0,0.0,0.0,0.0,0.0,0.0,0.0,0.0,0.0,0.0,0.0,0.0,0.0,0.0,0.0,0.0,0.0,0.0,0.0,0.0,0.0,0.0,0.0,0.0,0.0,0.0,0.0,0.0,0.0,0.0,0.0,0.0,0.0,0.0,0.0,0.0,0.0,0.0,0.0,0.0,0.0,0.0,0.0,0.0,0.0,0.0,0.0,0.0,0.0,0.0,0.0,0.0,0.0,0.0,0.0,0.0,0.0,0.0,0.0,0.0,0.0,0.0,0.0,0.0,0.0,0.0,0.0,0.0,0.0,0.0,0.0,0.0,0.0,0.0,0.0,0.0,0.0,0.0,0.0,0.0,0.0,0.0,0.0,0.0,0.0,0.0,0.0,0.0,0.0,0.0,0.0,0.0,0.0,0.0,0.0,0.0,0.0,0.0,0.0,0.0,0.0,0.0,0.0,0.0,0.0,0.0,0.0,0.0,0.0,0.0,0.0,0.0,0.0,0.0,0.0,0.0,0.0,0.0,0.0,0.0,0.0,0.0,0.0,0.0,0.0,0.0,0.0,0.0,0.0,0.0,0.0,0.0,0.0,0.0,0.0,0.0,0.0,0.0,0.0,0.0,0.0,0.0,0.0,0.0,0.0,0.0,0.0,0.0,0.0,0.0,0.0,0.0,0.0,0.0,0.0,0.0,0.0,0.0,0.0,0.0,0.0,0.0,0.0,0.0,0.0,0.0,0.0,0.0,0.0,0.0,0.0,0.0,0.0,0.0,0.0,0.0,0.0,0.0,0.0,0.0,0.0,0.0,0.0,0.0,0.0,0.0,0.0,0.0,0.0,0.0,0.0,0.0,0.0,0.0,0.0,0.0,0.0,0.0,0.0,0.0,0.0,0.0,0.0,0.0,0.0,0.0,0.0,0.0,0.0,0.0,0.0,0.0,0.0,0.0,0.0,0.0,0.0,0.0,0.0,0.0,0.0,0.0,0.0,0.0,0.0,0.0,0.0,0.0,0.0,0.0,0.0,0.0,0.0,0.0,0.0,0.0,0.0,0.0,0.0,0.0,0.0,0.0,0.0,0.0,0.0,0.0,0.0,0.0,0.0,0.0,0.0,0.0,0.0,0.0,0.0,0.0,0.0,0.0,0.0,0.0,0.0,0.0,0.0,0.0,0.0,0.0,0.0,0.0,0.0,0.0,0.0,0.0,0.0,0.0,0.0,0.0,0.0,0.0,0.0,0.0,0.0,0.0,0.0,0.0,0.0,0.0,0.0,0.0,0.0,0.0,0.0,0.0,0.0,0.0,0.0,0.0,0.0,0.0,0.0,0.0,0.0,0.0,0.0,0.0,0.0,0.0,0.0,0.0,0.0,0.0,0.0,0.0,0.0,0.0,0.0,0.0,0.0,0.0,0.0,0.0,0.0,0.0,0.0,0.0,0.0,0.0,0.0,0.0,0.0,0.0,0.0,0.0,0.0,0.0,0.0,0.0,0.0,0.0,0.0,0.0,0.0,0.0,0.0,0.0,0.0,0.0,0.0,0.0,0.0,0.0,0.0,0.0,0.0,0.0,0.0,0.0,0.0,0.0,0.0,0.0,0.0,0.0,0.0,0.0,0.0,0.0,0.0,0.0,0.0,0.0,0.0,0.0,0.0,0.0,0.0,0.0,0.0,0.0,0.0,0.0,0.0,0.0,0.0,0.0,0.0,0.0,0.0,0.0,0.0,0.0,0.0,0.0,0.0,0.0,0.0,0.0,0.0,0.0,0.0,0.0,0.0,0.0,0.0,0.0,0.0,0.0,0.0,0.0,0.0,0.0,0.0,0.0,0.0,0.0,0.0,0.0,0.0,0.0,0.0,0.0,0.0,0.0,0.0,0.0,0.0,0.0,0.0,0.0,0.0,0.0,0.0,0.0,0.0,0.0,0.0,0.0,0.0,0.0,0.0,0.0,0.0,0.0,0.0,0.0,0.0,0.0,0.0,0.0,0.0,0.0,0.0,0.0,0.0,0.0,0.0,0.0,0.0,0.0,0.0,0.0,0.0,0.0,0.0,0.0,0.0,0.0,0.0,0.0,0.0,0.0,0.0,0.0,0.0,0.0,0.0,0.0,0.0,0.0,0.0,0.0,0.0,0.0,0.0,0.0,0.0,0.0,0.0,0.0,0.0,0.0,0.0,0.0,0.0,0.0,0.0,0.0,0.0,0.0,0.0,0.0,0.0,0.0,0.0,0.0,0.0,0.0,0.0,0.0,0.0,0.0,0.0,0.0,0.0,0.0,0.0,0.0,0.0,0.0,0.0,0.0,0.0,0.0,0.0,0.0,0.0,0.0,0.0,0.0,0.0,0.0,0.0,0.0,0.0,0.0,0.0,0.0,0.0,0.0,0.0,0.0,0.0,0.0,0.0,0.0,0.0,0.0,0.0,0.0,0.0,0.0,0.0,0.0,0.0,0.0,0.0,0.0,0.0,0.0,0.0,0.0,0.0,0.0,0.0,0.0,0.0,0.0,0.0,0.0,0.0,0.0,0.0,0.0,0.0,0.0,0.0,0.0,0.0,0.0,0.0,0.0,0.0,0.0,0.0,0.0,0.0,0.0,0.0,0.0,0.0,0.0,0.0,0.0,0.0,0.0,0.0,0.0,0.0,0.0,0.0,0.0,0.0,0.0,0.0,0.0,0.0,0.0,0.0,0.0,0.0,0.0,0.0,0.0,0.0,0.0,0.0,0.0,0.0,0.0,0.0,0.0,0.0,0.0,0.0,0.0,0.0,0.0,0.0,0.0,0.0,0.0,0.0,0.0,0.0,0.0,0.0,0.0,0.0,0.0,0.0,0.0,0.0,0.0,0.0,0.0,0.0,0.0,0.0,0.0,0.0,0.0,0.0,0.0,0.0,0.0,0.0,0.0,0.0,0.0,0.0,0.0,0.0,0.0,0.0,0.0,0.0,0.0,0.0,0.0,0.0,0.0,0.0,0.0,0.0,0.0,0.0,0.0,0.0,0.0,0.0,0.0,0.0,0.0,0.0,0.0,0.0,0.0,0.0,0.0,0.0,0.0,0.0,0.0,0.0,0.0,0.0,0.0,0.0,0.0,0.0,0.0,0.0,0.0,0.0,0.0,0.0,0.0,0.0,0.0,0.0,0.0,0.0,0.0,0.0,0.0,0.0,0.0,0.0,0.0,0.0,0.0,0.0,0.0,0.0,0.0,0.0,0.0,0.0,0.0,0.0,0.0,0.0,0.0,0.0,0.0,0.0,0.0,0.0,0.0,0.0,0.0,0.0,0.0,0.0,0.0,0.0,-1.2622,0.0,0.0,0.0,0.0,0.0,0.0,0.0,0.0,0.0,0.0,0.0,0.0,0.0,0.0,0.0,0.0,0.0,0.0,0.0,0.0,0.0,0.0,0.0,0.0,0.0,0.0,0.0,0.0,0.0,0.0,0.0,0.0,0.0,0.0,0.0,0.0,0.0,0.0,0.0,0.0,0.0,0.0,0.0,0.0,0.0,0.0,0.0,0.0,0.0,0.0,0.0,0.0,0.0,0.0,0.0,0.0,0.0,0.0,0.0,0.0,0.0,0.0,0.0,0.0,0.0,0.0,0.0,0.0,0.0,0.0,0.0,0.0,0.0,0.0,0.0,0.0,0.0,0.0,0.0,0.0,0.0,0.0,0.0,0.0,0.0,0.0,0.0,0.0,0.0,0.0,0.0,0.0,0.0,0.0,0.0,0.0,0.0,0.0,0.0,0.0,0.0,0.0,0.0,0.0,0.0,0.0,0.0,0.0,0.0,0.0,-1.4223,-1.389,-1.4114,-1.3865,-1.3029,0.0,0.0,0.0,0.0,0.0,0.0,0.0,0.0,0.0,0.0,0.0,0.0,0.0,0.0,0.0,0.0,0.0,0.0,0.0,0.0,0.0,0.0,0.0,0.0,0.0,0.0,0.0,0.0,0.0,0.0,0.0,0.0,0.0,0.0,0.0,0.0,0.0,0.0,0.0,0.0,0.0,0.0,0.0,0.0,0.0,0.0,0.0,0.0,0.0,0.0,0.0,0.0,0.0,0.0,0.0,0.0,0.0,0.0,0.0,0.0,0.0,0.0,0.0,0.0,0.0,0.0,0.0,0.0,0.0,0.0,0.0,0.0,0.0,0.0,0.0,0.0,0.0,0.0,0.0,0.0,0.0,0.0,0.0,0.0,0.0,0.0,0.0,0.0,0.0,0.0,0.0,0.0,0.0,0.0,0.0,0.0,0.0,0.0,0.0,0.0,0.0,0.0,0.0,0.0,0.0,0.0,0.0,0.0,0.0,0.0,0.0,0.0,-1.4974,-1.4557,-1.3347,0.0,0.0,0.0,0.0,0.0,0.0,0.0,0.0,0.0,0.0,0.0,0.0,0.0,0.0,0.0,0.0,0.0,0.0,0.0,0.0,0.0,0.0,0.0,0.0,0.0,0.0,0.0,0.0,0.0,0.0,0.0,0.0,0.0,0.0,0.0,0.0,0.0,0.0,0.0,0.0,0.0,0.0,0.0,0.0,0.0,0.0,0.0,0.0,0.0,0.0,0.0,0.0,0.0,0.0,0.0,0.0,0.0,0.0,0.0,0.0,0.0,0.0,0.0,0.0,0.0,0.0,0.0,0.0,0.0,0.0,0.0,0.0,0.0,0.0,0.0,0.0,0.0,0.0,0.0,0.0,0.0,0.0,0.0,0.0,0.0,0.0,0.0,0.0,0.0,0.0,0.0,0.0,0.0,0.0,0.0,0.0,0.0,0.0,0.0,0.0,0.0,0.0,0.0,0.0,0.0,0.0,0.0,0.0,0.0,0.0,-1.6515,-1.6287,-1.5973,0.0,-1.3747,0.0,0.0,0.0,0.0,0.0,0.0,0.0,0.0,0.0,0.0,0.0,0.0,0.0,0.0,0.0,0.0,0.0,0.0,0.0,0.0,0.0,0.0,0.0,0.0,0.0,0.0,0.0,0.0,0.0,0.0,0.0,0.0,0.0,0.0,0.0,0.0,0.0,0.0,0.0,0.0,0.0,0.0,0.0,0.0,0.0,0.0,0.0,0.0,0.0,0.0,0.0,0.0,0.0,0.0,0.0,0.0,0.0,0.0,0.0,0.0,0.0,0.0,0.0,0.0,0.0,0.0,0.0,0.0,0.0,0.0,0.0,0.0,0.0,0.0,0.0,0.0,0.0,0.0,0.0,0.0,0.0,0.0,0.0,0.0,0.0,0.0,0.0,0.0,0.0,0.0,0.0,0.0,0.0,0.0,0.0,0.0,0.0,0.0,0.0,0.0,0.0,0.0,0.0,0.0,0.0,0.0,0.0,0.0,0.0,0.0,-1.7505,-1.6971,-1.6289,-1.5452,0.0,0.0,0.0,0.0,0.0,0.0,0.0,0.0,0.0,0.0,0.0,0.0,0.0,0.0,0.0,0.0,0.0,0.0,0.0,0.0,0.0,0.0,0.0,0.0,0.0,0.0,0.0,0.0,0.0,0.0,0.0,0.0,0.0,0.0,0.0,0.0,0.0,0.0,0.0,0.0,0.0,0.0,0.0,0.0,0.0,0.0,0.0,0.0,0.0,0.0,0.0,0.0,0.0,0.0,0.0,0.0,0.0,0.0,0.0,0.0,0.0,0.0,0.0,0.0,0.0,0.0,0.0,0.0,0.0,0.0,0.0,0.0,0.0,0.0,0.0,0.0,0.0,0.0,0.0,0.0,0.0,0.0,0.0,0.0,0.0,0.0,0.0,0.0,0.0,0.0,0.0,0.0,0.0,0.0,0.0,0.0,0.0,0.0,0.0,0.0,0.0,0.0,0.0,0.0,0.0,0.0,0.0,0.0,0.0,0.0,-1.8417,-1.851,-1.778,-1.6929,-1.6166,-1.5477,0.0,0.0,0.0,0.0,0.0,0.0,0.0,0.0,0.0,0.0,0.0,0.0,0.0,0.0,0.0,0.0,0.0,0.0,0.0,0.0,0.0,0.0,0.0,0.0,0.0,0.0,0.0,0.0,0.0,0.0,0.0,0.0,0.0,0.0,0.0,0.0,0.0,0.0,0.0,0.0,0.0,0.0,0.0,0.0,0.0,0.0,0.0,0.0,0.0,0.0,0.0,0.0,0.0,0.0,0.0,0.0,0.0,0.0,0.0,0.0,0.0,0.0,0.0,0.0,0.0,0.0,0.0,0.0,0.0,0.0,0.0,0.0,0.0,0.0,0.0,0.0,0.0,0.0,0.0,0.0,0.0,0.0,0.0,0.0,0.0,0.0,0.0,0.0,0.0,0.0,0.0,0.0,0.0,0.0,0.0,0.0,0.0,0.0,0.0,0.0,0.0,0.0,0.0,0.0,0.0,0.0,0.0,0.0,-1.8646,-1.954,-1.9663,-1.8924,-1.828,-1.7471,0.0,0.0,0.0,0.0,0.0,0.0,0.0,0.0,0.0,0.0,0.0,0.0,0.0,0.0,0.0,0.0,0.0,0.0,0.0,0.0,0.0,0.0,0.0,0.0,0.0,0.0,0.0,0.0,0.0,0.0,0.0,0.0,0.0,0.0,0.0,0.0,0.0,0.0,0.0,0.0,0.0,0.0,0.0,0.0,0.0,0.0,0.0,0.0,0.0,0.0,0.0,0.0,0.0,0.0,0.0,0.0,0.0,0.0,0.0,0.0,0.0,0.0,0.0,0.0,0.0,0.0,0.0,0.0,0.0,0.0,0.0,0.0,0.0,0.0,0.0,0.0,0.0,0.0,0.0,0.0,0.0,0.0,0.0,0.0,0.0,0.0,0.0,0.0,0.0,0.0,0.0,0.0,0.0,0.0,0.0,0.0,0.0,0.0,0.0,0.0,0.0,0.0,0.0,0.0,0.0,0.0,0.0,0.0,0.0,-1.9298,-2.0151,-2.0305,-1.9649,-1.8796,-1.7977,0.0,0.0,0.0,0.0,0.0,0.0,0.0,0.0,0.0,0.0,0.0,0.0,0.0,0.0,0.0,0.0,0.0,0.0,0.0,0.0,0.0,0.0,0.0,0.0,0.0,0.0,0.0,0.0,0.0,0.0,0.0,0.0,0.0,0.0,0.0,0.0,0.0,0.0,0.0,0.0,0.0,0.0,0.0,0.0,0.0,0.0,0.0,0.0,0.0,0.0,0.0,0.0,0.0,0.0,0.0,0.0,0.0,0.0,0.0,0.0,0.0,0.0,0.0,0.0,0.0,0.0,0.0,0.0,0.0,0.0,0.0,0.0,0.0,0.0,0.0,0.0,0.0,0.0,0.0,0.0,0.0,0.0,0.0,0.0,0.0,0.0,0.0,0.0,0.0,0.0,0.0,0.0,0.0,0.0,0.0,0.0,0.0,0.0,0.0,0.0,0.0,0.0,0.0,0.0,0.0,0.0,0.0,0.0,0.0,-2.0275,0.0,-2.0934,0.0,-1.9443,-1.8643,0.0,0.0,0.0,0.0,0.0,0.0,0.0,0.0,0.0,0.0,0.0,0.0,0.0,0.0,0.0,0.0,0.0,0.0,0.0,0.0,0.0,0.0,0.0,0.0,0.0,0.0,0.0,0.0,0.0,0.0,0.0,0.0,0.0,0.0,0.0,0.0,0.0,0.0,0.0,0.0,0.0,0.0,0.0,0.0,0.0,0.0,0.0,0.0,0.0,0.0,0.0,0.0,0.0,0.0,0.0,0.0,0.0,0.0,0.0,0.0,0.0,0.0,0.0,0.0,0.0,0.0,0.0,0.0,0.0,0.0,0.0,0.0,0.0,0.0,0.0,0.0,0.0,0.0,0.0,0.0,0.0,0.0,0.0,0.0,0.0,0.0,0.0,0.0,0.0,0.0,0.0,0.0,0.0,0.0,0.0,0.0,0.0,0.0,0.0,0.0,0.0,0.0,0.0,0.0,0.0,0.0,0.0,0.0,-2.0664,-2.1639,-2.1686,-2.1624,-2.1408,-2.0292,-1.9513,0.0,0.0,0.0,0.0,0.0,0.0,0.0,0.0,0.0,0.0,0.0,0.0,0.0,0.0,0.0,0.0,0.0,0.0,0.0,0.0,0.0,0.0,0.0,0.0,0.0,0.0,0.0,0.0,0.0,0.0,0.0,0.0,0.0,0.0,0.0,0.0,0.0,0.0,0.0,0.0,0.0,0.0,0.0,0.0,0.0,0.0,0.0,0.0,0.0,0.0,0.0,0.0,0.0,0.0,0.0,0.0,0.0,0.0,0.0,0.0,0.0,0.0,0.0,0.0,0.0,0.0,0.0,0.0,0.0,0.0,0.0,0.0,0.0,0.0,0.0,0.0,0.0,0.0,0.0,0.0,0.0,0.0,0.0,0.0,0.0,0.0,0.0,0.0,0.0,0.0,0.0,0.0,0.0,0.0,0.0,0.0,0.0,0.0,0.0,0.0,0.0,0.0,0.0,0.0,0.0,0.0,0.0,0.0,0.0,-2.2702,-2.2366,-2.2323,-2.2579,-2.1033,-2.0024,0.0,0.0,0.0,0.0,0.0,0.0,0.0,0.0,0.0,0.0,0.0,0.0,0.0,0.0,0.0,0.0,0.0,0.0,0.0,0.0,0.0,0.0,0.0,0.0,0.0,0.0,0.0,0.0,0.0,0.0,0.0,0.0,0.0,0.0,0.0,0.0,0.0,0.0,0.0,0.0,0.0,0.0,0.0,0.0,0.0,0.0,0.0,0.0,0.0,0.0,0.0,0.0,0.0,0.0,0.0,0.0,0.0,0.0,0.0,0.0,0.0,0.0,0.0,0.0,0.0,0.0,0.0,0.0,0.0,0.0,0.0,0.0,0.0,0.0,0.0,0.0,0.0,0.0,0.0,0.0,0.0,0.0,0.0,0.0,0.0,0.0,0.0,0.0,0.0,0.0,0.0,0.0,0.0,0.0,0.0,0.0,0.0,0.0,0.0,0.0,0.0,0.0,0.0,0.0,0.0,0.0,0.0,0.0,0.0,-2.3599,-2.3294,-2.3184,-2.3318,-2.1861,-2.0777,-2.0088,0.0,0.0,0.0,0.0,0.0,0.0,0.0,0.0,0.0,0.0,0.0,0.0,0.0,0.0,0.0,0.0,0.0,0.0,0.0,0.0,0.0,0.0,0.0,0.0,0.0,0.0,0.0,0.0,0.0,0.0,0.0,0.0,0.0,0.0,0.0,0.0,0.0,0.0,0.0,0.0,0.0,0.0,0.0,0.0,0.0,0.0,0.0,0.0,0.0,0.0,0.0,0.0,0.0,0.0,0.0,0.0,0.0,0.0,0.0,0.0,0.0,0.0,0.0,0.0,0.0,0.0,0.0,0.0,0.0,0.0,0.0,0.0,0.0,0.0,0.0,0.0,0.0,0.0,0.0,0.0,0.0,0.0,0.0,0.0,0.0,0.0,0.0,0.0,0.0,0.0,0.0,0.0,0.0,0.0,0.0,0.0,0.0,0.0,0.0,0.0,0.0,0.0,0.0,0.0,0.0,0.0,0.0,0.0,-2.4337,-2.4407,-2.4148,-2.3594,-2.27,-2.1644,0.0,0.0,0.0,0.0,0.0,0.0,0.0,0.0,0.0,0.0,0.0,0.0,0.0,0.0,0.0,0.0,0.0,0.0,0.0,0.0,0.0,0.0,0.0,0.0,0.0,0.0,0.0,0.0,0.0,0.0,0.0,0.0,0.0,0.0,0.0,0.0,0.0,0.0,0.0,0.0,0.0,0.0,0.0,0.0,0.0,0.0,0.0,0.0,0.0,0.0,0.0,0.0,0.0,0.0,0.0,0.0,0.0,0.0,0.0,0.0,0.0,0.0,0.0,0.0,0.0,0.0,0.0,0.0,0.0,0.0,0.0,0.0,0.0,0.0,0.0,0.0,0.0,0.0,0.0,0.0,0.0,0.0,0.0,0.0,0.0,0.0,0.0,0.0,0.0,0.0,0.0,0.0,0.0,0.0,0.0,0.0,0.0,0.0,0.0,0.0,0.0,0.0,0.0,0.0,0.0,0.0,0.0,0.0,0.0,-2.4878,-2.5576,-2.544,-2.4459,-2.3232,-2.2012,0.0,0.0,0.0,0.0,0.0,0.0,0.0,0.0,0.0,0.0,0.0,0.0,0.0,0.0,0.0,0.0,0.0,0.0,0.0,0.0,0.0,0.0,0.0,0.0,0.0,0.0,0.0,0.0,0.0,0.0,0.0,0.0,0.0,0.0,0.0,0.0,0.0,0.0,0.0,0.0,0.0,0.0,0.0,0.0,0.0,0.0,0.0,0.0,0.0,0.0,0.0,0.0,0.0,0.0,0.0,0.0,0.0,0.0,0.0,0.0,0.0,0.0,0.0,0.0,0.0,0.0,0.0,0.0,0.0,0.0,0.0,0.0,0.0,0.0,0.0,0.0,0.0,0.0,0.0,0.0,0.0,0.0,0.0,0.0,0.0,0.0,0.0,0.0,0.0,0.0,0.0,0.0,0.0,0.0,0.0,0.0,0.0,0.0,0.0,0.0,0.0,0.0,0.0,0.0,0.0,0.0,0.0,0.0,-2.4779,-2.5099,-2.6005,-2.6072,-2.5159,-2.4,-2.2708,0.0,0.0,0.0,0.0,0.0,0.0,0.0,0.0,0.0,0.0,0.0,0.0,0.0,0.0,0.0,0.0,0.0,0.0,0.0,0.0,0.0,0.0,0.0,0.0,0.0,0.0,0.0,0.0,0.0,0.0,0.0,0.0,0.0,0.0,0.0,0.0,0.0,0.0,0.0,0.0,0.0,0.0,0.0,0.0,0.0,0.0,0.0,0.0,0.0,0.0,0.0,0.0,0.0,0.0,0.0,0.0,0.0,0.0,0.0,0.0,0.0,0.0,0.0,0.0,0.0,0.0,0.0,0.0,0.0,0.0,0.0,0.0,0.0,0.0,0.0,0.0,0.0,0.0,0.0,0.0,0.0,0.0,0.0,0.0,0.0,0.0,0.0,0.0,0.0,0.0,0.0,0.0,0.0,0.0,0.0,0.0,0.0,0.0,0.0,0.0,0.0,0.0,0.0,0.0,0.0,0.0,0.0,0.0,-2.5136,-2.5197,-2.603,-2.6235,-2.5686,-2.4793,-2.3563,0.0,0.0,0.0,0.0,0.0,0.0,0.0,0.0,0.0,0.0,0.0,0.0,0.0,0.0,0.0,0.0,0.0,0.0,0.0,0.0,0.0,0.0,0.0,0.0,0.0,0.0,0.0,0.0,0.0,0.0,0.0,0.0,0.0,0.0,0.0,0.0,0.0,0.0,0.0,0.0,0.0,0.0,0.0,0.0,0.0,0.0,0.0,0.0,0.0,0.0,0.0,0.0,0.0,0.0,0.0,0.0,0.0,0.0,0.0,0.0,0.0,0.0,0.0,0.0,0.0,0.0,0.0,0.0,0.0,0.0,0.0,0.0,0.0,0.0,0.0,0.0,0.0,0.0,0.0,0.0,0.0,0.0,0.0,0.0,0.0,0.0,0.0,0.0,0.0,0.0,0.0,0.0,0.0,0.0,0.0,0.0,0.0,0.0,0.0,0.0,0.0,0.0,0.0,0.0,0.0,0.0,0.0,0.0,-2.5308,-2.5714,-2.623,-2.6436,-2.6311,-2.517,-2.3907,0.0,0.0,0.0,0.0,0.0,0.0,0.0,0.0,0.0,0.0,0.0,0.0,0.0,0.0,0.0,0.0,0.0,0.0,0.0,0.0,0.0,0.0,0.0,0.0,0.0,0.0,0.0,0.0,0.0,0.0,0.0,0.0,0.0,0.0,0.0,0.0,0.0,0.0,0.0,0.0,0.0,0.0,0.0,0.0,0.0,0.0,0.0,0.0,-1.7793,0.0,0.0,0.0,0.0,0.0,0.0,0.0,0.0,0.0,0.0,0.0,0.0,0.0,0.0,0.0,0.0,0.0,0.0,0.0,0.0,0.0,0.0,0.0,0.0,0.0,0.0,0.0,0.0,0.0,0.0,0.0,0.0,0.0,0.0,0.0,0.0,0.0,0.0,0.0,0.0,0.0,0.0,0.0,0.0,0.0,0.0,0.0,0.0,0.0,0.0,0.0,0.0,0.0,0.0,0.0,0.0,0.0,0.0,0.0,-2.5512,-2.5898,-2.6201,-2.6408,-2.6449,-2.5331,-2.4176,0.0,0.0,0.0,0.0,0.0,0.0,0.0,0.0,0.0,0.0,0.0,0.0,0.0,0.0,0.0,0.0,0.0,0.0,0.0,0.0,0.0,0.0,0.0,0.0,0.0,0.0,0.0,0.0,0.0,0.0,0.0,0.0,0.0,0.0,0.0,0.0,0.0,0.0,0.0,0.0,0.0,0.0,0.0,0.0,0.0,0.0,0.0,0.0,0.0,0.0,0.0,0.0,0.0,0.0,0.0,0.0,0.0,0.0,0.0,0.0,0.0,0.0,0.0,0.0,0.0,0.0,0.0,0.0,0.0,0.0,0.0,0.0,0.0,0.0,0.0,0.0,0.0,0.0,0.0,0.0,0.0,0.0,0.0,0.0,0.0,0.0,0.0,0.0,0.0,0.0,0.0,0.0,0.0,0.0,0.0,0.0,0.0,0.0,0.0,0.0,0.0,0.0,0.0,0.0,0.0,0.0,0.0,-2.5016,-2.5688,-2.584,-2.6062,-2.627,-2.6418,-2.5365,-2.4402,-2.3638,0.0,0.0,0.0,0.0,0.0,0.0,0.0,0.0,0.0,0.0,0.0,0.0,0.0,0.0,0.0,0.0,0.0,0.0,0.0,0.0,0.0,0.0,0.0,0.0,0.0,0.0,0.0,0.0,0.0,0.0,0.0,0.0,0.0,0.0,0.0,0.0,0.0,0.0,-1.7234,-1.8607,0.0,0.0,0.0,0.0,0.0,0.0,0.0,0.0,-1.987,0.0,0.0,0.0,0.0,0.0,0.0,0.0,0.0,0.0,0.0,0.0,0.0,0.0,0.0,0.0,0.0,0.0,0.0,0.0,0.0,0.0,0.0,0.0,0.0,0.0,0.0,0.0,0.0,0.0,0.0,0.0,0.0,0.0,0.0,0.0,0.0,0.0,0.0,0.0,0.0,0.0,0.0,0.0,0.0,0.0,0.0,0.0,0.0,0.0,0.0,0.0,0.0,0.0,0.0,0.0,0.0,-2.4398,-2.5185,-2.5606,-2.5641,-2.584,-2.6062,-2.6211,-2.5153,-2.4434,-2.4111,0.0,0.0,0.0,0.0,0.0,0.0,0.0,0.0,0.0,0.0,0.0,0.0,0.0,0.0,0.0,0.0,0.0,0.0,0.0,0.0,0.0,0.0,0.0,0.0,0.0,0.0,0.0,0.0,0.0,0.0,0.0,0.0,0.0,0.0,0.0,0.0,0.0,0.0,0.0,-2.0114,-2.0932,0.0,0.0,0.0,0.0,0.0,0.0,0.0,0.0,-2.1547,0.0,0.0,0.0,0.0,0.0,0.0,0.0,0.0,0.0,0.0,0.0,0.0,0.0,0.0,0.0,0.0,0.0,0.0,0.0,0.0,0.0,0.0,0.0,0.0,0.0,0.0,0.0,0.0,0.0,0.0,0.0,0.0,0.0,0.0,0.0,0.0,0.0,0.0,0.0,0.0,0.0,0.0,0.0,0.0,0.0,0.0,0.0,0.0,0.0,0.0,0.0,0.0,0.0,0.0,0.0,-2.4518,-2.5117,-2.5633,-2.5995,-2.5822,-2.5963,-2.641,-2.5102,-2.432,0.0,0.0,0.0,0.0,0.0,0.0,0.0,0.0,0.0,0.0,0.0,0.0,0.0,0.0,0.0,0.0,0.0,0.0,0.0,0.0,0.0,0.0,0.0,0.0,0.0,0.0,0.0,0.0,0.0,0.0,0.0,0.0,0.0,0.0,0.0,0.0,0.0,0.0,0.0,0.0,-2.0966,-2.1623,-2.2236,0.0,0.0,0.0,0.0,0.0,0.0,-2.265,-2.231,0.0,0.0,0.0,0.0,0.0,0.0,0.0,0.0,0.0,0.0,0.0,0.0,0.0,0.0,0.0,0.0,0.0,0.0,0.0,0.0,0.0,0.0,0.0,0.0,0.0,0.0,0.0,0.0,0.0,0.0,0.0,0.0,0.0,0.0,0.0,0.0,0.0,0.0,0.0,0.0,0.0,0.0,0.0,0.0,0.0,0.0,0.0,0.0,0.0,0.0,0.0,0.0,0.0,0.0,0.0,-2.4606,-2.5133,-2.572,-2.6287,-2.5911,-2.6006,-2.66,-2.5178,-2.4267,0.0,0.0,0.0,0.0,0.0,0.0,0.0,0.0,0.0,0.0,0.0,0.0,0.0,0.0,0.0,0.0,0.0,0.0,0.0,0.0,0.0,0.0,0.0,0.0,0.0,0.0,0.0,0.0,0.0,0.0,0.0,0.0,0.0,0.0,0.0,0.0,0.0,0.0,0.0,0.0,0.0,-2.2236,-2.3032,-2.3224,0.0,0.0,0.0,0.0,-2.3288,-2.3117,0.0,0.0,0.0,0.0,0.0,0.0,0.0,0.0,0.0,0.0,0.0,0.0,0.0,0.0,0.0,0.0,0.0,0.0,0.0,0.0,0.0,0.0,0.0,0.0,0.0,0.0,0.0,0.0,0.0,0.0,0.0,0.0,0.0,0.0,0.0,0.0,0.0,0.0,0.0,0.0,0.0,0.0,0.0,0.0,0.0,0.0,0.0,0.0,0.0,0.0,0.0,0.0,0.0,0.0,0.0,0.0,-2.5004,-2.5516,-2.5875,-2.6093,-2.6082,-2.6191,-2.6432,-2.5349,-2.4499,0.0,0.0,0.0,0.0,0.0,0.0,0.0,0.0,0.0,0.0,0.0,0.0,0.0,0.0,0.0,0.0,0.0,0.0,0.0,0.0,0.0,0.0,0.0,0.0,0.0,0.0,0.0,0.0,0.0,0.0,0.0,0.0,0.0,0.0,0.0,0.0,0.0,0.0,0.0,0.0,0.0,-2.3059,-2.3904,-2.4385,-2.4693,0.0,0.0,-2.5019,-2.4629,-2.4565,0.0,0.0,0.0,0.0,0.0,0.0,0.0,0.0,0.0,0.0,0.0,0.0,0.0,0.0,0.0,0.0,0.0,0.0,0.0,0.0,0.0,0.0,0.0,0.0,0.0,0.0,0.0,0.0,0.0,0.0,0.0,0.0,0.0,0.0,0.0,0.0,0.0,0.0,0.0,0.0,0.0,0.0,0.0,0.0,0.0,0.0,0.0,0.0,0.0,0.0,0.0,0.0,0.0,0.0,0.0,-2.4073,-2.5299,-2.5523,-2.5973,-2.6617,-2.6382,-2.6265,-2.6339,-2.5326,-2.4349,0.0,0.0,0.0,0.0,0.0,0.0,0.0,0.0,0.0,0.0,0.0,0.0,0.0,0.0,0.0,0.0,0.0,0.0,0.0,0.0,0.0,0.0,0.0,0.0,0.0,0.0,0.0,0.0,0.0,0.0,0.0,0.0,0.0,0.0,0.0,0.0,0.0,0.0,0.0,0.0,0.0,0.0,-2.44,-2.5102,0.0,0.0,0.0,-2.5617,-2.5231,0.0,0.0,0.0,0.0,0.0,0.0,0.0,0.0,0.0,0.0,0.0,0.0,0.0,0.0,0.0,0.0,0.0,0.0,0.0,0.0,0.0,0.0,0.0,0.0,0.0,0.0,0.0,0.0,0.0,0.0,0.0,0.0,0.0,0.0,0.0,0.0,0.0,0.0,0.0,0.0,0.0,0.0,0.0,0.0,0.0,0.0,0.0,0.0,0.0,0.0,0.0,0.0,0.0,0.0,0.0,0.0,0.0,-2.5384,-2.5548,-2.6089,-2.7058,-2.6717,-2.6506,-2.6494,-2.547,0.0,0.0,0.0,0.0,0.0,0.0,0.0,0.0,0.0,0.0,0.0,0.0,0.0,0.0,0.0,0.0,0.0,0.0,0.0,0.0,0.0,0.0,0.0,0.0,0.0,0.0,0.0,-1.4244,0.0,0.0,0.0,0.0,0.0,0.0,0.0,0.0,0.0,0.0,0.0,0.0,0.0,0.0,-2.361,-2.471,-2.5414,-2.5841,0.0,0.0,-2.603,-2.5635,-2.5188,-2.4785,0.0,0.0,0.0,0.0,0.0,0.0,0.0,0.0,0.0,0.0,0.0,0.0,0.0,0.0,0.0,0.0,0.0,0.0,0.0,0.0,0.0,0.0,0.0,0.0,0.0,0.0,0.0,0.0,0.0,0.0,0.0,0.0,0.0,0.0,0.0,0.0,0.0,0.0,0.0,0.0,0.0,0.0,0.0,0.0,0.0,0.0,0.0,0.0,0.0,0.0,0.0,0.0,0.0,0.0,0.0,-2.5187,-2.5736,-2.6325,-2.7054,-2.7054,-2.7058,-2.7046,-2.5986,-2.5066,0.0,0.0,0.0,0.0,0.0,0.0,0.0,0.0,0.0,0.0,0.0,0.0,0.0,0.0,0.0,0.0,0.0,0.0,0.0,0.0,0.0,0.0,0.0,0.0,0.0,0.0,0.0,0.0,0.0,0.0,0.0,0.0,0.0,0.0,0.0,0.0,0.0,0.0,0.0,0.0,0.0,-2.3714,-2.4853,-2.5279,-2.5783,0.0,0.0,-2.6408,-2.6039,-2.5635,-2.5249,-2.4812,0.0,0.0,0.0,0.0,0.0,0.0,0.0,0.0,0.0,0.0,0.0,0.0,0.0,0.0,0.0,0.0,0.0,0.0,0.0,0.0,0.0,0.0,0.0,0.0,0.0,0.0,0.0,0.0,0.0,0.0,0.0,0.0,0.0,0.0,0.0,0.0,0.0,0.0,0.0,0.0,0.0,0.0,0.0,0.0,0.0,0.0,0.0,0.0,0.0,0.0,0.0,0.0,0.0,-2.4146,-2.5126,-2.5626,-2.6166,-2.6788,-2.6811,-2.6582,-2.6114,-2.5462,-2.4551,0.0,0.0,0.0,0.0,0.0,0.0,0.0,0.0,0.0,0.0,0.0,0.0,0.0,0.0,0.0,0.0,0.0,0.0,0.0,0.0,0.0,0.0,0.0,0.0,0.0,0.0,0.0,0.0,-1.4947,-1.4918,-1.5049,0.0,0.0,0.0,0.0,0.0,0.0,0.0,0.0,0.0,0.0,-2.3769,-2.4603,-2.5424,0.0,0.0,-2.6499,-2.6573,-2.6408,-2.5855,-2.5326,-2.5221,-2.4253,0.0,0.0,0.0,0.0,0.0,0.0,0.0,0.0,0.0,0.0,0.0,0.0,0.0,0.0,0.0,0.0,0.0,0.0,0.0,0.0,0.0,0.0,0.0,0.0,0.0,0.0,0.0,0.0,0.0,0.0,0.0,0.0,0.0,0.0,0.0,0.0,0.0,0.0,0.0,0.0,0.0,0.0,0.0,0.0,0.0,0.0,0.0,0.0,0.0,0.0,0.0,0.0,-2.4194,-2.5087,-2.5547,-2.601,-2.6385,-2.654,-2.6249,-2.5516,-2.5033,-2.4257,0.0,0.0,0.0,0.0,0.0,0.0,0.0,0.0,0.0,0.0,0.0,0.0,0.0,0.0,0.0,0.0,0.0,0.0,0.0,0.0,0.0,0.0,0.0,0.0,0.0,0.0,0.0,0.0,-1.5047,-1.4982,-1.499,0.0,0.0,0.0,0.0,0.0,0.0,0.0,0.0,0.0,0.0,-2.3748,-2.4324,-2.5295,-2.5989,-2.5998,-2.6242,-2.6378,-2.6345,-2.5728,-2.5283,-2.5283,0.0,0.0,0.0,0.0,0.0,0.0,0.0,0.0,0.0,0.0,0.0,0.0,0.0,0.0,0.0,0.0,0.0,0.0,0.0,0.0,0.0,0.0,0.0,0.0,0.0,0.0,0.0,0.0,0.0,0.0,-2.1843,0.0,0.0,0.0,0.0,0.0,0.0,0.0,0.0,0.0,0.0,0.0,0.0,0.0,0.0,0.0,0.0,0.0,0.0,0.0,0.0,0.0,0.0,-2.377,-2.5068,-2.5518,-2.5832,-2.5906,-2.6365,-2.6183,-2.5474,-2.5001,-2.4354,-2.3452,0.0,0.0,0.0,0.0,0.0,0.0,0.0,0.0,0.0,0.0,0.0,0.0,0.0,0.0,0.0,0.0,0.0,0.0,0.0,0.0,0.0,0.0,0.0,0.0,0.0,0.0,-1.4729,-1.483,-1.4907,0.0,0.0,0.0,0.0,0.0,0.0,0.0,0.0,0.0,0.0,-2.2578,-2.3498,-2.4035,-2.4741,-2.5293,-2.5633,-2.5697,-2.5697,-2.5688,-2.5351,-2.5094,0.0,0.0,0.0,0.0,0.0,0.0,0.0,0.0,0.0,0.0,0.0,0.0,0.0,0.0,0.0,0.0,0.0,0.0,0.0,0.0,0.0,0.0,0.0,0.0,0.0,0.0,0.0,-2.4311,-2.3537,0.0,0.0,0.0,0.0,0.0,0.0,0.0,0.0,0.0,0.0,0.0,-2.2554,-2.2186,0.0,0.0,0.0,0.0,0.0,0.0,0.0,0.0,0.0,0.0,0.0,0.0,-2.3484,-2.423,-2.4849,-2.4992,-2.4796,-2.4997,-2.481,-2.4186,-2.3737,-2.2929,-2.1739,0.0,0.0,0.0,0.0,0.0,0.0,0.0,0.0,0.0,0.0,0.0,0.0,0.0,0.0,0.0,0.0,0.0,0.0,0.0,0.0,0.0,0.0,0.0,0.0,0.0,-1.4682,0.0,0.0,0.0,0.0,0.0,0.0,0.0,0.0,0.0,0.0,0.0,-2.036,-2.0701,-2.165,-2.2526,-2.2933,-2.3553,-2.4183,0.0,0.0,0.0,0.0,0.0,0.0,0.0,0.0,0.0,0.0,0.0,0.0,0.0,0.0,-2.19,-2.1146,-2.0854,-2.0596,-2.0214,0.0,0.0,0.0,0.0,0.0,0.0,0.0,0.0,0.0,0.0,0.0,0.0,0.0,0.0,0.0,0.0,-2.3435,0.0,0.0,0.0,0.0,0.0,0.0,0.0,0.0,-2.1895,-2.2044,-2.2217,-2.195,-2.1664,0.0,-2.1075,-2.0826,0.0,0.0,0.0,0.0,0.0,0.0,0.0,0.0,-2.3011,-2.3725,-2.4265,-2.4326,-2.3961,-2.4073,-2.38,-2.3023,-2.25,-2.1753,-2.0827,-2.0188,-1.9485,0.0,0.0,0.0,0.0,0.0,0.0,0.0,0.0,0.0,0.0,0.0,0.0,0.0,0.0,0.0,0.0,0.0,0.0,0.0,0.0,0.0,0.0,0.0,-1.4399,0.0,0.0,0.0,0.0,0.0,0.0,0.0,0.0,0.0,-1.8391,-1.9361,-1.9999,-2.0209,-2.1136,-2.1932,-2.2209,0.0,0.0,0.0,0.0,0.0,0.0,0.0,-2.3769,-2.3769,-2.3686,-2.3453,-2.3183,-2.2821,-2.2496,-2.2356,0.0,0.0,-2.1403,-2.123,-2.0937,-2.0382,-2.0246,-2.0077,-1.9538,-1.9494,-1.9531,0.0,0.0,0.0,0.0,0.0,0.0,0.0,0.0,-2.5604,-2.4918,0.0,-2.3585,0.0,0.0,0.0,0.0,0.0,0.0,0.0,0.0,-2.1654,-2.1827,-2.1843,-2.1542,-2.1364,-2.1318,-2.0369,-2.005,-2.0318,-2.0464,0.0,0.0,0.0,0.0,0.0,0.0,-2.2379,-2.3567,-2.3775,-2.3712,-2.3309,-2.3472,-2.3118,-2.2043,-2.1425,-2.0996,-2.0752,-2.0143,-1.934,-1.8374,-1.7919,0.0,0.0,0.0,0.0,0.0,0.0,0.0,0.0,0.0,0.0,0.0,0.0,0.0,0.0,0.0,0.0,0.0,0.0,0.0,0.0,-1.4237,0.0,0.0,0.0,0.0,0.0,0.0,0.0,0.0,0.0,0.0,-1.8004,-1.8758,-1.9389,-1.9954,0.0,0.0,0.0,0.0,-2.2942,-2.2958,-2.2958,-2.2958,-2.2958,-2.295,-2.295,-2.2942,0.0,0.0,-2.3003,-2.2169,-2.1516,-2.1155,-2.0874,-2.0696,-2.0993,-2.1026,-2.0835,-2.0047,-1.9907,-1.9724,-1.9451,-1.9538,-1.9695,-2.8738,0.0,0.0,0.0,0.0,-2.6854,-2.649,-2.5898,-2.5587,-2.4854,-2.3877,-2.3311,0.0,0.0,0.0,0.0,0.0,0.0,-2.0554,-2.0876,-2.098,-2.12,-2.141,-2.1065,-2.0659,-2.0267,-1.9914,-1.9606,-1.9261,-1.9447,-1.9673,-1.9886,0.0,0.0,0.0,0.0,-2.1239,-2.1752,-2.1897,-2.1814,-2.1401,-2.1584,-2.1419,-2.0835,-2.0622,-2.0313,-1.9823,-1.9615,-1.916,-1.8422,-1.7903,0.0,0.0,0.0,0.0,0.0,0.0,0.0,0.0,0.0,0.0,0.0,0.0,0.0,0.0,0.0,0.0,0.0,0.0,0.0,-1.3534,-1.3414,-1.3429,0.0,0.0,0.0,0.0,0.0,0.0,0.0,0.0,0.0,-1.6454,-1.7615,-1.8398,0.0,0.0,-2.0055,-2.039,-2.0962,-2.144,-2.1658,0.0,0.0,0.0,-2.1695,-2.1687,-2.1695,-2.1752,-2.1752,-2.1643,-2.1451,-2.1161,-2.0779,-2.0674,-2.0513,-2.0222,-2.0476,-2.064,-2.0395,-2.0386,-2.0303,-2.001,-1.9836,-1.9731,-2.8031,-2.7155,-2.7444,-2.7263,-2.6907,-2.6646,-2.6158,-2.5555,-2.534,-2.4615,-2.3535,-2.3129,-2.2532,-2.1877,-2.119,0.0,0.0,0.0,-1.9815,-2.016,-2.016,-2.0259,-2.0415,-1.9968,-1.9587,-1.9124,-1.8715,-1.836,-1.8165,-1.814,-1.8329,-1.8686,0.0,0.0,-1.9853,-1.9879,-2.0152,-2.0626,-2.061,-2.0479,-2.0268,-2.0159,-1.9962,-1.9708,-1.9691,-1.9546,-1.9187,-1.9097,-1.8791,-1.8213,-1.7743,-1.7333,0.0,0.0,0.0,0.0,0.0,0.0,0.0,0.0,0.0,0.0,0.0,-1.4465,-1.3885,0.0,0.0,0.0,-1.3369,-1.321,-1.2972,-1.3026,0.0,0.0,0.0,0.0,0.0,0.0,0.0,-1.4169,-1.4613,-1.5008,-1.5355,-1.6365,-1.7203,-1.7542,-1.8394,-1.9047,-1.9223,0.0,-2.0224,-2.0393,-2.0422,-2.0422,-2.0422,-2.0422,-2.0464,-2.0482,-2.0201,-2.0067,-2.0183,-2.0146,-1.9944,-1.9757,-1.9694,-1.9581,-1.9231,-1.9553,-1.9871,-1.9947,-2.0019,-2.0033,-1.9741,-1.9665,-1.9537,-2.6917,-2.6079,-2.6608,-2.6848,-2.6887,-2.624,-2.5541,-2.4917,-2.4872,-2.4119,-2.2928,-2.2841,-2.2132,-2.091,-1.9815,0.0,-1.9604,-1.9065,-1.8971,-1.9152,-1.9152,-1.9138,-1.9118,-1.8551,-1.8179,-1.7944,-1.7072,-1.6759,-1.7095,-1.6782,-1.678,-1.7007,-1.7837,-1.8517,-1.8957,-1.8776,-1.9039,-1.9868,-1.9641,-1.9508,-1.9602,-1.8986,-1.8681,-1.8689,-1.8689,-1.8689,-1.8681,-1.8496,-1.821,-1.787,-1.7379,-1.6855,-1.6224,0.0,0.0,0.0,0.0,0.0,0.0,0.0,0.0,0.0,0.0,0.0,0.0,0.0,0.0,0.0,-1.3062,0.0,-1.2709,-1.2878,0.0,0.0,0.0,-1.2742,-1.3027,-1.3052,-1.3209,-1.3563,0.0,0.0,-1.4705,0.0,-1.59,-1.6708,-1.7677,-1.8298,-1.8305,-1.8803,-1.9152,-1.9152,-1.9145,-1.9152,-1.9152,-1.9158,-1.9193,-1.9226,-1.8709,-1.8522,-1.871,-1.8594,-1.8343,-1.8306,-1.8214,-1.8208,-1.8202,-1.8423,-1.8654,-1.8674,-1.8994,-1.922,-1.905,-1.9133,-1.9312,-2.5763,-2.5256,-2.4832,-2.4997,-2.5504,-2.5095,-2.4643,-2.4149,-2.3699,-2.3016,-2.2185,-2.1503,-2.0727,-2.0026,-1.9526,-1.9205,-1.9066,-1.8423,-1.8164,-1.8221,-1.8052,-1.7836,-1.758,-1.7229,-1.6981,-1.6734,-1.6257,-1.6098,-1.6192,-1.612,-1.6114,-1.6159,-1.6182,-1.6593,-1.7464,-1.7479,-1.7628,-1.7952,-1.7905,-1.7858,-1.7905,-1.7744,-1.766,-1.766,-1.7652,-1.7652,-1.766,-1.7606,-1.7522,-1.7448,-1.6752,-1.6284,-1.6135,-1.55,0.0,0.0,0.0,0.0,0.0,0.0,0.0,0.0,0.0,-1.3061,-1.2374,0.0,-1.2786,0.0,-1.2621,-1.271,-1.2608,-1.2664,0.0,0.0,-1.31,-1.3256,-1.3638,-1.3684,-1.3724,-1.383,-1.4105,-1.4285,-1.4393,-1.4662,-1.4924,-1.5161,-1.6433,-1.7355,-1.7349,-1.7649,-1.7941,-1.7941,-1.7941,-1.7941,-1.7941,-1.7941,-1.7917,-1.7895,-1.7751,-1.7666,-1.7681,-1.7605,-1.7543,-1.7543,-1.7543,-1.7468,-1.7265,-1.7303,-1.7264,-1.7238,-1.8089,-1.9001,-1.893,-1.8979,-1.8932,-2.4362,-2.402,-2.34,-2.3372,-2.3632,-2.3767,-2.3588,-2.3154,-2.2706,-2.2104,-2.1213,-2.017,-1.9487,-1.9073,-1.8646,-1.832,-1.8006,-1.7525,-1.7291,-1.7285,-1.7066,-1.6826,-1.669,-1.6287,-1.5977,-1.5735,-1.5395,-1.5265,-1.5313,-1.5301,-1.5389,-1.5512,-1.5206,-1.5333,-1.5972,-1.6152,-1.6381,-1.6629,-1.6629,-1.6622,-1.6622,-1.6629,-1.6622,-1.6629,-1.6622,-1.6629,-1.6629,-1.6622,-1.6622,-1.6629,-1.5993,-1.5558,-1.5424,-1.4819,-1.417,0.0,0.0,0.0,0.0,0.0,0.0,0.0,0.0,0.0,0.0,0.0,-1.2551,-1.2284,-1.2438,-1.2521,-1.2509,-1.2612,-1.2857,-1.3191,-1.322,-1.3262,-1.3502,-1.3521,-1.3561,-1.3663,-1.3776,-1.4,-1.4212,-1.4331,-1.4471,-1.459,-1.5359,-1.6059,-1.6354,-1.6655,-1.6891,-1.7009,-1.7067,-1.7067,-1.7067,-1.6956,-1.679,-1.669,-1.6524,-1.6369,-1.6267,-1.6213,-1.6272,-1.6397,-1.6456,-1.6417,-1.627,-1.6242,-1.6127,-1.6042,-1.6547,-1.7265,-1.779,-1.8158,-1.8199,-2.2816,-2.2592,-2.2173,-2.1829,-2.1553,-2.2173,-2.2222,-2.1958,-2.1681,-2.0984,-1.9989,-1.8872,-1.828,-1.8,-1.7453,-1.7082,-1.6826,-1.6473,-1.6301,-1.6284,-1.6053,-1.5924,-1.5879,-1.5416,-1.5054,-1.4757,-1.4482,-1.4385,-1.445,-1.4444,-1.4552,-1.4761,-1.4554,-1.448,-1.4532,-1.4914,-1.5316,-1.5601,-1.5627,-1.5675,-1.5594,-1.5627,-1.5627,-1.5642,-1.5635,-1.5635,-1.5588,-1.5588,-1.5635,-1.5588,-1.5153,-1.4747,-1.4468,-1.4048,-1.3444,0.0,-1.2686,0.0,0.0,0.0,0.0,0.0,0.0,0.0,0.0,-1.2408,-1.2454,-1.2248,-1.2375,-1.2465,-1.2338,-1.258,-1.2772,-1.2964,-1.2993,-1.3002,-1.3025,-1.3025,-1.31,-1.3288,-1.3288,-1.3462,-1.3851,-1.3994,-1.4029,-1.4124,-1.4227,-1.4518,-1.5086,-1.5601,-1.6,-1.6242,-1.6242,-1.6172,-1.6127,-1.6015,-1.5766,-1.5494,-1.5272,-1.4955,-1.4852,-1.482,-1.4912,-1.515,-1.5251,-1.5218,-1.5179,-1.5139,-1.5082,-1.481,-1.4826,-1.5232,-1.6252,-1.693,-1.7226,-2.1124,-2.1075,-2.0665,-2.0312,-1.9953,-1.9814,-1.9905,-2.0167,-1.9909,-1.9141,-1.8041,-1.7382,-1.6899,-1.6651,-1.6353,-1.6123,-1.5833,-1.5531,-1.5348,-1.5343,-1.4881,-1.4562,-1.438,-1.4153,-1.387,-1.3658,-1.3544,-1.3518,-1.3532,-1.3532,-1.3586,-1.364,-1.3545,-1.356,-1.3545,0.0,0.0,0.0,-1.4795,-1.4801,-1.4604,-1.4795,-1.4801,-1.4592,-1.4586,0.0,-1.458,-1.4586,-1.4586,-1.4586,-1.4094,0.0,0.0,0.0,0.0,0.0,0.0,0.0,0.0,0.0,0.0,0.0,-1.1869,-1.1893,-1.1887,-1.2059,-1.2219,-1.227,-1.2289,-1.2279,-1.2182,-1.2179,-1.2343,-1.2539,-1.2502,-1.256,-1.2766,-1.2784,-1.2806,-1.2837,-1.2717,-1.2691,-1.2836,-1.2655,-1.2614,-1.2686,-1.2663,-1.2779,-1.3197,-1.4177,-1.4873,-1.4942,-1.4971,-1.4919,-1.4748,-1.4722,-1.4592,-1.4396,-1.4277,-1.4199,-1.4143,-1.4132,-1.4148,-1.4251,-1.4267,-1.4205,-1.3972,-1.393,-1.3838,-1.3517,-1.3455,-1.3821,-1.5058,-1.5569,-1.5828,-1.9605,0.0,-1.9326,-1.9047,0.0,-1.8443,-1.8259,-1.8151,-1.844,-1.7918,-1.7007,-1.645,-1.6082,-1.5784,-1.5565,-1.534,-1.5126,-1.4948,-1.4823,-1.4808,-1.4364,-1.4093,-1.3977,-1.3644,-1.3421,-1.332,-1.332,-1.332,-1.332,-1.332,-1.332,-1.332,-1.332,-1.3258,-1.313,-1.3017,-1.3259,-1.3855,-1.4019,-1.4025,-1.3867,-1.3975,-1.3918,-1.3722,0.0,0.0,0.0,0.0,0.0,0.0,0.0,0.0,0.0,0.0,0.0,-1.2461,-1.2471,-1.2266,-1.1859,-1.1817,-1.1704,-1.1554,-1.142,-1.1491,-1.1709,-1.1833,-1.1931,-1.1845,-1.189,-1.1907,-1.174,-1.1766,-1.1837,-1.2077,-1.2103,-1.2111,-1.2107,-1.2107,-1.2065,-1.2039,-1.195,-1.189,-1.1886,-1.181,-1.1746,-1.1746,-1.1742,-1.1795,-1.2046,-1.2954,-1.3674,-1.3854,-1.3854,-1.3815,-1.3712,-1.3683,-1.3667,-1.348,-1.3421,-1.3316,-1.3218,-1.3208,-1.3204,-1.3204,-1.3204,-1.3097,-1.2706,-1.259,-1.2483,-1.2031,-1.1919,-1.2087,-1.2813,-1.3608,-1.4349,-1.8201,-1.8201,-1.8201,-1.7996,-1.763,-1.7482,-1.696,-1.6373,0.0,0.0,0.0,-1.5706,-1.5358,-1.51,-1.485,-1.464,-1.4416,-1.4411,-1.4416,-1.4391,-1.4016,-1.3873,-1.3853,-1.3362,-1.3152,-1.3152,-1.3152,-1.3147,-1.3152,-1.3152,-1.3152,-1.3152,-1.3152,-1.3057,-1.2868,-1.2693,-1.2759,-1.3226,-1.3298,-1.3307,-1.327,-1.3307,-1.3211,-1.3023,-1.3018,-1.2927,-1.2795,-1.279,-1.279,-1.2795,-1.2662,-1.2616,-1.2616,-1.2485,-1.2302,-1.2134,-1.2082,-1.1836,-1.1451,-1.1456,-1.137,-1.122,-1.0987,-1.1076,-1.1459,-1.1577,-1.1543,-1.1235,-1.1343,-1.1342,-1.1165,-1.1126,-1.1224,-1.1399,-1.1407,-1.1335,-1.1181,-1.1153,-1.1098,-1.1021,-1.0916,-1.095,-1.0888,-1.0853,-1.0898,-1.0837,-1.0809,-1.0902,-1.1024,-1.1765,-1.2528,-1.2705,-1.2777,-1.2788,-1.2728,-1.2719,-1.264,-1.2399,-1.2414,-1.2349,-1.2165,-1.2114,-1.211,-1.2092,-1.2114,-1.1855,-1.1409,-1.1266,-1.1072,-1.0523,-1.0359,-1.0351,-1.0445,-1.1414,-1.2454,-1.7444,-1.7449,-1.7444,-1.7233,-1.6856,-1.6649,-1.6123,-1.5472,-1.57,-1.5718,-1.5569,-1.4847,-1.4466,-1.4413,-1.4027,-1.3897,-1.3808,-1.3808,-1.3808,0.0,-1.3432,-1.3236,-1.3217,-1.2745,-1.255,-1.2495,-1.255,-1.255,-1.2545,-1.2545,-1.255,-1.255,-1.255,-1.2531,-1.2502,-1.2419,-1.2459,-1.2562,-1.2863,-1.2939,-1.2704,-1.2934,-1.2924,-1.271,-1.2648,-1.269,-1.2603,-1.2598,-1.2654,-1.2603,-1.2423,-1.2284,-1.2238,-1.1859,-1.1642,-1.1755,-1.1566,-1.1478,-1.158,-1.1598,-1.1335,-1.0815,-1.0296,-1.0312,-1.108,-1.1081,-1.0855,-1.0486,-1.058,-1.0461,-1.0066,-1.0016,-0.9971,-0.9937,-0.9923,-0.986,-0.9768,-0.9808,-0.9736,-0.9697,-0.9602,-0.9468,-0.9514,-0.936,-0.929,-0.922,-0.9311,-0.9279,-0.9496,-1.0519,-1.1438,-1.1516,-1.1574,-1.1502,-1.1368,-1.127,-1.1199,-1.1029,-1.1016,-1.1012,-1.0916,-1.0907,-1.0907,-1.0966,-1.0962,-1.0684,-1.019,-1.0033,-0.979,-0.9281,-0.9161,-0.914,-0.9085,-0.9356,-0.9946,-1.6386,-1.6315,-1.6178,-1.5966,-1.5726,-1.5487,-1.5045,-1.454,-1.4576,-1.4866,-1.5103,-1.4683,-1.4421,-1.4288,-1.4,-1.3797,-1.3688,-1.3688,-1.3688,-1.366,-1.3316,-1.3065,-1.3084,-1.2635,-1.2382,-1.2382,-1.2382,-1.2382,-1.2382,-1.2382,-1.2382,-1.2382,-1.2382,-1.2332,-1.2169,-1.2164,-1.2114,-1.2001,-1.2396,-1.2622,-1.2476,-1.2617,-1.2515,-1.2159,-1.2097,-1.1983,-1.1662,-1.1657,-1.1657,-1.1657,-1.1722,-1.173,-1.1677,-1.1566,-1.1558,-1.1648,-1.1549,-1.1372,-1.1122,-1.0696,-1.0312,-0.9981,-0.9427,-0.9258,-0.964,-0.985,-0.9805,-0.9488,-0.9638,-0.9532,-0.8935,-0.8875,-0.8806,-0.8543,-0.8531,-0.8476,-0.8363,-0.8335,-0.8362,-0.8234,-0.8173,-0.8136,-0.8133,-0.8023,-0.7986,-0.7986,-0.7986,-0.7983,-0.7983,-0.8588,-0.9299,-0.986,-0.9972,-0.9946,-0.9872,-0.9857,-0.9824,-0.9757,-0.975,-0.9695,-0.9695,-0.975,-0.975,-0.9754,-0.975,-0.9439,-0.8886,-0.8859,-0.8665,-0.8208,-0.8148,-0.822,-0.8175,-0.8213,-0.8755,-1.5465,-1.5394,-1.5115,-1.4933,-1.489,-1.4543,-1.4191,-1.3888,-1.3875,-1.4207,-1.4577,-1.4461,-1.4261,-1.4048,-1.3853,-1.3648,-1.3467,-1.3444,-1.3449,-1.3407,-1.3073,-1.294,-1.2803,-1.246,-1.227,-1.2228,-1.2219,-1.2223,-1.2223,-1.2223,-1.2223,-1.2223,-1.2219,-1.211,-1.1896,-1.1896,-1.1787,-1.1623,-1.2001,-1.2223,-1.2219,-1.2219,-1.2041,-1.1742,-1.167,-1.1491,-1.1076,-1.1063,-1.1063,-1.1072,-1.1265,-1.1353,-1.1357,-1.1435,-1.1459,-1.1404,-1.135,-1.1021,-1.0417,-0.9651,-0.9154,-0.9047,-0.8543,-0.8208,-0.8106,-0.8304,-0.8439,-0.8435,-0.8577,-0.8437,-0.7844,-0.7777,-0.7724,-0.737,-0.7351,-0.7303,-0.7207,-0.7128,-0.7097,-0.7004,-0.699,-0.6993,-0.699,-0.699,-0.6988,-0.7046,-0.699,-0.699,-0.6988,-0.6988,-0.7432,-0.8039,-0.8426,-0.8546,-0.8533,-0.854,-0.854,-0.8533,-0.8533,-0.8537,-0.8537,-0.8537,-0.8511,-0.8494,-0.8478,-0.8198,-0.7717,-0.7687,-0.7597,-0.7157,-0.7149,-0.7282,-0.7346,-0.7443,-0.7856,-1.5048,-1.5048,-1.4972,-1.4837,-1.4503,-1.4297,-1.4086,-1.3892,-1.3875,-1.394,-1.3988,-1.3811,-1.362,-1.3416,-1.3234,-1.3044,-1.2848,-1.2779,-1.284,-1.2817,-1.2568,-1.2378,-1.2197,-1.1985,-1.1795,-1.1695,-1.1678,-1.1732,-1.1732,-1.1678,-1.1678,-1.1673,-1.1678,-1.1678,-1.1623,-1.1623,-1.1623,-1.1568,-1.1618,-1.1678,-1.1678,-1.1678,-1.1669,-1.1596,-1.1596,-1.1588,-1.1435,-1.1511,-1.1511,-1.1516,-1.1524,-1.1542,-1.1538,-1.1282,-1.1017,-1.0802,-1.0527,-1.0147,-0.9541,-0.8933,-0.8432,-0.8097,-0.7601,-0.721,-0.6879,-0.6444,-0.6547,-0.7152,-0.7332,-0.7166,-0.6815,-0.6764,-0.6667,-0.6508,-0.6434,-0.6509,-0.6371,-0.64,-0.6393,-0.6388,-0.6328,-0.6386,-0.6328,-0.6328,-0.6328,-0.627,-0.627,-0.627,-0.627,-0.627,-0.6325,-0.6606,-0.699,-0.7321,-0.7376,-0.7376,-0.7432,-0.7376,-0.7376,-0.7423,-0.7418,-0.7409,-0.734,-0.7385,-0.726,-0.7107,-0.6752,-0.6547,-0.6545,-0.634,-0.6225,-0.6233,-0.6298,-0.65,-0.6979,-1.4692,-1.4684,-1.429,-1.3955,-1.3688,-1.3595,-1.3461,-1.3231,-1.3227,-1.3227,-1.3284,-1.3147,-1.3208,-1.3299,-1.3216,-1.3018,-1.2728,-1.2715,-1.2715,-1.2702,-1.2471,-1.2279,-1.2082,-1.189,-1.1757,-1.1581,-1.1568,-1.1568,-1.1568,-1.1568,-1.1568,-1.1568,-1.1568,-1.1514,-1.1345,-1.1295,-1.124,-1.1076,-1.1076,-1.1076,-1.1131,-1.1404,-1.1514,-1.135,-1.1291,-1.124,-1.1072,-1.1076,-1.1076,-1.1076,-1.1076,-1.1017,-1.0802,-1.0692,-1.0472,-1.0198,-0.9699,-0.9203,-0.8602,-0.8042,-0.7487,-0.7041,-0.6599,-0.6267,-0.5931,-0.5487,-0.545,-0.5827,-0.6082,-0.6063,-0.5673,-0.5647,-0.5586,-0.5334,-0.5257,-0.5244,-0.527,-0.5264,-0.5264,-0.5264,-0.5264,-0.5264,-0.5264,-0.5208,-0.5208,-0.5264,-0.5264,-0.5322,-0.5266,-0.5208,-0.5264,-0.5264,-0.5596,-0.6044,-0.649,-0.6659,-0.6662,-0.6662,-0.6659,-0.6649,-0.6576,-0.6561,-0.652,-0.6409,-0.6394,-0.6242,-0.5879,-0.5962,-0.5952,-0.5712,-0.5667,-0.5802,-0.5862,-0.5869,-0.6168,-1.4332,-1.4227,-1.3739,-1.3384,-1.3096,-1.3039,-1.2954,-1.2778,-1.277,-1.277,-1.2634,-1.2642,-1.2698,-1.2767,-1.2926,-1.2841,-1.2518,-1.2423,-1.2483,-1.2414,-1.2286,-1.2123,-1.193,-1.1745,-1.1556,-1.1444,-1.1375,-1.135,-1.135,-1.135,-1.135,-1.135,-1.135,-1.124,-1.1021,-1.0962,-1.0852,-1.0637,-1.0582,-1.0527,-1.0527,-1.0857,-1.1076,-1.1017,-1.0966,-1.0857,-1.0582,-1.0582,-1.0527,-1.0472,-1.0472,-1.0363,-1.0091,-1.0036,-0.9816,-0.9316,-0.8758,-0.8149,-0.7598,-0.7102,-0.6543,-0.5986,-0.5654,-0.5429,-0.5148,-0.4871,-0.4651,-0.4713,-0.487,-0.4932,-0.4893,-0.487,-0.4817,-0.4543,-0.448,-0.448,-0.4536,-0.448,-0.4536,-0.448,-0.4592,-0.448,-0.448,-0.4536,-0.4592,-0.4592,-0.4536,-0.448,-0.448,-0.4536,-0.4536,-0.448,-0.4704,-0.5096,-0.577,-0.5993,-0.6051,-0.604,-0.6033,-0.5973,-0.5848,-0.583,-0.5819,-0.5725,-0.5712,-0.5613,-0.5368,-0.5391,-0.5493,-0.5271,-0.5242,-0.5448,-0.5502,-0.5486,-0.5536,-1.3904,-1.3847,-1.3526,-1.3267,-1.3084,-1.2859,-1.2782,-1.2704,-1.277,-1.2638,-1.2309,-1.2297,-1.1984,-1.1486,-1.2039,-1.2171,-1.1865,-1.1833,-1.1837,-1.1833,-1.182,-1.1718,-1.148,-1.1355,-1.118,-1.1008,-1.0865,-1.078,-1.0759,-1.0763,-1.0747,-1.0747,-1.0759,-1.0755,-1.0692,-1.0692,-1.0582,-1.0312,-1.0312,-1.0147,-0.9871,-0.9868,-1.0143,-1.0582,-1.0692,-1.0582,-1.0312,-1.0308,-1.0143,-0.9868,-0.9812,-0.9706,-0.9434,-0.943,-0.8989,-0.8156,-0.7598,-0.7043,-0.6429,-0.6098,-0.5654,-0.5098,-0.4987,-0.4817,-0.4536,-0.4258,-0.4092,-0.4038,-0.393,-0.3985,-0.4426,-0.4492,-0.4492,-0.4428,-0.448,-0.4424,-0.448,-0.4424,-0.448,-0.448,-0.4424,-0.4369,-0.4424,-0.448,-0.4424,-0.4424,-0.448,-0.4424,-0.4424,-0.4424,-0.4424,-0.4424,-0.448,-0.4648,-0.4929,-0.5266,-0.5435,-0.5411,-0.5359,-0.5243,-0.5216,-0.5173,-0.5136,-0.5116,-0.5095,-0.5047,-0.4871,-0.4845,-0.4903,-0.4885,-0.4885,-0.4985,-0.5188,-0.5188,-0.5238,-1.3055,-1.2843,-1.2612,-1.2415,-1.2265,-1.22,-1.218,-1.2173,-1.2177,-1.2111,-1.1956,-1.1668,-1.13,-1.1024,-1.0929,-1.1009,-1.1167,-1.1156,-1.1156,-1.116,-1.116,-1.1067,-1.0858,-1.0777,-1.0666,-1.057,-1.0493,-1.0356,-1.0275,-1.036,-1.0351,-1.0193,-1.0203,-1.0203,-1.0166,-1.0143,-0.9981,-0.9765,-0.9706,-0.9537,-0.9254,-0.9203,-0.9313,-0.9588,-0.9923,-0.9981,-0.971,-0.9706,-0.9592,-0.9258,-0.9203,-0.904,-0.8543,-0.8156,-0.7654,-0.6988,-0.671,-0.6262,-0.5541,-0.5318,-0.4985,-0.4372,-0.4318,-0.4203,-0.3979,-0.3811,-0.3757,-0.3701,-0.3643,-0.3755,-0.3866,-0.3923,-0.3923,-0.3923,-0.3921,-0.3921,-0.3923,-0.3921,-0.3921,-0.3921,-0.3921,-0.3921,-0.3921,-0.3923,-0.3923,-0.3923,-0.3923,-0.3921,-0.3921,-0.3921,-0.3977,-0.3977,-0.4091,-0.4204,-0.4316,-0.4594,-0.4806,-0.4759,-0.4707,-0.4684,-0.4638,-0.4595,-0.4573,-0.4676,-0.4651,-0.469,-0.4638,-0.4686,-0.4684,-0.4734,-0.4734,-0.4734,-0.4935,-0.4937,-0.4987,-1.2159,-1.1917,-1.1746,-1.1587,-1.1457,-1.1449,-1.1446,-1.1446,-1.1449,-1.1383,-1.1222,-1.0819,-1.0405,-1.0129,-0.9675,-0.9594,-0.9886,-1.0243,-1.049,-1.0486,-1.0486,-1.0368,-1.0278,-1.0217,-1.0141,-1.0091,-1.0033,-0.9896,-0.9767,-0.9903,-0.9842,-0.9662,-0.9752,-0.9688,-0.9535,-0.9461,-0.9276,-0.8962,-0.8837,-0.8703,-0.838,-0.8367,-0.8315,-0.8423,-0.8761,-0.8989,-0.8937,-0.8937,-0.8768,-0.8426,-0.8315,-0.8094,-0.7485,-0.693,-0.6374,-0.5929,-0.5819,-0.5485,-0.4761,-0.4594,-0.4372,-0.3757,-0.3701,-0.3587,-0.3309,-0.3309,-0.3309,-0.3309,-0.3309,-0.3307,-0.3307,-0.3307,-0.3363,-0.3531,-0.3531,-0.3419,-0.3419,-0.3365,-0.3365,-0.3419,-0.3474,-0.3474,-0.3587,-0.3587,-0.3643,-0.3587,-0.3587,-0.3587,-0.3587,-0.3587,-0.3587,-0.3643,-0.3755,-0.3854,-0.3892,-0.4044,-0.4374,-0.439,-0.436,-0.4237,-0.4188,-0.4143,-0.4154,-0.4259,-0.4338,-0.4384,-0.4435,-0.4533,-0.4533,-0.4533,-0.4483,-0.4435,-0.4585,-0.4636,-0.4736,-1.129,-1.1076,-1.0995,-1.0776,-1.0591,-1.0588,-1.0651,-1.0585,-1.0654,-1.0455,-1.0167,-0.9695,-0.9162,-0.8797,-0.8278,-0.8037,-0.8189,-0.9028,-0.9576,-0.97,-0.9697,-0.9694,-0.967,-0.9556,-0.9496,-0.9473,-0.9342,-0.9275,-0.921,-0.9234,-0.922,-0.9252,-0.9187,-0.9007,-0.8772,-0.8682,-0.8411,-0.7863,-0.7664,-0.7491,-0.7226,-0.7157,-0.7207,-0.7207,-0.7265,-0.7432,-0.7875,-0.7934,-0.7709,-0.7263,-0.7154,-0.693,-0.6318,-0.5761,-0.526,-0.4985,-0.4929,-0.4596,-0.4092,-0.3982,-0.3699,-0.3251,-0.3138,-0.3083,-0.2862,-0.2806,-0.2806,-0.2806,-0.2806,-0.275,-0.275,-0.2806,-0.2974,-0.3419,-0.3251,-0.3138,-0.3083,-0.2861,-0.2805,-0.3026,-0.3138,-0.325,-0.3475,-0.3475,-0.3475,-0.3475,-0.3475,-0.3475,-0.3475,-0.3419,-0.3531,-0.353,-0.3462,-0.3442,-0.3468,-0.3551,-0.3876,-0.4127,-0.4085,-0.4005,-0.3927,-0.389,-0.387,-0.3986,-0.4085,-0.4183,-0.4183,-0.4234,-0.4183,-0.4183,-0.4133,-0.4183,-0.4286,-0.4386,-0.4485,-0.9666,-0.9607,-0.9399,-0.9291,-0.9256,-0.9253,-0.9253,-0.9256,-0.9253,-0.9186,-0.895,-0.8242,-0.7812,-0.7554,-0.6959,-0.6553,-0.6582,-0.7008,-0.762,-0.8358,-0.8482,-0.8482,-0.8471,-0.8439,-0.8421,-0.8415,-0.8383,-0.825,-0.8195,-0.825,-0.8224,-0.8028,-0.8069,-0.7878,-0.7519,-0.7444,-0.7132,-0.6638,-0.6508,-0.6341,-0.6082,-0.5962,-0.5986,-0.5984,-0.5984,-0.5873,-0.565,-0.6374,-0.6543,-0.5984,-0.5984,-0.5761,-0.5373,-0.4983,-0.4536,-0.4091,-0.3979,-0.3755,-0.3198,-0.3142,-0.3085,-0.2861,-0.2861,-0.2805,-0.2693,-0.2693,-0.2637,-0.2693,-0.2693,-0.2693,-0.2693,-0.2693,-0.275,-0.2973,-0.2861,-0.2805,-0.2805,-0.275,-0.275,-0.2806,-0.2861,-0.2861,-0.2973,-0.2973,-0.3029,-0.3029,-0.3029,-0.3029,-0.2973,-0.3025,-0.2974,-0.2973,-0.2948,-0.2968,-0.3044,-0.3058,-0.3244,-0.3505,-0.3603,-0.3707,-0.3679,-0.3662,-0.3641,-0.3682,-0.3833,-0.3883,-0.3934,-0.3934,-0.3883,-0.3934,-0.3982,-0.4034,-0.4085,-0.4185,-0.4236,-0.8104,-0.808,-0.7875,-0.7786,-0.7786,-0.7786,-0.7786,-0.7786,-0.7786,-0.7789,-0.7612,-0.6976,-0.6631,-0.6464,-0.5868,-0.5546,-0.5542,-0.5542,-0.5972,-0.6768,-0.7074,-0.7136,-0.7133,-0.7133,-0.7133,-0.7136,-0.7133,-0.7099,-0.6977,-0.7094,-0.7064,-0.6908,-0.6938,-0.67,-0.6217,-0.6153,-0.5843,-0.5271,-0.5165,-0.5008,-0.4856,-0.4788,-0.4747,-0.4743,-0.4718,-0.448,-0.4088,-0.4756,-0.4981,-0.4758,-0.4644,-0.4423,-0.4201,-0.3977,-0.3643,-0.3365,-0.3253,-0.3085,-0.275,-0.275,-0.2637,-0.2581,-0.2524,-0.2468,-0.2412,-0.2356,-0.2356,-0.2356,-0.2356,-0.2356,-0.2356,-0.2356,-0.2356,-0.2356,-0.2468,-0.2468,-0.2412,-0.2356,-0.2412,-0.2468,-0.2524,-0.2581,-0.2637,-0.2693,-0.2693,-0.2693,-0.2693,-0.2693,-0.2689,-0.2733,-0.2673,-0.2659,-0.2682,-0.2705,-0.2624,-0.2586,-0.2593,-0.2788,-0.2977,-0.3212,-0.3296,-0.3342,-0.3381,-0.3432,-0.3533,-0.3533,-0.3583,-0.3583,-0.3581,-0.3682,-0.3783,-0.3734,-0.3734,-0.3835,-0.3935,-0.6581,-0.6555,-0.6397,-0.6325,-0.6317,-0.6315,-0.6317,-0.6317,-0.6317,-0.6317,-0.6148,-0.5741,-0.5542,-0.5443,-0.4937,-0.4685,-0.4749,-0.4747,-0.4747,-0.4993,-0.5419,-0.5724,-0.5906,-0.5908,-0.5908,-0.5847,-0.5847,-0.578,-0.5768,-0.578,-0.5784,-0.5766,-0.5703,-0.5473,-0.4964,-0.486,-0.4514,-0.3983,-0.3849,-0.3816,-0.3712,-0.3655,-0.3624,-0.3621,-0.363,-0.3486,-0.3206,-0.3199,-0.3305,-0.3475,-0.3362,-0.325,-0.3083,-0.2861,-0.2806,-0.275,-0.2693,-0.2693,-0.2637,-0.2525,-0.2468,-0.2244,-0.2188,-0.2075,-0.1963,-0.1907,-0.1907,-0.1907,-0.1907,-0.1851,-0.1851,-0.1851,-0.1907,-0.1851,-0.2075,-0.2075,-0.1851,-0.1851,-0.1963,-0.2132,-0.2188,-0.2244,-0.2525,-0.2581,-0.2581,-0.2581,-0.2524,-0.2523,-0.2509,-0.249,-0.2522,-0.2498,-0.2367,-0.2345,-0.2268,-0.2188,-0.2205,-0.2401,-0.2594,-0.2739,-0.293,-0.298,-0.3029,-0.3079,-0.318,-0.318,-0.318,-0.323,-0.3331,-0.3381,-0.3432,-0.3383,-0.3433,-0.3534,-0.3583,-0.5086,-0.5032,-0.495,-0.4818,-0.4842,-0.4839,-0.4838,-0.4838,-0.4839,-0.4906,-0.4744,-0.4371,-0.4191,-0.411,-0.3752,-0.3516,-0.3577,-0.3577,-0.3516,-0.3515,-0.3638,-0.4376,-0.4931,-0.487,-0.481,-0.475,-0.4634,-0.4436,-0.4435,-0.4502,-0.4501,-0.4435,-0.4498,-0.425,-0.3885,-0.3885,-0.3632,-0.3245,-0.3149,-0.313,-0.3113,-0.3008,-0.2983,-0.3037,-0.2938,-0.2801,-0.2509,-0.2258,-0.2411,-0.2862,-0.2862,-0.2806,-0.2748,-0.2693,-0.2581,-0.2356,-0.23,-0.2244,-0.2076,-0.2075,-0.1963,-0.1907,-0.1907,-0.1851,-0.1795,-0.1795,-0.1795,-0.1795,-0.1795,-0.1795,-0.1795,-0.1795,-0.1795,-0.1795,-0.1907,-0.1907,-0.1795,-0.1795,-0.1851,-0.1907,-0.1907,-0.1963,-0.2075,-0.2075,-0.2075,-0.2075,-0.2074,-0.2122,-0.216,-0.2141,-0.2121,-0.1981,-0.1906,-0.1889,-0.1869,-0.1847,-0.1881,-0.2079,-0.2227,-0.2329,-0.2474,-0.2624,-0.2623,-0.2623,-0.2725,-0.2775,-0.2876,-0.2927,-0.3029,-0.3079,-0.313,-0.313,-0.323,-0.3281,-0.3281,-0.4043,-0.4058,-0.3935,-0.3881,-0.3835,-0.3831,-0.3831,-0.3831,-0.3831,-0.3831,-0.3745,-0.3551,-0.3372,-0.3346,-0.3147,-0.2979,-0.2962,-0.296,-0.3022,-0.3026,-0.3044,-0.3488,-0.393,-0.3879,-0.3834,-0.3834,-0.3644,-0.3584,-0.3579,-0.3561,-0.355,-0.3544,-0.3524,-0.3391,-0.3083,-0.3085,-0.29,-0.2649,-0.2568,-0.2497,-0.2494,-0.2458,-0.2442,-0.2432,-0.2403,-0.2262,-0.207,-0.188,-0.1979,-0.2249,-0.23,-0.23,-0.23,-0.2356,-0.2244,-0.2019,-0.2019,-0.1963,-0.1851,-0.1795,-0.1795,-0.1795,-0.1795,-0.1795,-0.1795,-0.1795,-0.1795,-0.1795,-0.1795,-0.1795,-0.1795,-0.1795,-0.1795,-0.1795,-0.1795,-0.1795,-0.1795,-0.1795,-0.1795,-0.1795,-0.1795,-0.1795,-0.1795,-0.1795,-0.1795,-0.1795,-0.1851,-0.1834,-0.1868,-0.1797,-0.1776,-0.1748,-0.1669,-0.1702,-0.1747,-0.1731,-0.1674,-0.1871,-0.192,-0.202,-0.217,-0.2321,-0.2371,-0.2371,-0.2371,-0.2422,-0.2523,-0.2624,-0.2675,-0.2725,-0.2826,-0.2876,-0.2927,-0.2978,-0.2978,-0.3268,-0.3291,-0.3183,-0.3139,-0.3099,-0.3095,-0.3095,-0.3094,-0.3094,-0.3094,-0.3084,-0.3051,-0.2945,-0.2972,-0.2804,-0.2889,-0.2856,-0.2802,-0.286,-0.2812,-0.2836,-0.2986,-0.299,-0.3132,-0.3145,-0.3083,-0.3031,-0.2961,-0.2944,-0.2917,-0.2903,-0.2887,-0.2919,-0.2778,-0.253,-0.2467,-0.2283,-0.2162,-0.2097,-0.2094,-0.209,-0.207,-0.2057,-0.2052,-0.2025,-0.1994,-0.1915,-0.1844,-0.1834,-0.1807,-0.18,-0.1851,-0.1851,-0.1851,-0.1851,-0.1851,-0.1851,-0.1851,-0.1797,-0.18,-0.1802,-0.1804,-0.1802,-0.18,-0.1802,-0.18,-0.1795,-0.1795,-0.1795,-0.1795,-0.1795,-0.1795,-0.1795,-0.1795,-0.1795,-0.1795,-0.1795,-0.1795,-0.1795,-0.1795,-0.1795,-0.1795,-0.1795,-0.1795,-0.1795,-0.1795,-0.1793,-0.1779,-0.1809,-0.1785,-0.1759,-0.1727,-0.1648,-0.1622,-0.162,-0.1618,-0.1618,-0.1667,-0.1667,-0.1768,-0.2019,-0.217,-0.222,-0.222,-0.212,-0.217,-0.2322,-0.2372,-0.2372,-0.2472,-0.2623,-0.2522,-0.2472,-0.2573,-0.2624,-0.2507,-0.2455,-0.2448,-0.241,-0.2429,-0.2423,-0.2423,-0.2424,-0.2424,-0.249,-0.2416,-0.2389,-0.237,-0.2359,-0.2326,-0.2307,-0.236,-0.2358,-0.23,-0.2305,-0.2271,-0.2284,-0.2345,-0.2598,-0.2713,-0.265,-0.2453,-0.2324,-0.2316,-0.2363,-0.2209,-0.227,-0.2309,-0.2224,-0.2163,-0.2163,-0.2099,-0.2038,-0.2038,-0.2038,-0.2038,-0.1971,-0.1964,-0.1962,-0.1937,-0.1907,-0.1883,-0.1876,-0.1873,-0.1857,-0.1825,-0.1802,-0.1802,-0.18,-0.1801,-0.1802,-0.18,-0.1797,-0.18,-0.1819,-0.1774,-0.1774,-0.1828,-0.1774,-0.1828,-0.1806,-0.1797,-0.1795,-0.1795,-0.1795,-0.1795,-0.1795,-0.1795,-0.1795,-0.1795,-0.1795,-0.1795,-0.1795,-0.1795,-0.1795,-0.1795,-0.1795,-0.1795,-0.1795,-0.1795,-0.1795,-0.1789,-0.178,-0.1754,-0.1724,-0.1748,-0.1719,-0.1639,-0.1618,-0.1566,-0.1566,-0.1566,-0.1566,-0.1566,-0.1617,-0.1817,-0.1918,-0.1918,-0.1868,-0.1768,-0.1869,-0.207,-0.207,-0.2121,-0.2271,-0.2371,-0.2321,-0.227,-0.2321,-0.2372,-0.2287,-0.2174,-0.223,-0.2198,-0.2227,-0.2222,-0.2222,-0.2222,-0.2222,-0.2222,-0.2219,-0.2136,-0.2123,-0.2109,-0.2092,-0.2144,-0.2131,-0.2129,-0.2137,-0.2149,-0.2104,-0.2116,-0.2129,-0.2315,-0.2436,-0.2369,-0.2239,-0.2172,-0.2164,-0.2076,-0.2065,-0.2056,-0.2018,-0.2062,-0.1992,-0.1985,-0.2039,-0.2038,-0.2038,-0.2038,-0.2038,-0.2038,-0.2038,-0.1976,-0.196,-0.1938,-0.1911,-0.1907,-0.1899,-0.1882,-0.1855,-0.1838,-0.1838,-0.1837,-0.1837,-0.1838,-0.1838,-0.1838,-0.1844,-0.1851,-0.1861,-0.1861,-0.1792,-0.1785,-0.1776,-0.1812,-0.1797,-0.1795,-0.1795,-0.1795,-0.1795,-0.1795,-0.1795,-0.1795,-0.1795,-0.1795,-0.1795,-0.1795,-0.1795,-0.1795,-0.1795,-0.1795,-0.1795,-0.1795,-0.1795,-0.1795,-0.1794,-0.1784,-0.1809,-0.1778,-0.1748,-0.1718,-0.1636,-0.1618,-0.1617,-0.1566,-0.1566,-0.1566,-0.1566,-0.1566,-0.1667,-0.1667,-0.1617,-0.1617,-0.1617,-0.1667,-0.1818,-0.1819,-0.1869,-0.1869,-0.1969,-0.2019,-0.2019,-0.1969,-0.202,-0.2273,-0.2173,-0.2213,-0.2183,-0.2225,-0.2222,-0.2222,-0.2222,-0.2222,-0.2222,-0.2222,-0.2222,-0.2138,-0.2121,-0.2118,-0.21,-0.2152,-0.2148,-0.2099,-0.2116,-0.2119,-0.2132,-0.2213,-0.2214,-0.2213,-0.2222,-0.2216,-0.2216,-0.2208,-0.2125,-0.2098,-0.2096,-0.2054,-0.2028,-0.202,-0.2005,-0.1992,-0.1989,-0.1988,-0.2044,-0.204,-0.2038,-0.2038,-0.1976,-0.1974,-0.1962,-0.1943,-0.1937,-0.1928,-0.1902,-0.19,-0.19,-0.1898,-0.1887,-0.1885,-0.1883,-0.1878,-0.1875,-0.1876,-0.1886,-0.1892,-0.1892,-0.1872,-0.18,-0.1794,-0.1829,-0.181,-0.1802,-0.1801,-0.1795,-0.1795,-0.1795,-0.1795,-0.1795,-0.1795,-0.1795,-0.1795,-0.1795,-0.1795,-0.1795,-0.1795,-0.1795,-0.1795,-0.1795,-0.1795,-0.1795,-0.1794,-0.1787,-0.1758,-0.1733,-0.1709,-0.1737,-0.1659,-0.1626,-0.162,-0.1566,-0.1566,-0.1516,-0.1566,-0.1566,-0.1566,-0.1566,-0.1566,-0.1566,-0.1617,-0.1617,-0.1617,-0.1667,-0.1667,-0.1566,-0.1617,-0.1768,-0.1717,-0.1617,-0.1718,-0.2273,-0.2173,-0.2213,-0.2183,-0.2225,-0.2222,-0.2222,-0.2222,-0.2222,-0.2222,-0.2222,-0.2222,-0.2219,-0.2213,-0.2213,-0.2209,-0.2198,-0.2197,-0.2203,-0.2144,-0.2144,-0.2218,-0.222,-0.2222,-0.2222,-0.2222,-0.2222,-0.2222,-0.2215,-0.2125,-0.2116,-0.2104,-0.2075,-0.2057,-0.2055,-0.2049,-0.203,-0.2014,-0.2011,-0.2003,-0.1986,-0.204,-0.2038,-0.2038,-0.2038,-0.1973,-0.197,-0.1968,-0.1967,-0.1962,-0.1962,-0.1959,-0.1947,-0.1914,-0.1895,-0.1894,-0.1895,-0.1898,-0.1898,-0.1912,-0.1921,-0.1862,-0.1854,-0.1852,-0.184,-0.1808,-0.1836,-0.1823,-0.1808,-0.1795,-0.1795,-0.1739,-0.1795,-0.1795,-0.1739,-0.1739,-0.1739,-0.1739,-0.1683,-0.1683,-0.1739,-0.1739,-0.1683,-0.1627,-0.157,-0.157,-0.157,-0.157,-0.1614,-0.1649,-0.1684,-0.1714,-0.1743,-0.1653,-0.1622,-0.1568,-0.1516,-0.1465,-0.1465,-0.1415,-0.1465,-0.1566,-0.1566,-0.1465,-0.1516,-0.1566,-0.1566,-0.1566,-0.1516,-0.1516,-0.1516,-0.1566,-0.1516,-0.1465,-0.1516,-0.2249,-0.2219,-0.2189,-0.2168,-0.2224,-0.2222,-0.2222,-0.2222,-0.2222,-0.2222,-0.2222,-0.2222,-0.2222,-0.2222,-0.2222,-0.2222,-0.2222,-0.2222,-0.2222,-0.2222,-0.2222,-0.2222,-0.2222,-0.2222,-0.2222,-0.2222,-0.2222,-0.2222,-0.2221,-0.2209,-0.2131,-0.2125,-0.2102,-0.2087,-0.2082,-0.2069,-0.2059,-0.2044,-0.2041,-0.2028,-0.1999,-0.1986,-0.204,-0.2038,-0.2038,-0.2038,-0.2038,-0.2038,-0.2038,-0.2038,-0.2038,-0.2038,-0.2029,-0.1954,-0.1932,-0.193,-0.193,-0.1932,-0.1933,-0.1948,-0.1954,-0.1953,-0.1942,-0.1871,-0.1921,-0.1891,-0.1801,-0.178,-0.1757,-0.1739,-0.157,-0.1514,-0.1458,-0.1346,-0.1346,-0.1346,-0.1346,-0.1346,-0.1346,-0.1402,-0.1402,-0.1402,-0.1458,-0.1402,-0.1346,-0.1346,-0.1346,-0.1402,-0.1402,-0.1444,-0.1426,-0.1408,-0.1386,-0.131,-0.1232,-0.1222,-0.1219,-0.1217,-0.1212,-0.1162,-0.1162,-0.1162,-0.1162,-0.1111,-0.1263,-0.1364,-0.1414,-0.1313,-0.1364,-0.1364,-0.1212,-0.1162,-0.1313,-0.1414,-0.1364,-0.2222,-0.2198,-0.2167,-0.2222,-0.2222,-0.2222,-0.2222,-0.2222,-0.2222,-0.2222,-0.2222,-0.2222,-0.2222,-0.2222,-0.2222,-0.2222,-0.2222,-0.2222,-0.2222,-0.2222,-0.2222,-0.2222,-0.2222,-0.2222,-0.2222,-0.2222,-0.2222,-0.2222,-0.2222,-0.2219,-0.2221,-0.2213,-0.2127,-0.2119,-0.2114,-0.2166,-0.2148,-0.2074,-0.2072,-0.2056,-0.2021,-0.1997,-0.2043,-0.2039,-0.2038,-0.2038,-0.2038,-0.2038,-0.2038,-0.2038,-0.2038,-0.2038,-0.2038,-0.2038,-0.2038,-0.2038,-0.2038,-0.2038,-0.1975,-0.1974,-0.1972,-0.1971,-0.1954,-0.1944,-0.1874,-0.1795,-0.1706,-0.1678,-0.1596,-0.1468,-0.1299,-0.1236,-0.1122,-0.1009,-0.0953,-0.0897,-0.0953,-0.0953,-0.0953,-0.1009,-0.1009,-0.1066,-0.1123,-0.1177,-0.1121,-0.1121,-0.1121,-0.1121,-0.1121,-0.1058,-0.1047,-0.0981,-0.0913,-0.0794,-0.073,-0.0668,-0.0666,-0.0665,-0.066,-0.0657,-0.0657,-0.0657,-0.0607,-0.0608,-0.0808,-0.0909,-0.101,-0.1011,-0.096,-0.0859,-0.0758,-0.0758,-0.0909,-0.096,-0.096,-0.2203,-0.2197,-0.2167,-0.2222,-0.2222,-0.2222,-0.2222,-0.2222,-0.2222,-0.2222,-0.2222,-0.2222,-0.2222,-0.2222,-0.2222,-0.2222,-0.2222,-0.2222,-0.2222,-0.2222,-0.2222,-0.2222,-0.2222,-0.2222,-0.2222,-0.2222,-0.2222,-0.2222,-0.2222,-0.2222,-0.2222,-0.2219,-0.2218,-0.2216,-0.2142,-0.2201,-0.2197,-0.2109,-0.2104,-0.2076,-0.2032,-0.2018,-0.2002,-0.1988,-0.1983,-0.1982,-0.1922,-0.192,-0.1918,-0.1915,-0.1977,-0.1977,-0.2038,-0.2038,-0.2038,-0.2038,-0.2038,-0.2038,-0.1977,-0.2038,-0.1977,-0.1977,-0.1908,-0.1971,-0.1837,-0.1575,-0.1371,-0.1,-0.1042,-0.1033,-0.0972,-0.0963,-0.09,-0.0843,-0.0732,-0.0731,-0.0787,-0.0395,-0.0395,-0.0339,-0.0283,-0.0564,-0.0675,-0.0786,-0.0897,-0.0897,-0.0841,-0.0785,-0.0728,-0.0557,-0.05,-0.0385,-0.0272,-0.0214,-0.0053,0.0,0.0052,0.0052,0.0051,0.0051,0.0102,0.0154,0.0051,0.0,-0.0152,-0.0152,0.0,-0.0101,-0.0354,-0.0303,-0.005,-0.0151,-0.0455,-0.0455,-0.0404,-0.2174,-0.2173,-0.2228,-0.2222,-0.2222,-0.2222,-0.2222,-0.2222,-0.2222,-0.2222,-0.2222,-0.2222,-0.2222,-0.2222,-0.2222,-0.2222,-0.2222,-0.2222,-0.2222,-0.2222,-0.2222,-0.2222,-0.2222,-0.2222,-0.2222,-0.2222,-0.2222,-0.2222,-0.2222,-0.2222,-0.2222,-0.2222,-0.2222,-0.2221,-0.2222,-0.2222,-0.2147,-0.2133,-0.2118,-0.2097,-0.2073,-0.2053,-0.2037,-0.2025,-0.1835,-0.1763,-0.169,-0.1501,-0.1431,-0.1425,-0.142,-0.142,-0.142,-0.142,-0.142,-0.142,-0.142,-0.1606,-0.1915,-0.1977,-0.1915,-0.173,-0.1668,-0.1605,-0.1478,-0.128,-0.1085,-0.0956,-0.0883,-0.0817,-0.0641,-0.0637,-0.0517,-0.0457,-0.0341,-0.0171,-0.0114,0.0114,0.0285,0.04,0.0458,0.0285,0.017,0.0226,0.0169,0.0,0.0056,0.0168,0.0224,0.028,0.0279,0.0278,0.0385,0.0435,0.0646,0.08,0.1004,0.1053,0.1105,0.1097,0.1097,0.1043,0.1035,0.1037,0.1044,0.1039,0.108,0.0764,0.0456,0.0556,0.0757,0.0656,0.0555,0.0353,0.0303,-0.2222,-0.2222,-0.2222,-0.2222,-0.2222,-0.2222,-0.2222,-0.2222,-0.2222,-0.2222,-0.2222,-0.2222,-0.2222,-0.2222,-0.2222,-0.2222,-0.2222,-0.2222,-0.2222,-0.2222,-0.2222,-0.2222,-0.2222,-0.2222,-0.2222,-0.2222,-0.2222,-0.2222,-0.2155,-0.2087,-0.202,-0.2155,-0.2222,-0.2222,-0.2222,-0.2222,-0.2219,-0.2217,-0.2,-0.1919,-0.1906,-0.1825,-0.1813,-0.1677,-0.1546,-0.1411,-0.1335,-0.1206,-0.1009,-0.106,-0.1058,-0.1119,-0.1113,-0.1112,-0.1112,-0.1112,-0.1112,-0.1235,-0.1544,-0.1668,-0.1606,-0.1483,-0.1359,-0.1235,-0.0987,-0.0854,-0.0728,-0.0607,-0.0598,-0.0475,-0.0355,-0.0295,-0.0175,0.0,0.0231,0.0463,0.0694,0.0868,0.11,0.1333,0.1392,0.1448,0.1383,0.143,0.1305,0.1012,0.1009,0.1066,0.1122,0.1179,0.112,0.1062,0.1168,0.1268,0.1426,0.1576,0.1833,0.2034,0.2139,0.2237,0.2228,0.2225,0.2216,0.2227,0.2243,0.2329,0.2402,0.1801,0.132,0.1568,0.1765,0.1765,0.1665,0.1365,0.1066,-0.2222,-0.2222,-0.2155,-0.2155,-0.2155,-0.2222,-0.2155,-0.2087,-0.2155,-0.2155,-0.2087,-0.2155,-0.2087,-0.2155,-0.2087,-0.2087,-0.2155,-0.2222,-0.2087,-0.2087,-0.2155,-0.2087,-0.202,-0.202,-0.2087,-0.2087,-0.202,-0.2087,-0.2087,-0.1751,-0.1885,-0.2155,-0.202,-0.2155,-0.2087,-0.202,-0.202,-0.1952,-0.1811,-0.1666,-0.1524,-0.1382,-0.1178,-0.1167,-0.1098,-0.1031,-0.103,-0.0902,-0.0894,-0.0882,-0.088,-0.0874,-0.0805,-0.0803,-0.0803,-0.0803,-0.0865,-0.0926,-0.105,-0.1173,-0.1112,-0.105,-0.0988,-0.0865,-0.0555,-0.0556,-0.037,0.0,0.0,0.0,0.0,0.0,0.0119,0.0354,0.0588,0.1,0.1235,0.1588,0.1823,0.2177,0.2352,0.2409,0.2459,0.2441,0.2073,0.1769,0.1751,0.1808,0.1915,0.197,0.1908,0.1905,0.2017,0.2123,0.2233,0.2435,0.2791,0.3045,0.3201,0.3342,0.3373,0.3372,0.3446,0.3441,0.3454,0.3585,0.3664,0.3206,0.2905,0.2799,0.2782,0.2758,0.2661,0.2408,0.2111,-0.1683,-0.1548,-0.1548,-0.1616,-0.1818,-0.1818,-0.1683,-0.1548,-0.1548,-0.1548,-0.1548,-0.1548,-0.1548,-0.1548,-0.1481,-0.1548,-0.1548,-0.1548,-0.1548,-0.1548,-0.1548,-0.1548,-0.1548,-0.1548,-0.1548,-0.1548,-0.1548,-0.1548,-0.1481,-0.1346,-0.1346,-0.1481,-0.1548,-0.1481,-0.1481,-0.1616,-0.1548,-0.1548,-0.1414,-0.1341,-0.1272,-0.1202,-0.1066,-0.1061,-0.0728,-0.0724,-0.0655,-0.0458,-0.0387,0.0,0.0,0.0,0.0,0.0,0.0,0.0,0.0,0.0,-0.0556,-0.0741,-0.0926,-0.0679,-0.0494,0.0,0.0,0.0,0.0,0.0,0.0,0.0,0.0,0.0183,0.0424,0.0601,0.0956,0.1435,0.1913,0.2271,0.2697,0.3119,0.329,0.3342,0.3445,0.3486,0.2984,0.2493,0.2467,0.2561,0.2726,0.2882,0.2876,0.2865,0.3032,0.3197,0.3304,0.3511,0.3827,0.4032,0.4289,0.4378,0.4466,0.4667,0.4685,0.4667,0.4647,0.4686,0.4716,0.4627,0.4351,0.3958,0.3794,0.3714,0.3553,0.3431,0.3187,-0.1346,-0.1077,-0.1077,-0.1212,-0.1414,-0.1481,-0.1346,-0.1144,-0.1144,-0.1077,-0.1077,-0.1077,-0.1077,-0.1077,-0.1144,-0.1144,-0.1144,-0.1144,-0.1144,-0.1144,-0.1144,-0.1077,-0.1077,-0.1144,-0.1212,-0.1077,-0.1077,-0.1144,-0.1144,-0.101,-0.0943,-0.0943,-0.0808,-0.0875,-0.1144,-0.1077,-0.1077,-0.1077,-0.0943,-0.0943,-0.0942,-0.0807,-0.074,-0.0672,-0.047,-0.0401,-0.0332,0.0,0.0,0.0,0.0,0.0,0.0,0.0,0.0,0.0,0.0,0.0,0.0,-0.0309,-0.0618,-0.0371,-0.0185,0.0,0.0,0.0,0.0,0.0,0.0,0.0,0.0062,0.0369,0.0797,0.1094,0.164,0.2125,0.2731,0.3217,0.3658,0.4099,0.4203,0.4363,0.4595,0.4571,0.4098,0.3646,0.3609,0.3643,0.3753,0.3899,0.403,0.4069,0.4108,0.4268,0.4369,0.4585,0.4745,0.4901,0.5167,0.5345,0.5511,0.5661,0.5659,0.5503,0.5543,0.572,0.5641,0.5486,0.5196,0.4902,0.479,0.4672,0.4599,0.4474,0.4353,-0.1077,-0.1077,-0.1077,-0.1077,-0.1077,-0.1144,-0.1077,-0.101,-0.101,-0.101,-0.101,-0.101,-0.101,-0.101,-0.0943,-0.0875,-0.0943,-0.0943,-0.0943,-0.0943,-0.0875,-0.101,-0.101,-0.0943,-0.0875,-0.1077,-0.0943,-0.0875,-0.101,-0.0673,-0.0539,-0.0471,-0.0337,-0.0404,-0.101,-0.1077,-0.1077,-0.101,-0.0673,-0.0539,-0.0471,0.0,0.0,0.0,0.0,0.0,0.0,0.0,0.0,0.0,0.0,0.0,0.0,0.0,0.0,0.0,0.0,0.0,0.0,0.0,0.0,0.0,0.0,0.0,0.0,0.0,0.0,0.0,0.0,0.0,0.0309,0.0556,0.1047,0.1599,0.2149,0.2823,0.3434,0.4167,0.4611,0.5047,0.5233,0.5473,0.5655,0.5693,0.519,0.4894,0.4724,0.4759,0.487,0.4942,0.506,0.51,0.5132,0.5182,0.5344,0.5529,0.5734,0.5835,0.5967,0.617,0.6287,0.6351,0.6334,0.6298,0.6312,0.6397,0.6364,0.6265,0.6058,0.5858,0.5754,0.5678,0.5603,0.5454,0.5241,-0.0606,-0.0337,-0.0337,-0.0337,-0.0404,-0.0606,-0.0606,-0.0404,-0.0404,0.0,-0.0337,-0.0337,-0.0337,-0.0337,0.0,0.0,0.0,-0.0404,-0.0404,0.0,0.0,-0.0337,0.0,0.0,0.0,0.0,0.0,0.0,-0.0337,0.0,0.0,-0.0135,0.0,-0.0135,-0.0337,-0.0404,-0.0337,-0.0337,-0.0202,-0.0202,0.0,0.0,0.0,0.0,0.0,0.0,0.0,0.0,0.0,0.0,0.0,0.0,0.0,0.0,0.0,0.0,0.0,0.0,0.0,0.0,0.0,0.0,0.0,0.0,0.0,0.0,0.0,0.0,0.0,0.0,0.0432,0.0741,0.1233,0.191,0.2524,0.3387,0.4125,0.4923,0.5546,0.5912,0.6221,0.6344,0.6528,0.6587,0.6213,0.5995,0.5881,0.5858,0.5966,0.6016,0.6123,0.6121,0.6105,0.6149,0.624,0.6312,0.6417,0.6543,0.6687,0.6842,0.6949,0.6958,0.6969,0.6906,0.7031,0.7093,0.692,0.6799,0.6877,0.679,0.6553,0.6359,0.6122,0.6037,0.5971,-0.02,0.0,0.0,0.0,0.0,-0.0269,-0.0202,0.0,0.0,0.0,0.0,0.0,0.0,0.0,0.0,0.0,0.0,0.0,0.0,0.0,0.0,0.0,0.0,0.0,0.0,0.0,0.0,0.0,0.0,0.0,0.0,0.0,0.0,0.0,0.0,0.0,0.0,0.0,0.0,0.0,0.0,0.0,0.0,0.0,0.0,0.0,0.0,0.0,0.0,0.0,0.0,0.0,0.0,0.0,0.0,0.0,0.0,0.0,0.0,0.0,0.0,0.0,0.0,0.0,0.0,0.0,0.0,0.0,0.0,0.0,0.0618,0.0926,0.1543,0.2281,0.3144,0.4007,0.487,0.5671,0.6221,0.6589,0.6834,0.7021,0.7207,0.7266,0.7116,0.7035,0.7016,0.6931,0.6842,0.6822,0.6811,0.6806,0.684,0.6861,0.6846,0.6889,0.7069,0.7216,0.7296,0.7314,0.733,0.7277,0.7433,0.7519,0.737,0.7332,0.7352,0.7285,0.7236,0.7166,0.7007,0.685,0.6626,0.6565,0.6583,0.0,0.0,0.0,0.0,0.0,0.0,0.0,0.0,0.0,0.0,0.0,0.0,0.0,0.0,0.0,0.0,0.0,0.0,0.0,0.0,0.0,0.0,0.0,0.0,0.0,0.0,0.0,0.0,0.0,0.0,0.0,0.0,0.0,0.0,0.0,0.0,0.0,0.0,0.0,0.0,0.0,0.0,0.0,0.0,0.0,0.0,0.0,0.0,0.0,0.0,0.0,0.0,0.0,0.0,0.0,0.0,0.0,0.0,0.0,0.0,0.0,0.0,0.0,0.0,0.0,0.0,0.0,0.0,0.0,0.0,0.0865,0.1419,0.2035,0.2898,0.3822,0.4685,0.5607,0.6283,0.6709,0.7077,0.7261,0.7447,0.763,0.775,0.7569,0.762,0.7477,0.7355,0.7261,0.7221,0.7222,0.7269,0.7349,0.7458,0.745,0.7367,0.7439,0.7528,0.7498,0.756,0.7573,0.757,0.7616,0.7625,0.7559,0.7521,0.7513,0.75,0.7478,0.7356,0.7261,0.7219,0.702,0.7038,0.7035,0.0,0.0,0.0,0.0,0.0,0.0,0.0,0.0,0.0,0.0,0.0,0.0,0.0,0.0,0.0,0.0,0.0,0.0,0.0,0.0,0.0,0.0,0.0,0.0,0.0,0.0,0.0,0.0,0.0,0.0,0.0,0.0,0.0,0.0,0.0,0.0,0.0,0.0,0.0,0.0,0.0,0.0,0.0,0.0,0.0,0.0,0.0,0.0,0.0,0.0,0.0,0.0,0.0,0.0,0.0,0.0,0.0,0.0,0.0,0.0,0.0,0.0,0.0,0.0,0.0,0.0,0.0,0.0,0.0249,0.0623,0.1183,0.1741,0.2486,0.342,0.4284,0.5075,0.5937,0.6537,0.6964,0.7444,0.7689,0.7689,0.7872,0.7872,0.775,0.7872,0.7872,0.775,0.762,0.7575,0.7551,0.7598,0.7645,0.7698,0.7736,0.7714,0.7716,0.7777,0.7739,0.772,0.7736,0.7744,0.7761,0.7736,0.7679,0.7655,0.7646,0.7627,0.7597,0.7538,0.7439,0.7409,0.7434,0.7394,0.7366,0.0,0.0,0.0,0.0,0.0,0.0,0.0,0.0,0.0,0.0,0.0,0.0,0.0,0.0,0.0,0.0,0.0,0.0,0.0,0.0,0.0,0.0,0.0,0.0,0.0,0.0,0.0,0.0,0.0,0.0,0.0,0.0,0.0,0.0,0.0,0.0,0.0,0.0,0.0,0.0,0.0,0.0,0.0,0.0,0.0,0.0,0.0,0.0,0.0,0.0,0.0,0.0,0.0,0.0,0.0,0.0,0.0,0.0,0.0,0.0,0.0,0.0,0.0,0.0,0.0,0.0,0.0,0.019,0.0441,0.0755,0.1383,0.2072,0.3016,0.3898,0.4629,0.5414,0.6077,0.6673,0.7214,0.7752,0.7872,0.7872,0.7933,0.7936,0.7933,0.7933,0.7933,0.7872,0.7811,0.7795,0.7781,0.7776,0.7845,0.7834,0.7933,0.7933,0.785,0.7834,0.7828,0.7826,0.7933,0.7922,0.7826,0.7815,0.7804,0.7777,0.7747,0.7728,0.7695,0.7644,0.7627,0.7644,0.7606,0.7521,0.7505,0.0,0.0,0.0,0.0,0.0,0.0,0.0,0.0,0.0,0.0,0.0,0.0,0.0,0.0,0.0,0.0,0.0,0.0,0.0,0.0,0.0,0.0,0.0,0.0,0.0,0.0,0.0,0.0,0.0,0.0,0.0,0.0,0.0,0.0,0.0,0.0,0.0,0.0,0.0,0.0,0.0,0.0,0.0,0.0,0.0,0.0,0.0,0.0,0.0,0.0,0.0,0.0,0.0,0.0,0.0,0.0,0.0,0.0,0.0,0.0,0.0,0.0,0.0,0.0,0.0,0.0,0.0,0.0,0.0638,0.1148,0.172,0.2675,0.363,0.439,0.5071,0.5875,0.6551,0.7094,0.751,0.7938,0.7997,0.7994,0.7994,0.8008,0.8019,0.7951,0.794,0.7945,0.8002,0.8004,0.7969,0.7969,0.7977,0.7977,0.7933,0.7933,0.7933,0.7928,0.7936,0.7933,0.7933,0.7933,0.7933,0.7856,0.7842,0.7853,0.7837,0.7807,0.7793,0.7799,0.7799,0.7839,0.7788,0.7671,0.7649,0.0,0.0,0.0,0.0,0.0,0.0,0.0,0.0,0.0,0.0,0.0,0.0,0.0,0.0,0.0,0.0,0.0,0.0,0.0,0.0,0.0,0.0,0.0,0.0,0.0,0.0,0.0,0.0,0.0,0.0,0.0,0.0,0.0,0.0,0.0,0.0,0.0,0.0,0.0,0.0,0.0,0.0,0.0,0.0,0.0,0.0,0.0,0.0,0.0,0.0,0.0,0.0,0.0,0.0,0.0,0.0,0.0,0.0,0.0,0.0,0.0,0.0,0.0,0.0,0.0,0.0,0.0,0.0,0.1035,0.1552,0.2263,0.3296,0.4199,0.4901,0.5527,0.6349,0.7101,0.7458,0.788,0.8004,0.807,0.813,0.8125,0.813,0.8147,0.8149,0.8155,0.8155,0.8202,0.8188,0.8203,0.8127,0.8062,0.8048,0.7988,0.7933,0.7933,0.7944,0.7949,0.7944,0.7941,0.7958,0.7971,0.7944,0.7928,0.7933,0.7933,0.7925,0.7919,0.7933,0.7933,0.7933,0.7933,0.7782,0.7788,0.0,0.0,0.0,0.0,0.0,0.0,0.0,0.0,0.0,0.0,0.0,0.0,0.0,0.0,0.0,0.0,0.0,0.0,0.0,0.0,0.0,0.0,0.0,0.0,0.0,0.0,0.0,0.0,0.0,0.0,0.0,0.0,0.0,0.0,0.0,0.0,0.0,0.0,0.0,0.0,0.0,0.0,0.0,0.0,0.0,0.0,0.0,0.0,0.0,0.0,0.0,0.0,0.0,0.0,0.0,0.0,0.0,0.0,0.0,0.0,0.0,0.0,0.0,0.0,0.0,0.0,0.0,0.086,0.1454,0.205,0.304,0.4096,0.4953,0.5672,0.6337,0.7006,0.7478,0.7752,0.7999,0.8126,0.8193,0.819,0.8187,0.8187,0.8198,0.8201,0.8164,0.8442,0.8447,0.8556,0.8508,0.8423,0.8366,0.819,0.8059,0.7988,0.7933,0.7947,0.8049,0.8015,0.8102,0.8023,0.7951,0.8052,0.8025,0.7933,0.7933,0.8027,0.7941,0.7933,0.7933,0.7933,0.7939,0.8016,0.7994,0.0,0.0,0.0,0.0,0.0,0.0,0.0,0.0,0.0,0.0,0.0,0.0,0.0,0.0,0.0,0.0,0.0,0.0,0.0,0.0,0.0,0.0,0.0,0.0,0.0,0.0,0.0,0.0,0.0,0.0,0.0,0.0,0.0,0.0,0.0,0.0,0.0,0.0,0.0,0.0,0.0,0.0,0.0,0.0,0.0,0.0,0.0,0.0,0.0,0.0,0.0,0.0,0.0,0.0,0.0,0.0,0.0,0.0,0.0,0.0,0.0,0.0,0.0,0.0,0.0,0.0404,0.0739,0.1344,0.1948,0.2754,0.3827,0.4832,0.5702,0.6364,0.6953,0.7553,0.7886,0.8092,0.8221,0.8288,0.8352,0.8352,0.8416,0.8411,0.8408,0.8338,0.8467,0.8601,0.8822,0.8965,0.9024,0.8928,0.882,0.8623,0.8343,0.8282,0.8276,0.8369,0.8486,0.8378,0.8264,0.8449,0.842,0.8296,0.8203,0.8276,0.8273,0.8364,0.82,0.8116,0.8282,0.8443,0.8417,0.842,0.8239,0.0,0.0,0.0,0.0,0.0,0.0,0.0,0.0,0.0,0.0,0.0,0.0,0.0,0.0,0.0,0.0,0.0,0.0,0.0,0.0,0.0,0.0,0.0,0.0,0.0,0.0,0.0,0.0,0.0,0.0,0.0,0.0,0.0,0.0,0.0,0.0,0.0,0.0,0.0,0.0,0.0,0.0,0.0,0.0,0.0,0.0,0.0,0.0,0.0,0.0,0.0,0.0,0.0,0.0,0.0,0.0,0.0,0.0,0.0,0.0,0.0,0.0,0.0,0.0,0.0337,0.074,0.1278,0.2018,0.269,0.3362,0.4368,0.5575,0.6447,0.6849,0.7403,0.7926,0.836,0.8547,0.8678,0.881,0.8941,0.9076,0.9276,0.9207,0.9204,0.9198,0.9195,0.9327,0.9377,0.9494,0.9525,0.9511,0.9352,0.9267,0.9112,0.8937,0.889,0.8977,0.8995,0.8889,0.8897,0.9022,0.8983,0.8785,0.8869,0.8965,0.8956,0.8774,0.8869,0.88,0.8974,0.9058,0.895,0.883,0.8647]},{"header":{"parameterUnit":"m.s-1","parameterCategory":1,"la1":31.0,"la2":29.5877,"lo1":-88.7671,"lo2":-86.6584,"dy":0.0162,"dx":0.0185,"nx":115,"ny":88,"refTime":"2023-10-03T06:00:00:Z","depth":0,"parameterNumber":3,"parameterNumberName":"V-component_of_WINDS"},"data":[0.0,0.0,0.0,0.0,0.0,0.0,0.0,0.0,0.0,0.0,0.0,0.0,0.0,0.0,0.0,0.0,0.0,0.0,0.0,0.0,0.0,0.0,0.0,0.0,0.0,0.0,0.0,0.0,0.0,0.0,0.0,0.0,0.0,0.0,0.0,0.0,0.0,0.0,0.0,0.0,0.0,0.0,0.0,0.0,0.0,0.0,0.0,0.0,0.0,0.0,0.0,0.0,0.0,0.0,0.0,0.0,0.0,0.0,0.0,0.0,0.0,0.0,0.0,0.0,0.0,0.0,0.0,0.0,0.0,0.0,0.0,0.0,0.0,0.0,0.0,0.0,0.0,0.0,0.0,0.0,0.0,0.0,0.0,0.0,0.0,0.0,0.0,0.0,0.0,0.0,0.0,0.0,0.0,0.0,0.0,0.0,0.0,0.0,0.0,0.0,0.0,0.0,0.0,0.0,0.0,0.0,0.0,0.0,0.0,0.0,0.0,0.0,0.0,0.0,0.0,0.0,0.0,0.0,0.0,0.0,0.0,0.0,0.0,0.0,0.0,0.0,0.0,0.0,0.0,0.0,0.0,0.0,0.0,0.0,0.0,0.0,0.0,0.0,0.0,0.0,0.0,0.0,0.0,0.0,0.0,0.0,0.0,0.0,0.0,0.0,0.0,0.0,0.0,0.0,0.0,0.0,0.0,0.0,0.0,0.0,0.0,0.0,0.0,0.0,0.0,0.0,0.0,0.0,0.0,0.0,0.0,0.0,0.0,0.0,0.0,0.0,0.0,0.0,0.0,0.0,0.0,0.0,0.0,0.0,0.0,0.0,0.0,0.0,0.0,0.0,0.0,0.0,0.0,0.0,0.0,0.0,0.0,0.0,0.0,0.0,0.0,0.0,0.0,0.0,0.0,0.0,0.0,0.0,0.0,0.0,0.0,0.0,0.0,0.0,0.0,0.0,0.0,0.0,0.0,0.0,0.0,0.0,0.0,0.0,0.0,0.0,0.0,0.0,0.0,0.0,0.0,0.0,0.0,0.0,0.0,0.0,0.0,0.0,0.0,0.0,0.0,0.0,0.0,0.0,0.0,0.0,0.0,0.0,0.0,0.0,0.0,0.0,0.0,0.0,0.0,0.0,0.0,0.0,0.0,0.0,0.0,0.0,0.0,0.0,0.0,0.0,0.0,0.0,0.0,0.0,0.0,0.0,0.0,0.0,0.0,0.0,0.0,0.0,0.0,0.0,0.0,0.0,0.0,0.0,0.0,0.0,0.0,0.0,0.0,0.0,0.0,0.0,0.0,0.0,0.0,0.0,0.0,0.0,0.0,0.0,0.0,0.0,0.0,0.0,0.0,0.0,0.0,0.0,0.0,0.0,0.0,0.0,0.0,0.0,0.0,0.0,0.0,0.0,0.0,0.0,0.0,0.0,0.0,0.0,0.0,0.0,0.0,0.0,0.0,0.0,0.0,0.0,0.0,0.0,0.0,0.0,0.0,0.0,0.0,0.0,0.0,0.0,0.0,0.0,0.0,0.0,0.0,0.0,0.0,0.0,0.0,0.0,0.0,0.0,0.0,0.0,0.0,0.0,0.0,0.0,0.0,0.0,0.0,0.0,0.0,0.0,0.0,0.0,0.0,0.0,0.0,0.0,0.0,0.0,0.0,0.0,0.0,0.0,0.0,0.0,0.0,0.0,0.0,0.0,0.0,0.0,0.0,0.0,0.0,0.0,0.0,0.0,0.0,0.0,0.0,0.0,0.0,0.0,0.0,0.0,0.0,0.0,0.0,0.0,0.0,0.0,0.0,0.0,0.0,0.0,0.0,0.0,0.0,0.0,0.0,0.0,0.0,0.0,0.0,0.0,0.0,0.0,0.0,0.0,0.0,0.0,0.0,0.0,0.0,0.0,0.0,0.0,0.0,0.0,0.0,0.0,0.0,0.0,0.0,0.0,0.0,0.0,0.0,0.0,0.0,0.0,0.0,0.0,0.0,0.0,0.0,0.0,0.0,0.0,0.0,0.0,0.0,0.0,0.0,0.0,0.0,0.0,0.0,0.0,0.0,0.0,0.0,0.0,0.0,0.0,0.0,0.0,0.0,0.0,0.0,0.0,0.0,0.0,0.0,0.0,0.0,0.0,0.0,0.0,0.0,0.0,0.0,0.0,0.0,0.0,0.0,0.0,0.0,0.0,0.0,0.0,0.0,0.0,0.0,0.0,0.0,0.0,0.0,0.0,0.0,0.0,0.0,0.0,0.0,0.0,0.0,0.0,0.0,0.0,0.0,0.0,0.0,0.0,0.0,0.0,0.0,0.0,0.0,0.0,0.0,0.0,0.0,0.0,0.0,0.0,0.0,0.0,0.0,0.0,0.0,0.0,0.0,0.0,0.0,0.0,0.0,0.0,0.0,0.0,0.0,0.0,0.0,0.0,0.0,0.0,0.0,0.0,0.0,0.0,0.0,0.0,0.0,0.0,0.0,0.0,0.0,0.0,0.0,0.0,0.0,0.0,0.0,0.0,0.0,0.0,0.0,0.0,0.0,0.0,0.0,0.0,0.0,0.0,0.0,0.0,0.0,0.0,0.0,0.0,0.0,0.0,0.0,0.0,0.0,0.0,0.0,0.0,0.0,0.0,0.0,0.0,0.0,0.0,0.0,0.0,0.0,0.0,0.0,0.0,0.0,0.0,0.0,0.0,0.0,0.0,0.0,0.0,0.0,0.0,0.0,0.0,0.0,0.0,0.0,0.0,0.0,0.0,0.0,0.0,0.0,0.0,0.0,0.0,0.0,0.0,0.0,0.0,0.0,0.0,0.0,0.0,0.0,0.0,0.0,0.0,0.0,0.0,0.0,0.0,0.0,0.0,0.0,0.0,0.0,0.0,0.0,0.0,0.0,0.0,0.0,0.0,0.0,0.0,0.0,0.0,0.0,0.0,0.0,0.0,0.0,0.0,0.0,0.0,0.0,0.0,0.0,0.0,0.0,0.0,0.0,0.0,0.0,0.0,0.0,0.0,0.0,0.0,0.0,0.0,0.0,0.0,0.0,0.0,0.0,0.0,0.0,0.0,0.0,0.0,0.0,0.0,0.0,0.0,0.0,0.0,0.0,0.0,0.0,0.0,0.0,0.0,0.0,0.0,0.0,0.0,0.0,0.0,0.0,0.0,0.0,0.0,0.0,0.0,0.0,0.0,0.0,0.0,0.0,0.0,0.0,0.0,0.0,0.0,0.0,0.0,0.0,0.0,0.0,0.0,0.0,0.0,0.0,0.0,0.0,0.0,0.0,0.0,0.0,0.0,0.0,0.0,0.0,0.0,0.0,0.0,0.0,0.0,0.0,0.0,0.0,0.0,0.0,0.0,0.0,0.0,0.0,0.0,0.0,0.0,0.0,0.0,0.0,0.0,0.0,0.0,0.0,0.0,0.0,0.0,0.0,0.0,0.0,0.0,0.0,0.0,0.0,0.0,0.0,0.0,0.0,0.0,0.0,0.0,0.0,0.0,0.0,0.0,0.0,0.0,0.0,0.0,0.0,0.0,0.0,0.0,0.0,0.0,0.0,0.0,0.0,0.0,0.0,0.0,0.0,0.0,0.0,0.0,0.0,0.0,0.0,0.0,0.0,0.0,0.0,0.0,0.0,0.0,0.0,0.0,0.0,0.0,0.0,0.0,0.0,0.0,0.0,0.0,0.0,0.0,0.0,0.0,0.0,0.0,0.0,0.0,0.0,0.0,0.0,0.0,0.0,0.0,0.0,0.0,0.0,0.0,0.0,0.0,0.0,0.0,0.0,0.0,0.0,0.0,0.0,0.0,0.0,0.0,0.0,0.0,0.0,0.0,0.0,0.0,0.0,0.0,0.0,0.0,0.0,0.0,0.0,0.0,0.0,0.0,0.0,0.0,0.0,0.0,0.0,0.0,0.0,0.0,0.0,0.0,0.0,0.0,0.0,0.0,0.0,0.0,0.0,0.0,0.0,0.0,0.0,0.0,0.0,0.0,0.0,0.0,0.0,0.0,0.0,0.0,0.0,0.0,0.0,0.0,0.0,0.0,0.0,0.0,0.0,0.0,0.0,0.0,0.0,0.0,0.0,0.0,0.0,0.0,0.0,0.0,0.0,0.0,0.0,0.0,0.0,0.0,0.0,0.0,0.0,0.0,0.0,0.0,0.0,0.0,0.0,0.0,0.0,0.0,0.0,0.0,0.0,0.0,0.0,0.0,0.0,0.0,0.0,0.0,0.0,0.0,0.0,0.0,0.0,0.0,0.0,0.0,0.0,0.0,2.6611,0.0,0.0,0.0,0.0,0.0,0.0,0.0,0.0,0.0,0.0,0.0,0.0,0.0,0.0,0.0,0.0,0.0,0.0,0.0,0.0,0.0,0.0,0.0,0.0,0.0,0.0,0.0,0.0,0.0,0.0,0.0,0.0,0.0,0.0,0.0,0.0,0.0,0.0,0.0,0.0,0.0,0.0,0.0,0.0,0.0,0.0,0.0,0.0,0.0,0.0,0.0,0.0,0.0,0.0,0.0,0.0,0.0,0.0,0.0,0.0,0.0,0.0,0.0,0.0,0.0,0.0,0.0,0.0,0.0,0.0,0.0,0.0,0.0,0.0,0.0,0.0,0.0,0.0,0.0,0.0,0.0,0.0,0.0,0.0,0.0,0.0,0.0,0.0,0.0,0.0,0.0,0.0,0.0,0.0,0.0,0.0,0.0,0.0,0.0,0.0,0.0,0.0,0.0,0.0,0.0,0.0,0.0,0.0,0.0,0.0,2.7914,2.7557,2.7925,2.7657,2.6567,0.0,0.0,0.0,0.0,0.0,0.0,0.0,0.0,0.0,0.0,0.0,0.0,0.0,0.0,0.0,0.0,0.0,0.0,0.0,0.0,0.0,0.0,0.0,0.0,0.0,0.0,0.0,0.0,0.0,0.0,0.0,0.0,0.0,0.0,0.0,0.0,0.0,0.0,0.0,0.0,0.0,0.0,0.0,0.0,0.0,0.0,0.0,0.0,0.0,0.0,0.0,0.0,0.0,0.0,0.0,0.0,0.0,0.0,0.0,0.0,0.0,0.0,0.0,0.0,0.0,0.0,0.0,0.0,0.0,0.0,0.0,0.0,0.0,0.0,0.0,0.0,0.0,0.0,0.0,0.0,0.0,0.0,0.0,0.0,0.0,0.0,0.0,0.0,0.0,0.0,0.0,0.0,0.0,0.0,0.0,0.0,0.0,0.0,0.0,0.0,0.0,0.0,0.0,0.0,0.0,0.0,0.0,0.0,0.0,0.0,0.0,0.0,2.8161,2.7741,2.6409,0.0,0.0,0.0,0.0,0.0,0.0,0.0,0.0,0.0,0.0,0.0,0.0,0.0,0.0,0.0,0.0,0.0,0.0,0.0,0.0,0.0,0.0,0.0,0.0,0.0,0.0,0.0,0.0,0.0,0.0,0.0,0.0,0.0,0.0,0.0,0.0,0.0,0.0,0.0,0.0,0.0,0.0,0.0,0.0,0.0,0.0,0.0,0.0,0.0,0.0,0.0,0.0,0.0,0.0,0.0,0.0,0.0,0.0,0.0,0.0,0.0,0.0,0.0,0.0,0.0,0.0,0.0,0.0,0.0,0.0,0.0,0.0,0.0,0.0,0.0,0.0,0.0,0.0,0.0,0.0,0.0,0.0,0.0,0.0,0.0,0.0,0.0,0.0,0.0,0.0,0.0,0.0,0.0,0.0,0.0,0.0,0.0,0.0,0.0,0.0,0.0,0.0,0.0,0.0,0.0,0.0,0.0,0.0,0.0,0.0,2.8895,2.8934,2.8304,0.0,2.6268,0.0,0.0,0.0,0.0,0.0,0.0,0.0,0.0,0.0,0.0,0.0,0.0,0.0,0.0,0.0,0.0,0.0,0.0,0.0,0.0,0.0,0.0,0.0,0.0,0.0,0.0,0.0,0.0,0.0,0.0,0.0,0.0,0.0,0.0,0.0,0.0,0.0,0.0,0.0,0.0,0.0,0.0,0.0,0.0,0.0,0.0,0.0,0.0,0.0,0.0,0.0,0.0,0.0,0.0,0.0,0.0,0.0,0.0,0.0,0.0,0.0,0.0,0.0,0.0,0.0,0.0,0.0,0.0,0.0,0.0,0.0,0.0,0.0,0.0,0.0,0.0,0.0,0.0,0.0,0.0,0.0,0.0,0.0,0.0,0.0,0.0,0.0,0.0,0.0,0.0,0.0,0.0,0.0,0.0,0.0,0.0,0.0,0.0,0.0,0.0,0.0,0.0,0.0,0.0,0.0,0.0,0.0,0.0,0.0,0.0,2.9061,2.8811,2.8213,2.7521,0.0,0.0,0.0,0.0,0.0,0.0,0.0,0.0,0.0,0.0,0.0,0.0,0.0,0.0,0.0,0.0,0.0,0.0,0.0,0.0,0.0,0.0,0.0,0.0,0.0,0.0,0.0,0.0,0.0,0.0,0.0,0.0,0.0,0.0,0.0,0.0,0.0,0.0,0.0,0.0,0.0,0.0,0.0,0.0,0.0,0.0,0.0,0.0,0.0,0.0,0.0,0.0,0.0,0.0,0.0,0.0,0.0,0.0,0.0,0.0,0.0,0.0,0.0,0.0,0.0,0.0,0.0,0.0,0.0,0.0,0.0,0.0,0.0,0.0,0.0,0.0,0.0,0.0,0.0,0.0,0.0,0.0,0.0,0.0,0.0,0.0,0.0,0.0,0.0,0.0,0.0,0.0,0.0,0.0,0.0,0.0,0.0,0.0,0.0,0.0,0.0,0.0,0.0,0.0,0.0,0.0,0.0,0.0,0.0,0.0,2.877,2.9266,2.8733,2.8245,2.772,2.7148,0.0,0.0,0.0,0.0,0.0,0.0,0.0,0.0,0.0,0.0,0.0,0.0,0.0,0.0,0.0,0.0,0.0,0.0,0.0,0.0,0.0,0.0,0.0,0.0,0.0,0.0,0.0,0.0,0.0,0.0,0.0,0.0,0.0,0.0,0.0,0.0,0.0,0.0,0.0,0.0,0.0,0.0,0.0,0.0,0.0,0.0,0.0,0.0,0.0,0.0,0.0,0.0,0.0,0.0,0.0,0.0,0.0,0.0,0.0,0.0,0.0,0.0,0.0,0.0,0.0,0.0,0.0,0.0,0.0,0.0,0.0,0.0,0.0,0.0,0.0,0.0,0.0,0.0,0.0,0.0,0.0,0.0,0.0,0.0,0.0,0.0,0.0,0.0,0.0,0.0,0.0,0.0,0.0,0.0,0.0,0.0,0.0,0.0,0.0,0.0,0.0,0.0,0.0,0.0,0.0,0.0,0.0,0.0,2.7709,2.9038,2.9567,2.9071,2.8487,2.7959,0.0,0.0,0.0,0.0,0.0,0.0,0.0,0.0,0.0,0.0,0.0,0.0,0.0,0.0,0.0,0.0,0.0,0.0,0.0,0.0,0.0,0.0,0.0,0.0,0.0,0.0,0.0,0.0,0.0,0.0,0.0,0.0,0.0,0.0,0.0,0.0,0.0,0.0,0.0,0.0,0.0,0.0,0.0,0.0,0.0,0.0,0.0,0.0,0.0,0.0,0.0,0.0,0.0,0.0,0.0,0.0,0.0,0.0,0.0,0.0,0.0,0.0,0.0,0.0,0.0,0.0,0.0,0.0,0.0,0.0,0.0,0.0,0.0,0.0,0.0,0.0,0.0,0.0,0.0,0.0,0.0,0.0,0.0,0.0,0.0,0.0,0.0,0.0,0.0,0.0,0.0,0.0,0.0,0.0,0.0,0.0,0.0,0.0,0.0,0.0,0.0,0.0,0.0,0.0,0.0,0.0,0.0,0.0,0.0,2.7306,2.8712,2.9201,2.8657,2.8196,2.7683,0.0,0.0,0.0,0.0,0.0,0.0,0.0,0.0,0.0,0.0,0.0,0.0,0.0,0.0,0.0,0.0,0.0,0.0,0.0,0.0,0.0,0.0,0.0,0.0,0.0,0.0,0.0,0.0,0.0,0.0,0.0,0.0,0.0,0.0,0.0,0.0,0.0,0.0,0.0,0.0,0.0,0.0,0.0,0.0,0.0,0.0,0.0,0.0,0.0,0.0,0.0,0.0,0.0,0.0,0.0,0.0,0.0,0.0,0.0,0.0,0.0,0.0,0.0,0.0,0.0,0.0,0.0,0.0,0.0,0.0,0.0,0.0,0.0,0.0,0.0,0.0,0.0,0.0,0.0,0.0,0.0,0.0,0.0,0.0,0.0,0.0,0.0,0.0,0.0,0.0,0.0,0.0,0.0,0.0,0.0,0.0,0.0,0.0,0.0,0.0,0.0,0.0,0.0,0.0,0.0,0.0,0.0,0.0,0.0,2.7589,0.0,2.8946,0.0,2.7897,2.7381,0.0,0.0,0.0,0.0,0.0,0.0,0.0,0.0,0.0,0.0,0.0,0.0,0.0,0.0,0.0,0.0,0.0,0.0,0.0,0.0,0.0,0.0,0.0,0.0,0.0,0.0,0.0,0.0,0.0,0.0,0.0,0.0,0.0,0.0,0.0,0.0,0.0,0.0,0.0,0.0,0.0,0.0,0.0,0.0,0.0,0.0,0.0,0.0,0.0,0.0,0.0,0.0,0.0,0.0,0.0,0.0,0.0,0.0,0.0,0.0,0.0,0.0,0.0,0.0,0.0,0.0,0.0,0.0,0.0,0.0,0.0,0.0,0.0,0.0,0.0,0.0,0.0,0.0,0.0,0.0,0.0,0.0,0.0,0.0,0.0,0.0,0.0,0.0,0.0,0.0,0.0,0.0,0.0,0.0,0.0,0.0,0.0,0.0,0.0,0.0,0.0,0.0,0.0,0.0,0.0,0.0,0.0,0.0,2.7422,2.8716,2.8779,2.8826,2.8865,2.7674,2.7105,0.0,0.0,0.0,0.0,0.0,0.0,0.0,0.0,0.0,0.0,0.0,0.0,0.0,0.0,0.0,0.0,0.0,0.0,0.0,0.0,0.0,0.0,0.0,0.0,0.0,0.0,0.0,0.0,0.0,0.0,0.0,0.0,0.0,0.0,0.0,0.0,0.0,0.0,0.0,0.0,0.0,0.0,0.0,0.0,0.0,0.0,0.0,0.0,0.0,0.0,0.0,0.0,0.0,0.0,0.0,0.0,0.0,0.0,0.0,0.0,0.0,0.0,0.0,0.0,0.0,0.0,0.0,0.0,0.0,0.0,0.0,0.0,0.0,0.0,0.0,0.0,0.0,0.0,0.0,0.0,0.0,0.0,0.0,0.0,0.0,0.0,0.0,0.0,0.0,0.0,0.0,0.0,0.0,0.0,0.0,0.0,0.0,0.0,0.0,0.0,0.0,0.0,0.0,0.0,0.0,0.0,0.0,0.0,0.0,2.9058,2.8627,2.8636,2.903,2.7534,2.6754,0.0,0.0,0.0,0.0,0.0,0.0,0.0,0.0,0.0,0.0,0.0,0.0,0.0,0.0,0.0,0.0,0.0,0.0,0.0,0.0,0.0,0.0,0.0,0.0,0.0,0.0,0.0,0.0,0.0,0.0,0.0,0.0,0.0,0.0,0.0,0.0,0.0,0.0,0.0,0.0,0.0,0.0,0.0,0.0,0.0,0.0,0.0,0.0,0.0,0.0,0.0,0.0,0.0,0.0,0.0,0.0,0.0,0.0,0.0,0.0,0.0,0.0,0.0,0.0,0.0,0.0,0.0,0.0,0.0,0.0,0.0,0.0,0.0,0.0,0.0,0.0,0.0,0.0,0.0,0.0,0.0,0.0,0.0,0.0,0.0,0.0,0.0,0.0,0.0,0.0,0.0,0.0,0.0,0.0,0.0,0.0,0.0,0.0,0.0,0.0,0.0,0.0,0.0,0.0,0.0,0.0,0.0,0.0,0.0,2.9469,2.9088,2.8951,2.9119,2.7856,2.7016,2.6658,0.0,0.0,0.0,0.0,0.0,0.0,0.0,0.0,0.0,0.0,0.0,0.0,0.0,0.0,0.0,0.0,0.0,0.0,0.0,0.0,0.0,0.0,0.0,0.0,0.0,0.0,0.0,0.0,0.0,0.0,0.0,0.0,0.0,0.0,0.0,0.0,0.0,0.0,0.0,0.0,0.0,0.0,0.0,0.0,0.0,0.0,0.0,0.0,0.0,0.0,0.0,0.0,0.0,0.0,0.0,0.0,0.0,0.0,0.0,0.0,0.0,0.0,0.0,0.0,0.0,0.0,0.0,0.0,0.0,0.0,0.0,0.0,0.0,0.0,0.0,0.0,0.0,0.0,0.0,0.0,0.0,0.0,0.0,0.0,0.0,0.0,0.0,0.0,0.0,0.0,0.0,0.0,0.0,0.0,0.0,0.0,0.0,0.0,0.0,0.0,0.0,0.0,0.0,0.0,0.0,0.0,0.0,0.0,3.0054,3.0073,2.9754,2.9072,2.8538,2.7703,0.0,0.0,0.0,0.0,0.0,0.0,0.0,0.0,0.0,0.0,0.0,0.0,0.0,0.0,0.0,0.0,0.0,0.0,0.0,0.0,0.0,0.0,0.0,0.0,0.0,0.0,0.0,0.0,0.0,0.0,0.0,0.0,0.0,0.0,0.0,0.0,0.0,0.0,0.0,0.0,0.0,0.0,0.0,0.0,0.0,0.0,0.0,0.0,0.0,0.0,0.0,0.0,0.0,0.0,0.0,0.0,0.0,0.0,0.0,0.0,0.0,0.0,0.0,0.0,0.0,0.0,0.0,0.0,0.0,0.0,0.0,0.0,0.0,0.0,0.0,0.0,0.0,0.0,0.0,0.0,0.0,0.0,0.0,0.0,0.0,0.0,0.0,0.0,0.0,0.0,0.0,0.0,0.0,0.0,0.0,0.0,0.0,0.0,0.0,0.0,0.0,0.0,0.0,0.0,0.0,0.0,0.0,0.0,0.0,3.0721,3.0958,3.0588,2.9474,2.8561,2.7487,0.0,0.0,0.0,0.0,0.0,0.0,0.0,0.0,0.0,0.0,0.0,0.0,0.0,0.0,0.0,0.0,0.0,0.0,0.0,0.0,0.0,0.0,0.0,0.0,0.0,0.0,0.0,0.0,0.0,0.0,0.0,0.0,0.0,0.0,0.0,0.0,0.0,0.0,0.0,0.0,0.0,0.0,0.0,0.0,0.0,0.0,0.0,0.0,0.0,0.0,0.0,0.0,0.0,0.0,0.0,0.0,0.0,0.0,0.0,0.0,0.0,0.0,0.0,0.0,0.0,0.0,0.0,0.0,0.0,0.0,0.0,0.0,0.0,0.0,0.0,0.0,0.0,0.0,0.0,0.0,0.0,0.0,0.0,0.0,0.0,0.0,0.0,0.0,0.0,0.0,0.0,0.0,0.0,0.0,0.0,0.0,0.0,0.0,0.0,0.0,0.0,0.0,0.0,0.0,0.0,0.0,0.0,0.0,3.06,3.0995,3.1338,3.1002,2.9983,2.9244,2.8105,0.0,0.0,0.0,0.0,0.0,0.0,0.0,0.0,0.0,0.0,0.0,0.0,0.0,0.0,0.0,0.0,0.0,0.0,0.0,0.0,0.0,0.0,0.0,0.0,0.0,0.0,0.0,0.0,0.0,0.0,0.0,0.0,0.0,0.0,0.0,0.0,0.0,0.0,0.0,0.0,0.0,0.0,0.0,0.0,0.0,0.0,0.0,0.0,0.0,0.0,0.0,0.0,0.0,0.0,0.0,0.0,0.0,0.0,0.0,0.0,0.0,0.0,0.0,0.0,0.0,0.0,0.0,0.0,0.0,0.0,0.0,0.0,0.0,0.0,0.0,0.0,0.0,0.0,0.0,0.0,0.0,0.0,0.0,0.0,0.0,0.0,0.0,0.0,0.0,0.0,0.0,0.0,0.0,0.0,0.0,0.0,0.0,0.0,0.0,0.0,0.0,0.0,0.0,0.0,0.0,0.0,0.0,0.0,3.104,3.1116,3.1368,3.1197,3.0612,3.0211,2.9097,0.0,0.0,0.0,0.0,0.0,0.0,0.0,0.0,0.0,0.0,0.0,0.0,0.0,0.0,0.0,0.0,0.0,0.0,0.0,0.0,0.0,0.0,0.0,0.0,0.0,0.0,0.0,0.0,0.0,0.0,0.0,0.0,0.0,0.0,0.0,0.0,0.0,0.0,0.0,0.0,0.0,0.0,0.0,0.0,0.0,0.0,0.0,0.0,0.0,0.0,0.0,0.0,0.0,0.0,0.0,0.0,0.0,0.0,0.0,0.0,0.0,0.0,0.0,0.0,0.0,0.0,0.0,0.0,0.0,0.0,0.0,0.0,0.0,0.0,0.0,0.0,0.0,0.0,0.0,0.0,0.0,0.0,0.0,0.0,0.0,0.0,0.0,0.0,0.0,0.0,0.0,0.0,0.0,0.0,0.0,0.0,0.0,0.0,0.0,0.0,0.0,0.0,0.0,0.0,0.0,0.0,0.0,0.0,3.1253,3.1754,3.1608,3.1436,3.1286,3.0331,2.9195,0.0,0.0,0.0,0.0,0.0,0.0,0.0,0.0,0.0,0.0,0.0,0.0,0.0,0.0,0.0,0.0,0.0,0.0,0.0,0.0,0.0,0.0,0.0,0.0,0.0,0.0,0.0,0.0,0.0,0.0,0.0,0.0,0.0,0.0,0.0,0.0,0.0,0.0,0.0,0.0,0.0,0.0,0.0,0.0,0.0,0.0,0.0,0.0,3.8596,0.0,0.0,0.0,0.0,0.0,0.0,0.0,0.0,0.0,0.0,0.0,0.0,0.0,0.0,0.0,0.0,0.0,0.0,0.0,0.0,0.0,0.0,0.0,0.0,0.0,0.0,0.0,0.0,0.0,0.0,0.0,0.0,0.0,0.0,0.0,0.0,0.0,0.0,0.0,0.0,0.0,0.0,0.0,0.0,0.0,0.0,0.0,0.0,0.0,0.0,0.0,0.0,0.0,0.0,0.0,0.0,0.0,0.0,0.0,3.1716,3.1981,3.1784,3.1612,3.1451,3.0323,2.9328,0.0,0.0,0.0,0.0,0.0,0.0,0.0,0.0,0.0,0.0,0.0,0.0,0.0,0.0,0.0,0.0,0.0,0.0,0.0,0.0,0.0,0.0,0.0,0.0,0.0,0.0,0.0,0.0,0.0,0.0,0.0,0.0,0.0,0.0,0.0,0.0,0.0,0.0,0.0,0.0,0.0,0.0,0.0,0.0,0.0,0.0,0.0,0.0,0.0,0.0,0.0,0.0,0.0,0.0,0.0,0.0,0.0,0.0,0.0,0.0,0.0,0.0,0.0,0.0,0.0,0.0,0.0,0.0,0.0,0.0,0.0,0.0,0.0,0.0,0.0,0.0,0.0,0.0,0.0,0.0,0.0,0.0,0.0,0.0,0.0,0.0,0.0,0.0,0.0,0.0,0.0,0.0,0.0,0.0,0.0,0.0,0.0,0.0,0.0,0.0,0.0,0.0,0.0,0.0,0.0,0.0,0.0,3.1661,3.215,3.2053,3.1898,3.1727,3.1553,3.0295,2.947,2.9061,0.0,0.0,0.0,0.0,0.0,0.0,0.0,0.0,0.0,0.0,0.0,0.0,0.0,0.0,0.0,0.0,0.0,0.0,0.0,0.0,0.0,0.0,0.0,0.0,0.0,0.0,0.0,0.0,0.0,0.0,0.0,0.0,0.0,0.0,0.0,0.0,0.0,0.0,3.4946,3.6815,0.0,0.0,0.0,0.0,0.0,0.0,0.0,0.0,3.9852,0.0,0.0,0.0,0.0,0.0,0.0,0.0,0.0,0.0,0.0,0.0,0.0,0.0,0.0,0.0,0.0,0.0,0.0,0.0,0.0,0.0,0.0,0.0,0.0,0.0,0.0,0.0,0.0,0.0,0.0,0.0,0.0,0.0,0.0,0.0,0.0,0.0,0.0,0.0,0.0,0.0,0.0,0.0,0.0,0.0,0.0,0.0,0.0,0.0,0.0,0.0,0.0,0.0,0.0,0.0,0.0,3.1228,3.1876,3.2191,3.2163,3.2053,3.1898,3.1726,3.0446,2.9773,2.9709,0.0,0.0,0.0,0.0,0.0,0.0,0.0,0.0,0.0,0.0,0.0,0.0,0.0,0.0,0.0,0.0,0.0,0.0,0.0,0.0,0.0,0.0,0.0,0.0,0.0,0.0,0.0,0.0,0.0,0.0,0.0,0.0,0.0,0.0,0.0,0.0,0.0,0.0,0.0,3.8434,3.9681,0.0,0.0,0.0,0.0,0.0,0.0,0.0,0.0,4.2288,0.0,0.0,0.0,0.0,0.0,0.0,0.0,0.0,0.0,0.0,0.0,0.0,0.0,0.0,0.0,0.0,0.0,0.0,0.0,0.0,0.0,0.0,0.0,0.0,0.0,0.0,0.0,0.0,0.0,0.0,0.0,0.0,0.0,0.0,0.0,0.0,0.0,0.0,0.0,0.0,0.0,0.0,0.0,0.0,0.0,0.0,0.0,0.0,0.0,0.0,0.0,0.0,0.0,0.0,0.0,3.1382,3.2004,3.2443,3.268,3.2318,3.2205,3.2396,3.0791,2.9966,0.0,0.0,0.0,0.0,0.0,0.0,0.0,0.0,0.0,0.0,0.0,0.0,0.0,0.0,0.0,0.0,0.0,0.0,0.0,0.0,0.0,0.0,0.0,0.0,0.0,0.0,0.0,0.0,0.0,0.0,0.0,0.0,0.0,0.0,0.0,0.0,0.0,0.0,0.0,0.0,3.964,4.0774,4.193,0.0,0.0,0.0,0.0,0.0,0.0,4.3279,4.2972,0.0,0.0,0.0,0.0,0.0,0.0,0.0,0.0,0.0,0.0,0.0,0.0,0.0,0.0,0.0,0.0,0.0,0.0,0.0,0.0,0.0,0.0,0.0,0.0,0.0,0.0,0.0,0.0,0.0,0.0,0.0,0.0,0.0,0.0,0.0,0.0,0.0,0.0,0.0,0.0,0.0,0.0,0.0,0.0,0.0,0.0,0.0,0.0,0.0,0.0,0.0,0.0,0.0,0.0,0.0,3.1636,3.2314,3.2847,3.3196,3.2721,3.2621,3.2996,3.1232,3.0236,0.0,0.0,0.0,0.0,0.0,0.0,0.0,0.0,0.0,0.0,0.0,0.0,0.0,0.0,0.0,0.0,0.0,0.0,0.0,0.0,0.0,0.0,0.0,0.0,0.0,0.0,0.0,0.0,0.0,0.0,0.0,0.0,0.0,0.0,0.0,0.0,0.0,0.0,0.0,0.0,0.0,4.193,4.3431,4.3793,0.0,0.0,0.0,0.0,4.3914,4.3938,0.0,0.0,0.0,0.0,0.0,0.0,0.0,0.0,0.0,0.0,0.0,0.0,0.0,0.0,0.0,0.0,0.0,0.0,0.0,0.0,0.0,0.0,0.0,0.0,0.0,0.0,0.0,0.0,0.0,0.0,0.0,0.0,0.0,0.0,0.0,0.0,0.0,0.0,0.0,0.0,0.0,0.0,0.0,0.0,0.0,0.0,0.0,0.0,0.0,0.0,0.0,0.0,0.0,0.0,0.0,0.0,3.2439,3.3178,3.3493,3.3398,3.3308,3.3223,3.3156,3.1796,3.08,0.0,0.0,0.0,0.0,0.0,0.0,0.0,0.0,0.0,0.0,0.0,0.0,0.0,0.0,0.0,0.0,0.0,0.0,0.0,0.0,0.0,0.0,0.0,0.0,0.0,0.0,0.0,0.0,0.0,0.0,0.0,0.0,0.0,0.0,0.0,0.0,0.0,0.0,0.0,0.0,0.0,4.3483,4.4958,4.5742,4.6441,0.0,0.0,4.6931,4.632,4.6199,0.0,0.0,0.0,0.0,0.0,0.0,0.0,0.0,0.0,0.0,0.0,0.0,0.0,0.0,0.0,0.0,0.0,0.0,0.0,0.0,0.0,0.0,0.0,0.0,0.0,0.0,0.0,0.0,0.0,0.0,0.0,0.0,0.0,0.0,0.0,0.0,0.0,0.0,0.0,0.0,0.0,0.0,0.0,0.0,0.0,0.0,0.0,0.0,0.0,0.0,0.0,0.0,0.0,0.0,0.0,3.2092,3.327,3.364,3.4156,3.4845,3.4459,3.4229,3.4171,3.2857,3.1661,0.0,0.0,0.0,0.0,0.0,0.0,0.0,0.0,0.0,0.0,0.0,0.0,0.0,0.0,0.0,0.0,0.0,0.0,0.0,0.0,0.0,0.0,0.0,0.0,0.0,0.0,0.0,0.0,0.0,0.0,0.0,0.0,0.0,0.0,0.0,0.0,0.0,0.0,0.0,0.0,0.0,0.0,4.5889,4.7086,0.0,0.0,0.0,4.8051,4.7327,0.0,0.0,0.0,0.0,0.0,0.0,0.0,0.0,0.0,0.0,0.0,0.0,0.0,0.0,0.0,0.0,0.0,0.0,0.0,0.0,0.0,0.0,0.0,0.0,0.0,0.0,0.0,0.0,0.0,0.0,0.0,0.0,0.0,0.0,0.0,0.0,0.0,0.0,0.0,0.0,0.0,0.0,0.0,0.0,0.0,0.0,0.0,0.0,0.0,0.0,0.0,0.0,0.0,0.0,0.0,0.0,0.0,3.3916,3.4135,3.4779,3.5907,3.5455,3.5174,3.5159,3.3876,0.0,0.0,0.0,0.0,0.0,0.0,0.0,0.0,0.0,0.0,0.0,0.0,0.0,0.0,0.0,0.0,0.0,0.0,0.0,0.0,0.0,0.0,0.0,0.0,0.0,0.0,0.0,3.1992,0.0,0.0,0.0,0.0,0.0,0.0,0.0,0.0,0.0,0.0,0.0,0.0,0.0,0.0,4.5355,4.6719,4.8048,4.8728,0.0,0.0,4.8827,4.8086,4.7372,4.6613,0.0,0.0,0.0,0.0,0.0,0.0,0.0,0.0,0.0,0.0,0.0,0.0,0.0,0.0,0.0,0.0,0.0,0.0,0.0,0.0,0.0,0.0,0.0,0.0,0.0,0.0,0.0,0.0,0.0,0.0,0.0,0.0,0.0,0.0,0.0,0.0,0.0,0.0,0.0,0.0,0.0,0.0,0.0,0.0,0.0,0.0,0.0,0.0,0.0,0.0,0.0,0.0,0.0,0.0,0.0,3.4038,3.4701,3.5334,3.5984,3.5984,3.5907,3.5892,3.4563,3.3568,0.0,0.0,0.0,0.0,0.0,0.0,0.0,0.0,0.0,0.0,0.0,0.0,0.0,0.0,0.0,0.0,0.0,0.0,0.0,0.0,0.0,0.0,0.0,0.0,0.0,0.0,0.0,0.0,0.0,0.0,0.0,0.0,0.0,0.0,0.0,0.0,0.0,0.0,0.0,0.0,0.0,4.6291,4.7615,4.856,4.9266,0.0,0.0,4.9666,4.8844,4.8086,4.7362,4.6665,0.0,0.0,0.0,0.0,0.0,0.0,0.0,0.0,0.0,0.0,0.0,0.0,0.0,0.0,0.0,0.0,0.0,0.0,0.0,0.0,0.0,0.0,0.0,0.0,0.0,0.0,0.0,0.0,0.0,0.0,0.0,0.0,0.0,0.0,0.0,0.0,0.0,0.0,0.0,0.0,0.0,0.0,0.0,0.0,0.0,0.0,0.0,0.0,0.0,0.0,0.0,0.0,0.0,3.4404,3.5145,3.5844,3.6515,3.7126,3.7157,3.7009,3.6695,3.5697,3.4739,0.0,0.0,0.0,0.0,0.0,0.0,0.0,0.0,0.0,0.0,0.0,0.0,0.0,0.0,0.0,0.0,0.0,0.0,0.0,0.0,0.0,0.0,0.0,0.0,0.0,0.0,0.0,0.0,3.4478,3.4618,3.4923,0.0,0.0,0.0,0.0,0.0,0.0,0.0,0.0,0.0,0.0,4.703,4.7898,4.9497,0.0,0.0,5.0501,5.0506,4.9666,4.8499,4.7631,4.731,4.5613,0.0,0.0,0.0,0.0,0.0,0.0,0.0,0.0,0.0,0.0,0.0,0.0,0.0,0.0,0.0,0.0,0.0,0.0,0.0,0.0,0.0,0.0,0.0,0.0,0.0,0.0,0.0,0.0,0.0,0.0,0.0,0.0,0.0,0.0,0.0,0.0,0.0,0.0,0.0,0.0,0.0,0.0,0.0,0.0,0.0,0.0,0.0,0.0,0.0,0.0,0.0,0.0,3.5534,3.6247,3.6998,3.758,3.8033,3.8258,3.8103,3.7563,3.6852,3.5963,0.0,0.0,0.0,0.0,0.0,0.0,0.0,0.0,0.0,0.0,0.0,0.0,0.0,0.0,0.0,0.0,0.0,0.0,0.0,0.0,0.0,0.0,0.0,0.0,0.0,0.0,0.0,0.0,3.5773,3.5948,3.5966,0.0,0.0,0.0,0.0,0.0,0.0,0.0,0.0,0.0,0.0,4.7761,4.8128,4.9913,5.1007,5.0343,5.0679,5.0807,5.0207,4.9031,4.8183,4.8183,0.0,0.0,0.0,0.0,0.0,0.0,0.0,0.0,0.0,0.0,0.0,0.0,0.0,0.0,0.0,0.0,0.0,0.0,0.0,0.0,0.0,0.0,0.0,0.0,0.0,0.0,0.0,0.0,0.0,0.0,3.7929,0.0,0.0,0.0,0.0,0.0,0.0,0.0,0.0,0.0,0.0,0.0,0.0,0.0,0.0,0.0,0.0,0.0,0.0,0.0,0.0,0.0,0.0,3.617,3.7253,3.801,3.8387,3.8408,3.9088,3.9186,3.8579,3.7862,3.7235,3.6724,0.0,0.0,0.0,0.0,0.0,0.0,0.0,0.0,0.0,0.0,0.0,0.0,0.0,0.0,0.0,0.0,0.0,0.0,0.0,0.0,0.0,0.0,0.0,0.0,0.0,0.0,3.5778,3.6476,3.7013,0.0,0.0,0.0,0.0,0.0,0.0,0.0,0.0,0.0,0.0,4.7202,4.858,4.8339,4.9623,5.0592,5.0443,5.0432,5.0432,5.0415,4.9754,4.9249,0.0,0.0,0.0,0.0,0.0,0.0,0.0,0.0,0.0,0.0,0.0,0.0,0.0,0.0,0.0,0.0,0.0,0.0,0.0,0.0,0.0,0.0,0.0,0.0,0.0,0.0,0.0,4.2751,4.2245,0.0,0.0,0.0,0.0,0.0,0.0,0.0,0.0,0.0,0.0,0.0,4.5236,4.5113,0.0,0.0,0.0,0.0,0.0,0.0,0.0,0.0,0.0,0.0,0.0,0.0,3.7674,3.7943,3.9193,3.961,3.911,3.9907,4.0093,3.9468,3.8735,3.7878,3.6905,0.0,0.0,0.0,0.0,0.0,0.0,0.0,0.0,0.0,0.0,0.0,0.0,0.0,0.0,0.0,0.0,0.0,0.0,0.0,0.0,0.0,0.0,0.0,0.0,0.0,3.7754,0.0,0.0,0.0,0.0,0.0,0.0,0.0,0.0,0.0,0.0,0.0,4.5067,4.5556,4.7098,4.8307,4.8763,4.9658,5.0418,0.0,0.0,0.0,0.0,0.0,0.0,0.0,0.0,0.0,0.0,0.0,0.0,0.0,0.0,5.1281,4.8778,4.8393,4.8228,4.7477,0.0,0.0,0.0,0.0,0.0,0.0,0.0,0.0,0.0,0.0,0.0,0.0,0.0,0.0,0.0,0.0,4.5138,0.0,0.0,0.0,0.0,0.0,0.0,0.0,0.0,4.6424,4.6872,4.7373,4.7476,4.7264,0.0,4.6244,4.4789,0.0,0.0,0.0,0.0,0.0,0.0,0.0,0.0,3.8967,3.9291,4.0584,4.0889,4.0175,4.097,4.1017,4.018,3.9466,3.8744,3.7963,3.7377,3.6646,0.0,0.0,0.0,0.0,0.0,0.0,0.0,0.0,0.0,0.0,0.0,0.0,0.0,0.0,0.0,0.0,0.0,0.0,0.0,0.0,0.0,0.0,0.0,3.9696,0.0,0.0,0.0,0.0,0.0,0.0,0.0,0.0,0.0,4.3858,4.5336,4.655,4.6757,4.8036,4.9115,4.959,0.0,0.0,0.0,0.0,0.0,0.0,0.0,5.0399,5.0399,5.0222,5.0439,5.1465,5.2799,5.3976,5.4647,0.0,0.0,5.1512,5.1097,5.0859,4.982,4.9643,4.9227,4.7907,4.7651,4.7446,0.0,0.0,0.0,0.0,0.0,0.0,0.0,0.0,5.0523,4.9841,0.0,4.8625,0.0,0.0,0.0,0.0,0.0,0.0,0.0,0.0,4.9067,4.946,4.9496,4.9543,4.9577,4.9469,4.8133,4.7377,4.7008,4.3514,0.0,0.0,0.0,0.0,0.0,0.0,3.9961,4.1129,4.2022,4.2125,4.141,4.2236,4.203,4.0704,4.0083,3.9801,3.9863,3.932,3.837,3.6954,3.7046,0.0,0.0,0.0,0.0,0.0,0.0,0.0,0.0,0.0,0.0,0.0,0.0,0.0,0.0,0.0,0.0,0.0,0.0,0.0,0.0,4.0769,0.0,0.0,0.0,0.0,0.0,0.0,0.0,0.0,0.0,0.0,4.675,4.7316,4.7989,4.8623,0.0,0.0,0.0,0.0,5.168,5.1715,5.1715,5.1715,5.1715,5.1697,5.1697,5.168,0.0,0.0,5.4356,5.487,5.5151,5.529,5.546,5.5171,5.4159,5.3895,5.3404,5.2054,5.169,5.1383,5.0672,5.0241,5.0159,5.5501,0.0,0.0,0.0,0.0,5.2846,5.3422,5.4296,5.3795,5.3148,5.2394,5.13,0.0,0.0,0.0,0.0,0.0,0.0,4.9622,5.0398,5.0651,5.1025,5.153,5.1651,5.1457,5.0961,5.0555,4.9774,4.8587,4.6804,4.4711,4.2404,0.0,0.0,0.0,0.0,4.0909,4.1235,4.2064,4.2129,4.1441,4.2247,4.2265,4.1335,4.1136,4.0853,4.042,4.0217,3.9722,3.8841,3.8394,0.0,0.0,0.0,0.0,0.0,0.0,0.0,0.0,0.0,0.0,0.0,0.0,0.0,0.0,0.0,0.0,0.0,0.0,0.0,4.1193,4.1438,4.211,0.0,0.0,0.0,0.0,0.0,0.0,0.0,0.0,0.0,4.9176,4.9062,4.9045,0.0,0.0,5.0751,5.127,5.1398,5.1602,5.2125,0.0,0.0,0.0,5.2215,5.2197,5.2215,5.3501,5.4869,5.5835,5.6619,5.7166,5.7285,5.7385,5.7132,5.6323,5.5503,5.4838,5.4367,5.3807,5.3065,5.2299,5.1675,5.1067,5.9099,5.6141,5.5652,5.5589,5.5783,5.5865,5.6418,5.7229,5.6748,5.6107,5.5276,5.4324,5.2922,5.1227,5.0225,0.0,0.0,0.0,5.1285,5.201,5.201,5.2265,5.2666,5.2879,5.2563,5.1839,5.1593,5.0787,4.9403,4.8517,4.6981,4.4836,0.0,0.0,4.2334,4.1911,4.178,4.1941,4.2492,4.2577,4.2137,4.2383,4.2326,4.1905,4.187,4.1679,4.1265,4.1307,4.0996,4.0315,3.9969,3.951,0.0,0.0,0.0,0.0,0.0,0.0,0.0,0.0,0.0,0.0,0.0,4.015,3.9899,0.0,0.0,0.0,4.1924,4.2874,4.3273,4.3624,0.0,0.0,0.0,0.0,0.0,0.0,0.0,4.9008,4.953,5.0064,5.0817,5.0932,5.0861,5.0765,5.1231,5.1804,5.2281,0.0,5.2174,5.2611,5.2684,5.2684,5.2684,5.2684,5.2794,5.3184,5.421,5.5321,5.6213,5.689,5.7312,5.7377,5.7399,5.7272,5.6855,5.6187,5.5536,5.5177,5.4631,5.3939,5.3152,5.2596,5.2081,6.1538,6.0157,5.9069,5.8574,5.8491,5.8763,5.9091,5.9421,5.9313,5.8589,5.747,5.7252,5.5474,5.2577,5.1285,0.0,5.1743,5.2027,5.2477,5.3159,5.3159,5.3122,5.3067,5.331,5.2984,5.2114,5.1584,5.0824,4.9824,4.9085,4.8218,4.7206,4.5138,4.389,4.3468,4.2673,4.2513,4.2973,4.3099,4.318,4.3138,4.2644,4.2331,4.2348,4.2348,4.2348,4.2331,4.2412,4.2131,4.147,4.1572,4.0944,3.9535,0.0,0.0,0.0,0.0,0.0,0.0,0.0,0.0,0.0,0.0,0.0,0.0,0.0,0.0,0.0,4.3572,0.0,4.5829,4.6633,0.0,0.0,0.0,4.7763,4.8617,4.8711,4.9296,5.0839,0.0,0.0,5.1923,0.0,5.3039,5.279,5.3215,5.3521,5.3539,5.3283,5.3159,5.3159,5.3141,5.3159,5.3159,5.3178,5.3456,5.4294,5.4722,5.5157,5.5918,5.6183,5.6245,5.6339,5.6266,5.6247,5.6229,5.6075,5.5751,5.4816,5.4582,5.4275,5.361,5.329,5.3059,6.239,6.1542,6.1462,6.091,6.0084,6.0214,6.0801,6.1503,6.0358,5.9764,5.9536,5.7706,5.5806,5.3921,5.3647,5.3306,5.292,5.3127,5.3319,5.3485,5.3563,5.3306,5.2733,5.2828,5.2457,5.1695,5.156,5.1057,5.0207,4.9984,4.9411,4.8471,4.733,4.5901,4.4194,4.3262,4.2822,4.2941,4.2961,4.2981,4.2961,4.2838,4.2767,4.2767,4.2749,4.2749,4.2767,4.2768,4.2697,4.2516,4.2123,4.174,4.1358,4.0912,0.0,0.0,0.0,0.0,0.0,0.0,0.0,0.0,0.0,4.2389,4.1943,0.0,4.4773,0.0,4.5509,4.6619,4.6849,4.7056,0.0,0.0,4.9103,4.9688,5.1122,5.1292,5.1443,5.1839,5.2412,5.285,5.3022,5.3779,5.4274,5.4209,5.3959,5.3813,5.3795,5.3718,5.3621,5.3621,5.3621,5.3621,5.3621,5.3621,5.3938,5.487,5.504,5.5396,5.6292,5.648,5.6499,5.6499,5.6499,5.6257,5.5604,5.551,5.5174,5.4466,5.4457,5.4601,5.4398,5.3781,5.3093,6.3055,6.237,6.2585,6.2303,6.1766,6.1714,6.2055,6.2551,6.1342,6.0731,6.0531,5.8164,5.6396,5.5196,5.4929,5.4359,5.362,5.3738,5.3814,5.3795,5.3516,5.3162,5.2734,5.2451,5.1852,5.1068,5.1151,5.0721,4.989,4.9853,4.956,4.901,4.8226,4.7016,4.5418,4.4378,4.3669,4.3178,4.3178,4.316,4.316,4.3178,4.316,4.3178,4.316,4.3178,4.3178,4.316,4.316,4.3178,4.2918,4.2599,4.2233,4.1993,4.1743,0.0,0.0,0.0,0.0,0.0,0.0,0.0,0.0,0.0,0.0,0.0,4.6237,4.5844,4.7035,4.7983,4.8369,4.8767,4.949,5.0775,5.0889,5.1281,5.2208,5.2284,5.2435,5.2832,5.3267,5.3652,5.3981,5.4434,5.472,5.4689,5.4458,5.4214,5.4126,5.4055,5.3981,5.3944,5.3926,5.3926,5.3926,5.3982,5.4074,5.4167,5.4258,5.4387,5.4479,5.4515,5.4497,5.448,5.4463,5.4332,5.3846,5.3752,5.3583,5.3302,5.3291,5.3535,5.3754,5.33,5.2667,6.3548,6.2923,6.3051,6.3171,6.3265,6.3051,6.2971,6.2878,6.2085,6.1375,6.0617,5.8516,5.7106,5.6232,5.5566,5.4802,5.3981,5.409,5.4163,5.4106,5.334,5.2909,5.276,5.2042,5.1232,5.0424,5.0504,5.0166,4.9374,4.9355,4.9324,4.9241,4.8549,4.7735,4.68,4.59,4.4798,4.3601,4.3675,4.3658,4.3583,4.3675,4.3675,4.3566,4.3548,4.3548,4.3565,4.3565,4.3548,4.3565,4.3697,4.3444,4.2776,4.2916,4.2801,0.0,4.2319,0.0,0.0,0.0,0.0,0.0,0.0,0.0,0.0,4.6922,4.7516,4.7791,4.8505,4.9308,5.0185,5.093,5.1707,5.2485,5.2599,5.2637,5.2731,5.2731,5.3035,5.3793,5.3793,5.3992,5.4538,5.4602,5.4492,5.4367,5.428,5.4182,5.4169,5.4185,5.4232,5.418,5.418,5.4161,5.4011,5.4065,5.3873,5.3159,5.304,5.2806,5.2226,5.2113,5.2006,5.1978,5.2111,5.1999,5.1867,5.194,5.1957,5.2076,5.2132,5.2259,5.2544,5.2494,5.2048,6.3595,6.3447,6.3602,6.3695,6.3767,6.3811,6.3373,6.2531,6.1732,6.0706,5.9472,5.8446,5.751,5.6667,5.5879,5.5091,5.4321,5.4388,5.442,5.4401,5.3658,5.2956,5.2297,5.1468,5.0655,4.9883,4.9893,4.9799,4.9634,4.9634,4.9619,4.9604,4.9468,4.8897,4.8029,0.0,0.0,0.0,4.4541,4.4559,4.3966,4.4541,4.4559,4.3929,4.391,0.0,4.3892,4.391,4.391,4.391,4.403,0.0,0.0,0.0,0.0,0.0,0.0,0.0,0.0,0.0,0.0,0.0,4.7826,4.7921,4.7238,4.792,4.9007,5.0383,5.07,5.1144,5.199,5.2232,5.2675,5.3511,5.362,5.3867,5.4481,5.4557,5.4652,5.4786,5.4272,5.3897,5.3983,5.3484,5.3052,5.3095,5.3,5.2973,5.293,5.3848,5.4552,5.4573,5.4444,5.4256,5.3634,5.354,5.3292,5.2576,5.2366,5.2306,5.2099,5.2061,5.2118,5.2049,5.2105,5.2102,5.2145,5.2217,5.21,5.2265,5.2261,5.2266,5.2086,5.1935,5.1571,6.3875,0.0,6.396,6.4044,0.0,6.3794,6.3156,6.2272,6.1759,6.0732,5.9309,5.8573,5.7744,5.6914,5.6124,5.5315,5.4543,5.4592,5.4606,5.4549,5.3374,5.2598,5.2164,5.0919,5.0088,4.9711,4.9711,4.9711,4.9711,4.9711,4.9711,4.9711,4.9711,4.9263,4.8367,4.7952,4.7014,4.5496,4.5854,4.5873,4.5533,4.5888,4.5701,4.4883,0.0,0.0,0.0,0.0,0.0,0.0,0.0,0.0,0.0,0.0,0.0,4.6504,4.6542,4.6798,4.7346,4.7397,4.7606,4.8125,4.8979,4.9283,4.877,4.9524,5.0424,5.1307,5.1757,5.2354,5.3232,5.3347,5.3671,5.4478,5.4592,5.4631,5.4611,5.4611,5.4421,5.4026,5.3626,5.3359,5.334,5.2997,5.2711,5.2711,5.2692,5.266,5.2703,5.3191,5.3596,5.3569,5.3569,5.3418,5.3021,5.2908,5.2609,5.1891,5.1664,5.1489,5.1111,5.1073,5.1055,5.1055,5.1055,5.1102,5.1201,5.1209,5.1256,5.1344,5.137,5.133,5.1154,5.1231,5.109,6.4269,6.4269,6.4269,6.4347,6.4388,6.3578,6.2748,6.1915,0.0,0.0,0.0,5.8616,5.7819,5.71,5.6155,5.5362,5.4755,5.4736,5.4755,5.4661,5.3002,5.2232,5.2156,5.0529,4.9736,4.9736,4.9736,4.9717,4.9736,4.9736,4.9736,4.9736,4.9736,4.9377,4.8659,4.7998,4.7617,4.7489,4.7348,4.7183,4.7051,4.7183,4.6844,4.5984,4.5966,4.5646,4.4993,4.4974,4.4974,4.4993,4.5659,4.6077,4.6077,4.6801,4.7354,4.7559,4.7572,4.7694,4.7928,4.7947,4.8289,4.9086,4.9818,5.0219,5.0133,5.0907,5.1535,5.1744,5.2519,5.3359,5.4273,5.4381,5.456,5.5103,5.5141,5.4797,5.4051,5.3917,5.3649,5.2987,5.2769,5.2643,5.2635,5.2463,5.2394,5.2387,5.2253,5.2413,5.2428,5.2527,5.2691,5.2669,5.2712,5.2508,5.2261,5.2223,5.1901,5.1155,5.0971,5.0705,5.0187,4.9978,4.9959,5.0125,4.9978,5.0101,5.0164,5.0297,5.02,5.0317,5.0352,5.0313,5.0214,5.0443,5.0418,6.4539,6.4558,6.4539,6.4596,6.4595,6.3801,6.2626,6.1199,6.0435,5.9966,5.9662,5.8194,5.7485,5.7277,5.5742,5.497,5.4871,5.4871,5.4871,0.0,5.3133,5.2357,5.2281,5.0647,4.9871,4.9885,4.9871,4.9871,4.9852,4.9852,4.9871,4.9871,4.9871,4.9795,4.9681,4.9581,4.9511,4.9465,4.864,4.7872,4.7207,4.7853,4.7815,4.7023,4.7,4.6948,4.683,4.6811,4.6816,4.683,4.6979,4.7076,4.7108,4.7346,4.7802,4.8498,4.8644,4.8986,4.9664,4.974,4.984,5.0076,5.0325,5.0401,5.0238,5.1037,5.1904,5.2717,5.3495,5.4453,5.5322,5.5391,5.5141,5.4611,5.4534,5.4188,5.3351,5.3245,5.3178,5.2967,5.2448,5.2036,5.1968,5.144,5.1056,5.0989,5.1171,5.0998,5.1237,5.1993,5.2679,5.2762,5.2749,5.2425,5.1814,5.1636,5.1311,5.0529,5.0472,5.0453,5.0274,5.0236,5.0236,5.0243,5.0224,5.0264,5.0366,5.0438,5.0366,5.0383,5.0345,5.023,4.9624,4.9574,4.9439,6.4816,6.4834,6.4888,6.4941,6.4879,6.359,6.207,6.0564,6.0134,5.9902,5.9741,5.8619,5.7839,5.7308,5.6152,5.5337,5.4901,5.4901,5.4901,5.4787,5.3162,5.24,5.2234,5.0675,4.9893,4.9893,4.9893,4.9893,4.9893,4.9893,4.9893,4.9893,4.9893,4.9925,4.9965,4.9946,4.9978,4.9986,4.9487,4.9026,4.868,4.9007,4.8832,4.8096,4.8071,4.7838,4.7435,4.7416,4.7416,4.7416,4.7903,4.8162,4.8175,4.8644,4.9087,4.9467,4.9531,4.9752,5.0169,5.0321,5.0401,5.0468,5.0554,5.0566,5.0474,5.1269,5.1954,5.2469,5.3633,5.4406,5.4487,5.4873,5.4824,5.3937,5.386,5.3513,5.2799,5.2625,5.2423,5.1989,5.1603,5.1371,5.1352,5.1014,5.0782,5.0782,5.0782,5.0763,5.0763,5.1318,5.1749,5.1625,5.1604,5.1469,5.1086,5.1009,5.0837,5.0492,5.0453,5.0464,5.0464,5.0453,5.0453,5.0472,5.0453,5.0314,5.0077,4.9923,4.9779,4.9381,4.9351,4.9122,4.8852,4.843,4.8116,6.5042,6.5059,6.5144,6.5006,6.4495,6.2991,6.1469,6.0156,6.0099,6.0041,5.9852,5.9096,5.828,5.7408,5.6611,5.5776,5.5036,5.4941,5.496,5.479,5.3424,5.2632,5.2323,5.0919,5.0142,4.9971,4.9933,4.9952,4.9952,4.9952,4.9952,4.9952,4.9933,4.9959,5.0031,5.0031,5.0057,5.0095,4.9986,4.9952,4.9933,4.9933,4.9675,4.9144,4.9081,4.8802,4.8217,4.816,4.816,4.8198,4.8795,4.9175,4.9194,4.9778,5.0133,5.0145,5.0158,5.0231,5.0359,5.0532,5.0624,5.0663,5.0711,5.0747,5.0822,5.1344,5.1817,5.2154,5.3397,5.4033,5.3688,5.4053,5.41,5.3282,5.3146,5.2798,5.2102,5.1955,5.1722,5.1045,5.0948,5.0968,5.0948,5.0948,5.0929,5.0941,5.0948,5.0948,5.0929,5.0929,5.0866,5.0754,5.0691,5.073,5.0653,5.0692,5.0692,5.0653,5.0653,5.0673,5.0673,5.0673,5.0519,5.0422,5.0326,4.9996,4.9421,4.9228,4.9004,4.8616,4.8559,4.8361,4.8075,4.7328,4.6945,6.518,6.518,6.5177,6.4266,6.282,6.1926,6.1012,6.0175,6.0099,6.0084,5.9992,5.9231,5.8413,5.7538,5.6759,5.5941,5.5104,5.508,5.5066,5.4971,5.4166,5.3348,5.2568,5.1655,5.0837,5.0158,5.0082,5.007,5.007,5.0082,5.0082,5.0063,5.0082,5.0082,5.0095,5.0095,5.0095,5.0108,5.0076,5.0082,5.0082,5.0082,5.0044,4.9981,4.9981,4.9943,4.9778,4.986,4.986,4.9879,4.9917,4.9993,4.9974,5.0113,5.0212,5.0278,5.0337,5.0435,5.0553,5.0664,5.073,5.0764,5.0861,5.0898,5.0963,5.1099,5.146,5.2129,5.3011,5.3526,5.3572,5.3638,5.3335,5.2528,5.2399,5.2075,5.1423,5.1203,5.1145,5.1106,5.1074,5.1087,5.1074,5.1074,5.1074,5.1062,5.1062,5.1062,5.1062,5.1062,5.1055,5.1039,5.0948,5.0882,5.0874,5.0874,5.0866,5.0874,5.0874,5.0808,5.0769,5.0711,5.0623,4.9787,4.9687,4.9394,4.8813,4.8505,4.8486,4.8159,4.8095,4.8153,4.7435,4.6619,4.6352,6.5261,6.5223,6.479,6.3604,6.2063,6.1643,6.1033,6.0304,6.0285,6.0285,6.0232,5.9922,5.8968,5.7606,5.7244,5.6388,5.5132,5.5075,5.5075,5.5018,5.4289,5.3451,5.2595,5.1757,5.0926,5.0165,5.0108,5.0108,5.0108,5.0108,5.0108,5.0108,5.0108,5.012,5.0139,5.017,5.0182,5.0219,5.0219,5.0219,5.0207,5.0145,5.012,5.0158,5.0151,5.0182,5.02,5.0219,5.0219,5.0219,5.0219,5.0212,5.0278,5.0302,5.0348,5.0404,5.0483,5.0576,5.0721,5.0773,5.0858,5.0902,5.0981,5.1042,5.1063,5.1132,5.1313,5.1645,5.2363,5.2699,5.233,5.2627,5.2595,5.1836,5.1647,5.1511,5.1214,5.1156,5.1156,5.1156,5.1156,5.1156,5.1156,5.1161,5.1161,5.1156,5.1156,5.1169,5.1175,5.1161,5.1156,5.1156,5.1101,5.1069,5.1015,5.1012,5.1032,5.1032,5.1012,5.0935,5.0373,5.0257,4.9947,4.9095,4.8979,4.8644,4.7882,4.7695,4.7618,4.7372,4.7003,4.6829,4.6487,4.6132,4.6073,6.5321,6.5184,6.429,6.2968,6.1612,6.1344,6.0943,6.0441,6.0403,6.0403,6.0412,6.045,5.942,5.7886,5.7711,5.6749,5.532,5.5181,5.5168,5.5143,5.4572,5.3847,5.299,5.2171,5.1332,5.0577,5.0272,5.0158,5.0158,5.0158,5.0158,5.0158,5.0158,5.0182,5.0231,5.0224,5.0248,5.0314,5.0325,5.0337,5.0337,5.0267,5.0219,5.0212,5.0243,5.0267,5.0325,5.0325,5.0337,5.0348,5.0348,5.0371,5.0446,5.0457,5.05,5.0575,5.0635,5.0736,5.0841,5.0933,5.0988,5.1056,5.1114,5.1119,5.1128,5.1175,5.1234,5.1288,5.1763,5.1816,5.1408,5.1763,5.1808,5.1283,5.1211,5.1211,5.1206,5.1211,5.1206,5.1211,5.1201,5.1211,5.1211,5.1206,5.1201,5.1201,5.1206,5.1211,5.1211,5.1206,5.1206,5.1211,5.119,5.1173,5.114,5.1115,5.1127,5.103,5.0972,5.0468,4.9873,4.9718,4.9168,4.8373,4.8257,4.7875,4.7117,4.6859,4.6847,4.6263,4.6011,4.6026,4.6059,4.5923,4.5917,6.5413,6.5146,6.3637,6.2414,6.1554,6.0823,6.046,6.0417,6.0403,6.0431,6.0499,6.0441,5.9568,5.8074,5.7882,5.6956,5.5524,5.5371,5.539,5.5371,5.5313,5.4836,5.4008,5.3136,5.2315,5.1513,5.0844,5.0443,5.0347,5.0367,5.029,5.029,5.0347,5.0328,5.0302,5.0302,5.0325,5.0401,5.0401,5.0435,5.0489,5.047,5.0416,5.0325,5.0302,5.0325,5.0401,5.0382,5.0416,5.047,5.0481,5.0521,5.0593,5.0573,5.0654,5.0775,5.0841,5.0921,5.0983,5.1043,5.1114,5.1192,5.1203,5.12,5.1206,5.1249,5.1282,5.1306,5.1373,5.1349,5.1235,5.1347,5.1347,5.1254,5.1211,5.1215,5.1211,5.1215,5.1211,5.1211,5.1215,5.122,5.1215,5.1211,5.1215,5.1215,5.1211,5.1215,5.1215,5.1215,5.1215,5.1215,5.1211,5.1196,5.1189,5.1175,5.1177,5.0944,5.0458,4.9881,4.9629,4.9221,4.8361,4.7675,4.7481,4.7035,4.6346,4.6094,4.6166,4.5991,4.5991,4.598,4.5978,4.5978,4.5972,6.4891,6.3838,6.2689,6.1713,6.0966,6.064,6.0545,6.0506,6.0525,6.0539,6.045,6.0029,5.9165,5.8064,5.7565,5.6635,5.5509,5.5451,5.5451,5.547,5.547,5.5011,5.4276,5.3874,5.3318,5.2541,5.2158,5.1767,5.1365,5.1786,5.1449,5.0664,5.1001,5.1001,5.053,5.0416,5.0468,5.053,5.0521,5.0534,5.0546,5.0576,5.0556,5.0504,5.0459,5.0468,5.054,5.0521,5.0523,5.0566,5.0576,5.0625,5.0711,5.0775,5.0833,5.0929,5.0966,5.1004,5.1107,5.113,5.1184,5.1259,5.1283,5.1254,5.1272,5.1284,5.1308,5.1312,5.1296,5.1288,5.1261,5.1276,5.1276,5.1276,5.1256,5.1256,5.1276,5.1256,5.1256,5.1256,5.1256,5.1256,5.1256,5.1276,5.1276,5.1276,5.1276,5.1256,5.1256,5.1256,5.1252,5.1252,5.1263,5.1273,5.1264,5.122,5.1083,5.0577,5.0033,4.9211,4.8725,4.8278,4.7495,4.6955,4.6702,4.6581,4.6056,4.6032,4.6012,4.6007,4.6007,4.6007,4.5986,4.6005,4.6,6.4429,6.3143,6.2241,6.1396,6.0706,6.0667,6.0648,6.0648,6.0667,6.068,6.0551,5.983,5.9011,5.8187,5.7433,5.6575,5.5712,5.5607,5.5581,5.5562,5.5562,5.5266,5.4786,5.446,5.4057,5.347,5.3163,5.2752,5.2378,5.279,5.2464,5.1504,5.1984,5.1956,5.1448,5.1362,5.1297,5.1154,5.1097,5.0981,5.0758,5.0681,5.0709,5.0672,5.0654,5.0654,5.0683,5.0683,5.0693,5.0691,5.0709,5.0745,5.0839,5.0917,5.099,5.1043,5.1076,5.1113,5.1205,5.122,5.1259,5.1308,5.1312,5.13,5.1339,5.1339,5.1339,5.1339,5.1339,5.1319,5.1319,5.1319,5.1316,5.1304,5.1304,5.1312,5.1312,5.1335,5.1335,5.1312,5.1289,5.1289,5.13,5.13,5.1296,5.13,5.13,5.13,5.13,5.13,5.13,5.1296,5.1288,5.1105,5.0867,5.0679,5.0632,5.0179,4.9221,4.8428,4.7864,4.7358,4.6887,4.6348,4.6105,4.6061,4.6056,4.6027,4.6027,4.6027,4.6032,4.6056,4.6042,4.6037,4.6026,6.4032,6.3217,6.2358,6.1504,6.0843,6.0823,6.0793,6.0804,6.0812,6.0846,6.0757,5.9944,5.9099,5.8423,5.7532,5.6738,5.6045,5.5817,5.5726,5.5724,5.5705,5.5686,5.5551,5.4897,5.4551,5.4416,5.3665,5.3281,5.3252,5.3387,5.331,5.3146,5.3118,5.3109,5.3128,5.2945,5.2732,5.2224,5.2056,5.1667,5.1014,5.0925,5.0879,5.0879,5.089,5.0866,5.0799,5.081,5.0825,5.0871,5.0906,5.0917,5.0997,5.1063,5.1117,5.1184,5.1189,5.124,5.1282,5.131,5.1292,5.1323,5.131,5.1333,5.1385,5.1388,5.1388,5.1388,5.1388,5.1391,5.1391,5.1388,5.1379,5.1312,5.1323,5.131,5.1333,5.1366,5.1369,5.1317,5.131,5.1303,5.1308,5.1308,5.1308,5.1308,5.1308,5.1308,5.1308,5.1312,5.1304,5.1285,5.1113,5.0821,5.0388,4.9991,4.9947,4.9672,4.852,4.7566,4.7259,4.6811,4.6578,4.6137,4.6108,4.608,4.608,4.6075,4.608,4.608,4.6084,4.608,4.609,4.6081,4.6052,6.3724,6.3338,6.1967,6.1252,6.1021,6.1001,6.1001,6.1021,6.1001,6.1011,6.079,5.9589,5.8839,5.8361,5.7195,5.6417,5.6139,5.6067,5.5988,5.5922,5.5923,5.5923,5.5845,5.5633,5.5517,5.5479,5.5266,5.4792,5.4425,5.4792,5.4619,5.372,5.399,5.392,5.3498,5.339,5.3275,5.3102,5.2528,5.2116,5.1871,5.1334,5.1056,5.1037,5.1037,5.105,5.1075,5.099,5.0988,5.1037,5.1037,5.1063,5.1125,5.1164,5.1206,5.1263,5.1272,5.1288,5.1365,5.1369,5.1353,5.1366,5.1366,5.1369,5.1394,5.1394,5.1397,5.1394,5.1394,5.1394,5.1394,5.1394,5.1391,5.1359,5.1366,5.1369,5.1369,5.1391,5.1391,5.1388,5.1366,5.1366,5.1359,5.1359,5.1356,5.1356,5.1356,5.1356,5.1359,5.1297,5.1379,5.1359,5.093,5.0323,4.977,4.9124,4.8681,4.8604,4.7774,4.71,4.675,4.6536,4.6263,4.6142,4.613,4.6126,4.6122,4.6122,4.6126,4.6122,4.6098,4.6113,4.6108,4.6099,4.6095,6.3705,6.3511,6.1903,6.1206,6.1206,6.1206,6.1206,6.1206,6.1206,6.1225,6.0893,5.9495,5.8768,5.8432,5.7023,5.6309,5.6271,5.6271,5.6227,5.6136,5.6099,5.6091,5.6071,5.6071,5.6071,5.6091,5.6071,5.58,5.5323,5.5761,5.5529,5.4781,5.5013,5.5063,5.4569,5.4537,5.4453,5.4119,5.3639,5.3222,5.2844,5.2105,5.1657,5.1618,5.1346,5.1211,5.1224,5.1146,5.1145,5.1166,5.1157,5.1196,5.1234,5.1252,5.1296,5.1335,5.1342,5.1353,5.1391,5.1391,5.1397,5.14,5.1383,5.1386,5.1389,5.1391,5.1391,5.1391,5.1391,5.1391,5.1391,5.1391,5.1391,5.1391,5.1386,5.1386,5.1389,5.1391,5.1389,5.1386,5.1383,5.14,5.1397,5.1394,5.1394,5.1394,5.1394,5.1394,5.1316,5.1079,5.1004,5.0731,5.0124,4.9555,4.9051,4.8329,4.7488,4.7281,4.6996,4.6667,4.6406,4.6344,4.6185,4.6181,4.6174,4.6174,4.617,4.617,4.615,4.6142,4.6134,4.6158,4.6158,4.6149,4.6141,6.3959,6.3706,6.2172,6.1472,6.1394,6.1375,6.1394,6.1394,6.1394,6.1394,6.1058,5.9626,5.89,5.8536,5.715,5.6388,5.6402,5.6382,5.6382,5.6361,5.6283,5.6233,5.6194,5.6214,5.6214,5.622,5.622,5.6168,5.6052,5.6168,5.6207,5.6032,5.6019,5.6199,5.603,5.6255,5.5794,5.5228,5.5041,5.4574,5.3935,5.3097,5.2649,5.261,5.1904,5.1464,5.1502,5.1385,5.128,5.1308,5.1296,5.1303,5.1333,5.1366,5.1388,5.1391,5.1394,5.1394,5.1397,5.1403,5.1386,5.1396,5.1399,5.1384,5.1388,5.139,5.139,5.139,5.139,5.1392,5.1392,5.1392,5.139,5.1392,5.1384,5.1384,5.1392,5.1392,5.1388,5.1401,5.1399,5.1396,5.1403,5.14,5.14,5.14,5.1383,5.1364,5.1071,5.0681,5.021,4.9742,4.9279,4.8811,4.8326,4.7723,4.6979,4.6794,4.6588,4.6443,4.6255,4.6232,4.6209,4.6206,4.6199,4.6199,4.6199,4.6196,4.6189,4.6185,4.6181,4.6204,4.6201,4.6193,4.617,6.4624,6.3943,6.2891,6.2079,6.1528,6.1489,6.147,6.147,6.1489,6.1484,6.1125,5.9703,5.9011,5.8782,5.724,5.6473,5.6469,5.6469,5.6473,5.6453,5.6445,5.6393,5.6367,5.6372,5.6397,5.6421,5.6509,5.6369,5.6349,5.6422,5.6403,5.6349,5.6364,5.6363,5.6448,5.6448,5.6348,5.6058,5.5457,5.5126,5.4814,5.4018,5.3569,5.3488,5.275,5.2347,5.2244,5.1708,5.1369,5.1385,5.1385,5.1388,5.1372,5.1394,5.14,5.1391,5.1394,5.1396,5.1403,5.1384,5.1388,5.139,5.139,5.1392,5.1394,5.1394,5.1394,5.1394,5.1394,5.1394,5.1394,5.1394,5.1394,5.1394,5.139,5.139,5.1394,5.1394,5.1392,5.139,5.139,5.1388,5.1384,5.1384,5.1384,5.1384,5.1364,5.1167,5.0735,5.0286,4.9818,4.9061,4.8517,4.8068,4.7561,4.7014,4.6583,4.6457,4.6372,4.6367,4.6242,4.6215,4.6195,4.6195,4.6209,4.6206,4.62,4.6196,4.6209,4.6206,4.6203,4.6203,4.6196,4.6192,4.6192,6.4933,6.4051,6.3198,6.234,6.1599,6.1541,6.1541,6.1541,6.1541,6.1541,6.1233,6.0208,5.9377,5.8928,5.7648,5.6836,5.6524,5.6485,5.6482,5.656,5.6891,5.7022,5.7091,5.7271,5.7529,5.7529,5.7521,5.7564,5.7486,5.7194,5.7018,5.6921,5.6609,5.6461,5.6478,5.6498,5.6508,5.6442,5.6015,5.5784,5.5725,5.4925,5.4555,5.434,5.3696,5.3135,5.2694,5.2212,5.1798,5.1513,5.1394,5.1394,5.1394,5.1391,5.1396,5.1386,5.1386,5.1388,5.1392,5.1394,5.1394,5.1394,5.1394,5.1394,5.1394,5.1394,5.1394,5.1394,5.1394,5.1394,5.1394,5.1394,5.1394,5.1394,5.1394,5.1394,5.1394,5.1394,5.1394,5.1394,5.1394,5.1394,5.1394,5.1394,5.1394,5.1394,5.1392,5.0924,5.0356,4.9889,4.9323,4.8543,4.7783,4.7274,4.7077,4.6647,4.6474,4.6329,4.6288,4.6264,4.6238,4.6211,4.6209,4.6209,4.6209,4.6206,4.622,4.6215,4.6212,4.6209,4.6203,4.62,4.6196,4.6213,4.6213,6.5074,6.4134,6.3377,6.2499,6.1699,6.1621,6.1621,6.1602,6.1602,6.1602,6.1407,6.0744,5.9947,5.9183,5.837,5.7525,5.6862,5.704,5.694,5.7236,5.7723,5.8185,5.8263,5.8549,5.8783,5.8825,5.9063,5.8969,5.8617,5.8091,5.7798,5.7486,5.6878,5.6553,5.6525,5.6509,5.6536,5.6599,5.6523,5.6445,5.6328,5.5782,5.545,5.5294,5.4572,5.3732,5.3169,5.28,5.2526,5.1746,5.1531,5.1392,5.1392,5.1392,5.1392,5.1392,5.1392,5.1392,5.1453,5.1531,5.1609,5.1648,5.1609,5.1531,5.1609,5.1531,5.1394,5.1394,5.1394,5.1394,5.1394,5.1394,5.1394,5.1394,5.1394,5.1394,5.1394,5.1394,5.1394,5.1394,5.1394,5.1394,5.1394,5.1394,5.1394,5.1394,5.1336,5.0945,5.0221,4.9558,4.8835,4.7957,4.7198,4.6456,4.6397,4.6339,4.6339,4.6298,4.6298,4.6275,4.6245,4.6219,4.6216,4.6216,4.624,4.6238,4.6231,4.6228,4.6228,4.6203,4.6195,4.6201,4.6203,4.6198,4.6215,6.5636,6.4269,6.4094,6.3098,6.1827,6.1671,6.1671,6.1691,6.1691,6.1668,6.1495,6.0793,6.0324,6.0051,5.9192,5.8705,5.8429,5.839,5.8548,5.8666,5.9449,5.98,5.968,5.9513,5.9176,5.9218,5.9148,5.9153,5.8958,5.8507,5.7829,5.7768,5.718,5.6597,5.6638,5.6619,5.6582,5.6604,5.6604,5.6604,5.6604,5.643,5.6255,5.6177,5.5454,5.4615,5.3912,5.3717,5.3639,5.319,5.2253,5.1609,5.159,5.155,5.157,5.159,5.1531,5.1472,5.1531,5.2078,5.2431,5.2431,5.2351,5.2431,5.2351,5.1726,5.1453,5.1394,5.1394,5.1394,5.1394,5.1394,5.1394,5.1394,5.1394,5.1394,5.1394,5.1394,5.1394,5.1394,5.1394,5.1394,5.1394,5.1394,5.1394,5.1394,5.1219,5.0965,5.0223,4.9364,4.8543,4.7723,4.6924,4.6319,4.6302,4.6302,4.6302,4.6302,4.6302,4.63,4.6253,4.6249,4.6249,4.6251,4.6275,4.6271,4.6243,4.6262,4.626,4.6233,4.6209,4.6211,4.6214,4.6211,4.6228,6.5487,6.4279,6.3848,6.293,6.1835,6.1698,6.1698,6.1698,6.1698,6.1698,6.162,6.1174,6.0783,6.0393,5.9905,5.9532,5.918,5.9122,5.9336,5.9668,6.0237,6.0588,6.0959,6.06,6.0322,6.0305,6.0349,6.0312,6.0078,5.9456,5.9124,5.887,5.7797,5.7248,5.7055,5.684,5.6623,5.6604,5.6604,5.6604,5.6604,5.6604,5.6604,5.6586,5.6118,5.5493,5.4713,5.4615,5.4381,5.3893,5.3132,5.2624,5.2624,5.2605,5.2605,5.2624,5.2624,5.2624,5.28,5.3014,5.3288,5.3288,5.2977,5.2763,5.2509,5.1902,5.1453,5.1394,5.1394,5.1394,5.1394,5.1394,5.1394,5.1394,5.1394,5.1394,5.1394,5.1394,5.1394,5.1394,5.1394,5.1394,5.1394,5.1394,5.1394,5.1394,5.1375,5.1082,5.0221,4.9362,4.8543,4.7703,4.6846,4.6339,4.63,4.6302,4.6302,4.6302,4.6302,4.6302,4.6278,4.6278,4.63,4.63,4.63,4.6298,4.6273,4.6292,4.629,4.6271,4.6247,4.6245,4.6245,4.6247,4.6264,6.5097,6.4221,6.336,6.2501,6.1776,6.1698,6.1698,6.1698,6.1698,6.1698,6.1698,6.1698,6.1232,6.0744,6.0646,6.0139,5.9746,5.9649,6.0119,6.0588,6.0686,6.1056,6.1444,6.1483,6.1444,6.1698,6.1522,6.1522,6.1308,6.0861,6.008,6.0022,5.8812,5.807,5.7836,5.7406,5.7055,5.6957,5.6918,5.676,5.6643,5.6604,5.6604,5.6586,5.6528,5.6177,5.563,5.5454,5.5201,5.4478,5.44,5.44,5.4342,5.4049,5.399,5.3912,5.3776,5.3698,5.3717,5.401,5.4186,5.4166,5.362,5.3212,5.3036,5.239,5.1843,5.1609,5.157,5.1394,5.1394,5.1394,5.1394,5.1394,5.1394,5.1394,5.1394,5.1394,5.1394,5.1394,5.1394,5.1394,5.1394,5.1394,5.1394,5.1394,5.1375,5.116,5.034,4.9618,4.8935,4.823,4.751,4.6554,4.6378,4.6302,4.6302,4.6303,4.6302,4.6302,4.6302,4.6302,4.6302,4.6302,4.63,4.63,4.63,4.6298,4.6298,4.6302,4.63,4.6275,4.6277,4.63,4.6296,6.5077,6.4221,6.336,6.2501,6.1776,6.1698,6.1698,6.1698,6.1698,6.1698,6.1698,6.1698,6.162,6.1444,6.1464,6.1347,6.1035,6.0995,6.1171,6.1388,6.1388,6.1581,6.164,6.1698,6.1698,6.1698,6.1698,6.1698,6.1503,6.0861,6.0588,6.0237,5.9417,5.8909,5.8851,5.8675,5.8128,5.768,5.7601,5.7348,5.686,5.6643,5.6604,5.6604,5.6604,5.6489,5.6411,5.6352,5.6313,5.6196,5.6177,5.6098,5.5767,5.481,5.4264,5.4225,5.4264,5.4342,5.4361,5.4752,5.5005,5.5047,5.4793,5.4754,5.4402,5.3446,5.2565,5.2195,5.1785,5.1394,5.1394,5.1396,5.1394,5.1394,5.1396,5.1396,5.1396,5.1396,5.1398,5.1398,5.1396,5.1396,5.1398,5.14,5.1402,5.1402,5.1382,5.1382,5.099,5.0364,4.9776,4.9091,4.8386,4.7334,4.6456,4.636,4.6303,4.6305,4.6305,4.6306,4.6305,4.6302,4.6302,4.6305,4.6303,4.6302,4.6302,4.6302,4.6303,4.6303,4.6303,4.6302,4.6303,4.6305,4.6303,6.4414,6.3555,6.2696,6.2091,6.1757,6.1698,6.1698,6.1698,6.1698,6.1698,6.1698,6.1698,6.1698,6.1698,6.1698,6.1698,6.1698,6.1698,6.1698,6.1698,6.1698,6.1698,6.1698,6.1698,6.1698,6.1698,6.1698,6.1698,6.1679,6.1327,6.1037,6.0861,6.0198,5.9768,5.9612,5.9261,5.8968,5.8519,5.8441,5.807,5.7231,5.6879,5.6643,5.6604,5.6604,5.6604,5.6604,5.6604,5.6604,5.6584,5.6584,5.6604,5.635,5.5942,5.5318,5.5279,5.5279,5.5318,5.5357,5.5786,5.5942,5.5923,5.5611,5.532,5.5005,5.4147,5.3251,5.2626,5.1943,5.1396,5.1402,5.1403,5.1385,5.1389,5.1389,5.1389,5.1389,5.1389,5.1389,5.1387,5.1387,5.1387,5.1385,5.1387,5.1389,5.1389,5.1389,5.1387,5.1387,5.0897,5.0273,4.9628,4.8867,4.8009,4.7035,4.6664,4.6546,4.6488,4.6293,4.6294,4.6294,4.6294,4.6294,4.6295,4.6291,4.6288,4.6287,4.629,4.6288,4.6288,4.6293,4.6294,4.629,4.6287,4.6288,6.3633,6.293,6.2052,6.1698,6.1698,6.1698,6.1698,6.1698,6.1698,6.1698,6.1698,6.1698,6.1698,6.1698,6.1698,6.1698,6.1698,6.1698,6.1698,6.1698,6.1698,6.1698,6.1698,6.1698,6.1698,6.1698,6.1698,6.1698,6.1698,6.162,6.1679,6.1444,6.09,6.0666,6.0529,6.0156,5.9649,5.9378,5.9339,5.887,5.7875,5.7192,5.6721,5.6623,5.6604,5.6604,5.6604,5.6604,5.6604,5.6604,5.6604,5.6604,5.6604,5.6604,5.6604,5.6604,5.6604,5.6604,5.6567,5.6528,5.6469,5.643,5.5942,5.5669,5.5398,5.4834,5.3918,5.302,5.2222,5.1756,5.178,5.1508,5.1413,5.1396,5.1397,5.1398,5.1397,5.1397,5.1397,5.1396,5.1396,5.1415,5.1452,5.1393,5.1394,5.1394,5.1394,5.1394,5.1355,5.1044,5.0497,4.9932,4.9249,4.8548,4.7768,4.7124,4.6987,4.6909,4.6538,4.6304,4.6304,4.6304,4.6344,4.6422,4.6301,4.63,4.6297,4.6317,4.6299,4.6301,4.6302,4.6302,4.63,4.6299,4.6299,6.3086,6.2911,6.2052,6.1698,6.1698,6.1698,6.1698,6.1698,6.1698,6.1698,6.1698,6.1698,6.1698,6.1698,6.1698,6.1698,6.1698,6.1698,6.1698,6.1698,6.1698,6.1698,6.1698,6.1698,6.1698,6.1698,6.1698,6.1698,6.1698,6.1698,6.1698,6.162,6.1581,6.1522,6.133,6.1113,6.0995,6.0393,6.0237,5.9456,5.8187,5.7777,5.7328,5.6938,5.6782,5.6762,5.6803,5.6764,5.6706,5.6608,5.6606,5.6606,5.6604,5.6604,5.6604,5.6604,5.6604,5.6604,5.6606,5.6604,5.6606,5.6606,5.6413,5.643,5.6103,5.5505,5.4651,5.3936,5.3056,5.2587,5.2432,5.1905,5.1574,5.1497,5.1596,5.1538,5.1517,5.1776,5.1737,5.1815,5.1933,5.1696,5.1558,5.1478,5.1398,5.1398,5.1399,5.14,5.1342,5.1091,5.0896,5.0409,4.9843,4.914,4.8613,4.7969,4.7598,4.7441,4.7109,4.668,4.6836,4.6953,4.6601,4.6621,4.6562,4.6523,4.6543,4.6523,4.6366,4.6288,4.6269,4.6289,4.6306,4.6306,4.6307,6.2267,6.2228,6.1854,6.1698,6.1698,6.1698,6.1698,6.1698,6.1698,6.1698,6.1698,6.1698,6.1698,6.1698,6.1698,6.1698,6.1698,6.1698,6.1698,6.1698,6.1698,6.1698,6.1698,6.1698,6.1698,6.1698,6.1698,6.1698,6.1698,6.1698,6.1698,6.1698,6.1698,6.1659,6.1698,6.1698,6.1486,6.1076,6.0646,6.0041,5.9358,5.8792,5.8343,5.7992,5.7979,5.7707,5.7377,5.7324,5.7033,5.6798,5.6603,5.6603,5.6603,5.6603,5.6603,5.6603,5.6603,5.6618,5.6608,5.6606,5.6608,5.6614,5.6616,5.6579,5.6426,5.5864,5.5243,5.4796,5.3938,5.3509,5.3434,5.3102,5.2615,5.2342,5.2147,5.2148,5.2148,5.2168,5.2304,5.2381,5.2459,5.2265,5.2031,5.1835,5.166,5.1387,5.1387,5.1386,5.1386,5.1308,5.1151,5.0995,5.0428,4.9822,4.9371,4.8861,4.8447,4.827,4.821,4.7878,4.7878,4.7801,4.745,4.7528,4.784,4.7625,4.7116,4.6673,4.6462,4.6344,4.6244,4.6245,4.6266,4.6288,4.6327,6.1698,6.1698,6.1698,6.1698,6.1698,6.1698,6.1698,6.1698,6.1698,6.1698,6.1698,6.1698,6.1698,6.1698,6.1698,6.1698,6.1698,6.1698,6.1698,6.1698,6.1698,6.1698,6.1698,6.1698,6.1698,6.1698,6.1698,6.1698,6.1701,6.1703,6.1705,6.1701,6.1698,6.1698,6.1698,6.1698,6.162,6.1562,6.108,6.0634,6.0224,5.9718,5.9328,5.9117,5.9042,5.8792,5.8246,5.8171,5.7804,5.7178,5.7021,5.6962,5.6688,5.661,5.661,5.661,5.661,5.6607,5.6619,5.6616,5.6618,5.6621,5.6605,5.6607,5.6534,5.5931,5.564,5.5622,5.4821,5.4412,5.4257,5.412,5.3574,5.3183,5.3027,5.3025,5.3023,5.304,5.3055,5.3108,5.3165,5.3086,5.2814,5.2422,5.2015,5.1533,5.1396,5.1415,5.1433,5.1451,5.1335,5.1219,5.0983,5.0511,5.0253,4.9819,4.9399,4.904,4.8996,4.8796,4.8601,4.8523,4.8328,4.8582,4.8913,4.8479,4.783,4.7153,4.6524,4.636,4.6216,4.6216,4.622,4.6327,4.6531,6.1698,6.1698,6.1701,6.1701,6.1701,6.1698,6.1701,6.1703,6.1701,6.1701,6.1703,6.1701,6.1703,6.1701,6.1703,6.1703,6.1701,6.1698,6.1703,6.1703,6.1701,6.1703,6.1705,6.1705,6.1703,6.1703,6.1705,6.1703,6.1703,6.1713,6.1709,6.1701,6.1705,6.1701,6.1703,6.1705,6.1705,6.1688,6.1477,6.109,6.0723,6.0316,6.0008,5.9402,5.9208,5.9073,5.9014,5.9036,5.8548,5.7747,5.761,5.722,5.6752,5.6635,5.6615,5.6615,5.6614,5.6613,5.6611,5.6609,5.661,5.6611,5.6612,5.6614,5.6579,5.6599,5.6483,5.6328,5.5586,5.5293,5.498,5.4609,5.4355,5.4022,5.3922,5.3916,5.3912,5.3902,5.3895,5.3901,5.3874,5.3833,5.3635,5.3245,5.2772,5.2294,5.1767,5.1785,5.1605,5.1564,5.1429,5.1351,5.1347,5.1186,5.1143,5.0703,5.0118,4.979,4.9662,4.934,4.9005,4.8986,4.9274,4.9216,4.9391,4.897,4.8592,4.8116,4.7489,4.6596,4.6323,4.6774,4.6858,4.693,4.716,6.1715,6.1699,6.1699,6.1717,6.1711,6.1711,6.1715,6.1699,6.1699,6.1699,6.1699,6.1699,6.1699,6.1699,6.1701,6.1699,6.1699,6.1699,6.1699,6.1699,6.1699,6.1699,6.1699,6.1699,6.1699,6.1699,6.1699,6.1699,6.1701,6.1704,6.1704,6.1701,6.1699,6.1701,6.1701,6.1697,6.1699,6.1699,6.1702,6.145,6.1354,6.1199,6.1045,6.0772,6.0699,6.0367,6.0016,5.992,5.912,5.832,5.8008,5.7441,5.6836,5.6699,5.6621,5.6621,5.6621,5.6621,5.6618,5.6616,5.6613,5.6617,5.6619,5.6621,5.6621,5.6621,5.6621,5.6465,5.6308,5.6015,5.5996,5.5781,5.5526,5.5055,5.4796,5.4786,5.4771,5.4757,5.4895,5.4931,5.4764,5.4644,5.4383,5.4087,5.3589,5.3105,5.2559,5.2125,5.2018,5.1756,5.1639,5.1444,5.1414,5.1346,5.1261,5.1012,5.0754,5.0523,5.0286,5.0043,4.98,5.0194,5.0388,5.0194,4.998,4.9799,4.9542,4.9177,4.8516,4.7629,4.7544,4.7864,4.7817,4.7572,4.7824,6.1704,6.1709,6.1709,6.1707,6.1702,6.1701,6.1704,6.1708,6.1708,6.1709,6.1709,6.1709,6.1709,6.1709,6.1708,6.1708,6.1708,6.1708,6.1708,6.1708,6.1708,6.1709,6.1709,6.1708,6.1707,6.1709,6.1709,6.1708,6.1708,6.171,6.1711,6.1711,6.1713,6.1712,6.1708,6.1709,6.1709,6.1709,6.1711,6.1711,6.1672,6.1655,6.1656,6.1578,6.1522,6.1327,6.0897,6.0723,6.0117,5.918,5.8476,5.789,5.7265,5.6777,5.664,5.6621,5.6621,5.6621,5.6621,5.662,5.6618,5.662,5.6621,5.6621,5.6621,5.6621,5.6621,5.6601,5.6582,5.6621,5.6621,5.6366,5.6186,5.5692,5.5659,5.5643,5.5597,5.559,5.5818,5.5983,5.574,5.5434,5.5298,5.5006,5.4338,5.3822,5.3276,5.2922,5.2836,5.2472,5.1934,5.1695,5.1477,5.1366,5.122,5.1123,5.103,5.0897,5.0753,5.0853,5.0835,5.1172,5.1153,5.0757,5.0615,5.0694,5.0487,5.0091,4.9435,4.8679,4.8632,4.8525,4.8317,4.8113,4.8536,6.1709,6.1709,6.1709,6.1709,6.1709,6.1708,6.1709,6.171,6.171,6.171,6.171,6.171,6.171,6.171,6.1711,6.1712,6.1711,6.1711,6.1711,6.1711,6.1712,6.171,6.171,6.1711,6.1712,6.1709,6.1711,6.1712,6.171,6.1715,6.1716,6.1717,6.1718,6.1717,6.171,6.1709,6.1709,6.171,6.1715,6.1716,6.1717,6.1699,6.1699,6.1699,6.1699,6.1562,6.1465,6.1406,6.084,6.0019,5.9394,5.875,5.7988,5.7285,5.6992,5.6933,5.6777,5.668,5.6621,5.6621,5.6621,5.6621,5.6621,5.6621,5.6621,5.6621,5.6621,5.6621,5.6621,5.6621,5.662,5.6599,5.6455,5.6364,5.6267,5.6218,5.6145,5.6076,5.6237,5.6278,5.6281,5.6199,5.6161,5.5922,5.5166,5.4566,5.3993,5.3715,5.3646,5.3149,5.255,5.2369,5.2111,5.2028,5.1933,5.152,5.1321,5.1212,5.1373,5.1644,5.167,5.1721,5.1585,5.1294,5.1411,5.1636,5.1365,5.1023,5.0241,4.9498,4.9078,4.889,4.8702,4.8817,4.9351,6.1716,6.1718,6.1718,6.1718,6.1717,6.1716,6.1716,6.1717,6.1717,6.1699,6.1718,6.1718,6.1718,6.1718,6.1699,6.1699,6.1699,6.1717,6.1717,6.1699,6.1699,6.1718,6.1699,6.1699,6.1699,6.1699,6.1699,6.1699,6.1698,6.1797,6.1738,6.1699,6.1953,6.1699,6.1698,6.1717,6.1718,6.1698,6.1699,6.1699,6.1699,6.1699,6.1699,6.1699,6.1699,6.1699,6.1699,6.1699,6.1289,6.0605,6.0039,5.9531,5.8887,5.8223,5.8223,5.8086,5.791,5.7148,5.6816,5.6621,5.6621,5.668,5.6621,5.6621,5.6621,5.6621,5.6621,5.6621,5.6621,5.6621,5.6619,5.6616,5.6529,5.6471,5.6408,5.6383,5.6333,5.6269,5.6309,5.6253,5.6239,5.6225,5.6204,5.6178,5.5611,5.5301,5.4802,5.4589,5.4479,5.3845,5.3223,5.3204,5.3068,5.2945,5.2718,5.2355,5.2264,5.2346,5.2565,5.286,5.2787,5.2411,5.2489,5.2457,5.252,5.2551,5.2121,5.1644,5.0944,5.0305,5.0199,4.9988,4.986,5.0067,5.0449,6.0996,6.123,6.1269,6.1445,6.168,6.1698,6.1699,6.1699,6.1699,6.1699,6.1699,6.1699,6.1699,6.1699,6.1699,6.1699,6.1699,6.1699,6.1699,6.1699,6.1699,6.1699,6.1699,6.1699,6.1699,6.1699,6.1699,6.1719,6.1738,6.2031,6.2402,6.2695,6.2578,6.2539,6.2305,6.1992,6.1699,6.1699,6.1699,6.1699,6.1699,6.1699,6.1699,6.1699,6.1699,6.1699,6.1699,6.1621,6.1465,6.0918,6.0508,6.0195,5.9726,5.9375,5.9277,5.8984,5.8711,5.8047,5.7734,5.7637,5.7734,5.7695,5.7051,5.664,5.6621,5.6621,5.6621,5.6621,5.6621,5.6621,5.6618,5.6613,5.6561,5.6497,5.6455,5.642,5.6372,5.6317,5.6239,5.6197,5.6168,5.6164,5.616,5.6133,5.5936,5.5788,5.5633,5.5447,5.5222,5.4575,5.4006,5.3967,5.3766,5.3468,5.3351,5.3228,5.3244,5.346,5.3607,5.3743,5.3425,5.3038,5.3312,5.3498,5.3282,5.3011,5.2732,5.2248,5.19,5.1811,5.1912,5.1598,5.1194,5.1162,5.1298,5.9687,6.0332,6.039,6.0898,6.1562,6.166,6.1699,6.1699,6.1699,6.1699,6.1699,6.1699,6.1699,6.1699,6.1699,6.1699,6.1699,6.1699,6.1699,6.1699,6.1699,6.1699,6.1699,6.1699,6.1699,6.1699,6.1699,6.1719,6.1797,6.2402,6.3183,6.3887,6.3848,6.3535,6.2969,6.2402,6.1953,6.1777,6.1699,6.1699,6.1699,6.1699,6.1699,6.1699,6.1699,6.1699,6.1699,6.166,6.166,6.1348,6.0937,6.0625,6.0215,5.9707,5.9433,5.9258,5.9238,5.9121,5.8887,5.8789,5.8848,5.8535,5.7676,5.7012,5.6758,5.6875,5.6816,5.6699,5.6621,5.6621,5.6614,5.6564,5.6506,5.6469,5.6433,5.6388,5.6303,5.6232,5.6163,5.6118,5.6094,5.609,5.6065,5.6029,5.6073,5.5988,5.5849,5.5865,5.5622,5.5312,5.4859,5.4754,5.4447,5.392,5.3862,5.413,5.4218,5.4423,5.421,5.4221,5.3884,5.3865,5.4194,5.4252,5.3788,5.3517,5.3459,5.3362,5.3207,5.3185,5.2922,5.2612,5.2009,5.1711,5.1691,5.9336,5.9609,6.0176,6.0566,6.084,6.1445,6.1699,6.1699,6.1699,6.1699,6.1699,6.1699,6.1699,6.1699,6.1699,6.1699,6.1699,6.1699,6.1699,6.1699,6.1699,6.1699,6.1699,6.1699,6.1699,6.1699,6.1699,6.1758,6.1933,6.2617,6.3555,6.4121,6.4551,6.4238,6.3769,6.3066,6.2422,6.1894,6.1777,6.1699,6.1699,6.1699,6.1699,6.1699,6.1699,6.1699,6.1699,6.1699,6.1699,6.1582,6.1465,6.1308,6.1269,6.1055,6.084,6.0117,6.0,5.9844,5.9355,5.9219,5.9316,5.9414,5.875,5.8164,5.7773,5.75,5.7324,5.7148,5.6992,5.7067,5.7058,5.6985,5.6938,5.6929,5.6811,5.6589,5.6486,5.6282,5.6211,5.607,5.6037,5.6037,5.6012,5.6012,5.6029,5.6012,5.6012,5.6029,5.5988,5.5659,5.5484,5.5379,5.5274,5.4774,5.5045,5.5324,5.5343,5.5335,5.5064,5.4929,5.5045,5.5103,5.5219,5.5045,5.4639,5.4465,5.4407,5.4271,5.4058,5.3633,5.3351,5.3138,5.2898,5.2608,5.2414,5.8379,5.873,5.9199,5.9785,6.0508,6.1348,6.1699,6.1699,6.1699,6.1699,6.1699,6.1699,6.1699,6.1699,6.1699,6.1699,6.1699,6.1699,6.1699,6.1699,6.1699,6.1699,6.1699,6.1699,6.1699,6.1699,6.1777,6.1914,6.2363,6.3496,6.4531,6.5351,6.5332,6.5078,6.4687,6.3965,6.3086,6.2422,6.1973,6.1777,6.1699,6.1699,6.1699,6.1699,6.1699,6.1699,6.1699,6.1699,6.1699,6.1699,6.1699,6.1699,6.1699,6.164,6.1562,6.0937,6.0898,6.0742,6.0449,6.0332,6.0215,6.0156,6.0117,5.9726,5.9101,5.8672,5.8301,5.7968,5.7811,5.769,5.762,5.7541,5.7558,5.7544,5.7215,5.6872,5.6628,5.6384,5.6219,5.6048,5.6012,5.6012,5.6003,5.6023,5.6003,5.6003,5.6003,5.6012,5.602,5.5904,5.5808,5.5769,5.5818,5.5741,5.6003,5.6003,5.5857,5.5741,5.5702,5.5683,5.6003,5.5926,5.5683,5.5606,5.5528,5.5335,5.5122,5.4987,5.4755,5.4387,5.4271,5.4387,5.4116,5.3517,5.3401,5.709,5.7832,5.7949,5.9062,6.041,6.1328,6.1699,6.1699,6.1699,6.1699,6.1699,6.1699,6.1699,6.1699,6.1699,6.1699,6.1699,6.1699,6.1699,6.1699,6.1699,6.1699,6.1699,6.1699,6.1699,6.1699,6.1855,6.2168,6.3359,6.4433,6.5586,6.6836,6.6719,6.6308,6.5644,6.459,6.3711,6.3125,6.2265,6.1699,6.1699,6.1699,6.1699,6.1699,6.1699,6.1699,6.1699,6.1699,6.1699,6.1699,6.1699,6.1699,6.1699,6.1699,6.166,6.1621,6.1504,6.1445,6.1328,6.1269,6.1387,6.1465,6.166,6.1055,6.0332,5.9609,5.914,5.8711,5.8492,5.8446,5.8392,5.8337,5.8305,5.8213,5.7962,5.7709,5.7499,5.7257,5.7047,5.693,5.6902,5.6882,5.6882,5.6979,5.7056,5.6573,5.6495,5.6534,5.6487,5.6506,5.6255,5.6255,5.6313,5.6313,5.6003,5.6003,5.6003,5.5965,5.6023,5.6003,5.6003,5.6003,5.6003,5.5896,5.5799,5.5877,5.576,5.5548,5.5451,5.549,5.549,5.578,5.5412,5.4581,5.4426,5.6719,5.7031,5.834,5.9492,6.0469,6.1328,6.1699,6.1699,6.1699,6.1699,6.1699,6.1699,6.1699,6.1699,6.1699,6.1699,6.1699,6.1699,6.1699,6.1699,6.1699,6.1699,6.1699,6.1699,6.1699,6.1699,6.1914,6.2539,6.3828,6.5039,6.6015,6.6797,6.6894,6.666,6.6387,6.5195,6.4219,6.3887,6.2773,6.2051,6.1992,6.1797,6.1699,6.1699,6.1699,6.1699,6.1699,6.1699,6.1699,6.1699,6.1699,6.1699,6.1699,6.1699,6.1699,6.1699,6.1699,6.1699,6.1699,6.1699,6.1699,6.1699,6.168,6.1582,6.1172,6.0508,5.9941,5.9512,5.9268,5.9257,5.9234,5.9185,5.9128,5.8976,5.8744,5.8563,5.8359,5.8117,5.7904,5.7867,5.7877,5.7849,5.7811,5.7849,5.7965,5.7985,5.8023,5.8023,5.7898,5.7802,5.701,5.6923,5.6912,5.6815,5.639,5.6003,5.6003,5.6081,5.6119,5.6081,5.6061,5.6177,5.6274,5.6081,5.5965,5.6003,5.6003,5.5945,5.5907,5.6003,5.6003,5.6003,5.6003,5.5374,5.5412,5.6621,5.6816,5.8457,5.9433,6.0039,6.1172,6.1699,6.1699,6.1699,6.1699,6.1699,6.1699,6.1699,6.1699,6.1699,6.1699,6.1699,6.1699,6.1699,6.1699,6.1699,6.1699,6.1699,6.1699,6.1699,6.1738,6.2226,6.3047,6.4258,6.5176,6.6015,6.6758,6.6894,6.6855,6.6699,6.5586,6.4844,6.4785,6.3398,6.2871,6.2598,6.2265,6.1797,6.1699,6.1719,6.1738,6.1699,6.1699,6.1699,6.1699,6.1699,6.1699,6.1699,6.1699,6.1699,6.1699,6.1699,6.1699,6.1699,6.1699,6.1699,6.1699,6.1699,6.1621,6.1601,6.1015,6.0976,6.0619,6.0588,6.059,6.0529,6.0467,6.0403,6.0281,5.9664,5.9196,5.8784,5.8394,5.8301,5.8284,5.8294,5.8275,5.8255,5.8255,5.8333,5.8352,5.8555,5.8673,5.8712,5.9012,5.8229,5.7649,5.7697,5.7367,5.6893,5.639,5.6003,5.61,5.6381,5.6583,5.6749,5.6641,5.6573,5.6401,5.6207,5.6003,5.6003,5.6227,5.6061,5.6003,5.6003,5.6003,5.6042,5.6149,5.5995,5.6621,5.6855,5.8476,5.9219,5.9473,6.0996,6.1699,6.1699,6.1699,6.1699,6.1699,6.1699,6.1699,6.1699,6.1699,6.1699,6.1699,6.1699,6.1699,6.1699,6.1699,6.1699,6.1699,6.1699,6.1699,6.2012,6.25,6.332,6.4297,6.5176,6.5996,6.6719,6.6894,6.6894,6.664,6.6113,6.5469,6.5195,6.4512,6.4199,6.3613,6.289,6.2461,6.2148,6.1914,6.1875,6.1875,6.1758,6.1758,6.1699,6.1699,6.1699,6.1699,6.1699,6.1699,6.1699,6.1699,6.1699,6.1699,6.1699,6.1699,6.1699,6.1699,6.1699,6.168,6.1659,6.1617,6.1587,6.1571,6.154,6.1463,6.1392,6.1317,6.1193,6.0441,5.9897,5.9401,5.8979,5.8961,5.8971,5.8962,5.8962,5.8953,5.8914,5.8895,5.8865,5.8847,5.8867,5.9032,5.9544,5.9495,5.8858,5.8578,5.8133,5.7543,5.7117,5.6645,5.6848,5.7206,5.734,5.7436,5.7389,5.7196,5.678,5.6576,5.6645,5.6625,5.6809,5.6557,5.6411,5.6683,5.6916,5.6742,5.6762,5.6393,5.6621,5.6738,5.8476,5.9199,5.9473,6.0996,6.1699,6.1699,6.1699,6.1699,6.1699,6.1699,6.1699,6.1699,6.1699,6.1699,6.1699,6.1699,6.1699,6.1699,6.1699,6.1699,6.1699,6.1699,6.1699,6.209,6.2676,6.3476,6.4473,6.5293,6.6035,6.6836,6.6894,6.6855,6.6758,6.623,6.5723,6.5527,6.5117,6.4609,6.4492,6.4043,6.3945,6.3574,6.3105,6.289,6.2598,6.2031,6.1816,6.1699,6.1699,6.1699,6.1699,6.1699,6.1699,6.1699,6.1699,6.1699,6.1699,6.1699,6.1699,6.1699,6.1699,6.1699,6.1698,6.1695,6.1666,6.1647,6.1621,6.1588,6.1505,6.1407,6.1342,6.1298,6.084,6.0715,6.044,6.0335,6.0316,6.0297,6.0278,6.0277,6.0267,6.0258,6.0238,6.02,6.018,6.016,6.0053,6.0371,6.0564,6.0052,5.9464,5.8924,5.8355,5.8066,5.7757,5.7902,5.8018,5.8172,5.823,5.8191,5.7941,5.7497,5.7622,5.7825,5.7767,5.7419,5.7622,5.7593,5.7883,5.8008,5.7728,5.7371,5.7004]}]]